[[{"header":{"parameterUnit":"m.s-1","parameterCategory":1,"la1":30.6,"la2":28.766,"lo1":-90.7593,"lo2":-88.6598,"dx":0.0162,"dy":0.0183,"nx":116,"ny":114,"refTime":"2023-01-16T18:00:00:Z","depth":0,"parameterNumber":2,"parameterNumberName":"U-component_of_WINDS"},"data":[0.0,0.0,0.0,0.0,0.0,0.0,0.0,0.0,0.0,0.0,0.0,0.0,0.0,0.0,0.0,0.0,0.0,0.0,0.0,0.0,0.0,0.0,0.0,0.0,0.0,0.0,0.0,0.0,0.0,0.0,0.0,0.0,0.0,0.0,0.0,0.0,0.0,0.0,0.0,0.0,0.0,0.0,0.0,0.0,0.0,0.0,0.0,0.0,0.0,0.0,0.0,0.0,0.0,0.0,0.0,0.0,0.0,0.0,0.0,0.0,0.0,0.0,0.0,0.0,0.0,0.0,0.0,0.0,0.0,0.0,0.0,0.0,0.0,0.0,0.0,0.0,0.0,0.0,0.0,0.0,0.0,0.0,0.0,0.0,0.0,0.0,0.0,0.0,0.0,0.0,0.0,0.0,0.0,0.0,0.0,0.0,0.0,0.0,0.0,0.0,0.0,0.0,0.0,0.0,0.0,0.0,0.0,0.0,0.0,0.0,0.0,0.0,0.0,0.0,0.0,0.0,0.0,0.0,0.0,0.0,0.0,0.0,0.0,0.0,0.0,0.0,0.0,0.0,0.0,0.0,0.0,0.0,0.0,0.0,0.0,0.0,0.0,0.0,0.0,0.0,0.0,0.0,0.0,0.0,0.0,0.0,0.0,0.0,0.0,0.0,0.0,0.0,0.0,0.0,0.0,0.0,0.0,0.0,0.0,0.0,0.0,0.0,0.0,0.0,0.0,0.0,0.0,0.0,0.0,0.0,0.0,0.0,0.0,0.0,0.0,0.0,0.0,0.0,0.0,0.0,0.0,0.0,0.0,0.0,0.0,0.0,0.0,0.0,0.0,0.0,0.0,0.0,0.0,0.0,0.0,0.0,0.0,0.0,0.0,0.0,0.0,0.0,0.0,0.0,0.0,0.0,0.0,0.0,0.0,0.0,0.0,0.0,0.0,0.0,0.0,0.0,0.0,0.0,0.0,0.0,0.0,0.0,0.0,0.0,0.0,0.0,0.0,0.0,0.0,0.0,0.0,0.0,0.0,0.0,0.0,0.0,0.0,0.0,0.0,0.0,0.0,0.0,0.0,0.0,0.0,0.0,0.0,0.0,0.0,0.0,0.0,0.0,0.0,0.0,0.0,0.0,0.0,0.0,0.0,0.0,0.0,0.0,0.0,0.0,0.0,0.0,0.0,0.0,0.0,0.0,0.0,0.0,0.0,0.0,0.0,0.0,0.0,0.0,0.0,0.0,0.0,0.0,0.0,0.0,0.0,0.0,0.0,0.0,0.0,0.0,0.0,0.0,0.0,0.0,0.0,0.0,0.0,0.0,0.0,0.0,0.0,0.0,0.0,0.0,0.0,0.0,0.0,0.0,0.0,0.0,0.0,0.0,0.0,0.0,0.0,0.0,0.0,0.0,0.0,0.0,0.0,0.0,0.0,0.0,0.0,0.0,0.0,0.0,0.0,0.0,0.0,0.0,0.0,0.0,0.0,0.0,0.0,0.0,0.0,0.0,0.0,0.0,0.0,0.0,0.0,0.0,0.0,0.0,0.0,0.0,0.0,0.0,0.0,0.0,0.0,0.0,0.0,0.0,0.0,0.0,0.0,0.0,0.0,0.0,0.0,0.0,0.0,0.0,0.0,0.0,0.0,0.0,0.0,0.0,0.0,0.0,0.0,0.0,0.0,0.0,0.0,0.0,0.0,0.0,0.0,0.0,0.0,0.0,0.0,0.0,0.0,0.0,0.0,0.0,0.0,0.0,0.0,0.0,0.0,0.0,0.0,0.0,0.0,0.0,0.0,0.0,0.0,0.0,0.0,0.0,0.0,0.0,0.0,0.0,0.0,0.0,0.0,0.0,0.0,0.0,0.0,0.0,0.0,0.0,0.0,0.0,0.0,0.0,0.0,0.0,0.0,0.0,0.0,0.0,0.0,0.0,0.0,0.0,0.0,0.0,0.0,0.0,0.0,0.0,0.0,0.0,0.0,0.0,0.0,0.0,0.0,0.0,0.0,0.0,0.0,0.0,0.0,0.0,0.0,0.0,0.0,0.0,0.0,0.0,0.0,0.0,0.0,0.0,0.0,0.0,0.0,0.0,0.0,0.0,0.0,0.0,0.0,0.0,0.0,0.0,0.0,0.0,0.0,0.0,0.0,0.0,0.0,0.0,0.0,0.0,0.0,0.0,0.0,0.0,0.0,0.0,0.0,0.0,0.0,0.0,0.0,0.0,0.0,0.0,0.0,0.0,0.0,0.0,0.0,0.0,0.0,0.0,0.0,0.0,0.0,0.0,0.0,0.0,0.0,0.0,0.0,0.0,0.0,0.0,0.0,0.0,0.0,0.0,0.0,0.0,0.0,0.0,0.0,0.0,0.0,0.0,0.0,0.0,0.0,0.0,0.0,0.0,0.0,0.0,0.0,0.0,0.0,0.0,0.0,0.0,0.0,0.0,0.0,0.0,0.0,0.0,0.0,0.0,0.0,0.0,0.0,0.0,0.0,0.0,0.0,0.0,0.0,0.0,0.0,0.0,0.0,0.0,0.0,0.0,0.0,0.0,0.0,0.0,0.0,0.0,0.0,0.0,0.0,0.0,0.0,0.0,0.0,0.0,0.0,0.0,0.0,0.0,0.0,0.0,0.0,0.0,0.0,0.0,0.0,0.0,0.0,0.0,0.0,0.0,0.0,0.0,0.0,0.0,0.0,0.0,0.0,0.0,0.0,0.0,0.0,0.0,0.0,0.0,0.0,0.0,0.0,0.0,0.0,0.0,0.0,0.0,0.0,0.0,0.0,0.0,0.0,0.0,0.0,0.0,0.0,0.0,0.0,0.0,0.0,0.0,0.0,0.0,0.0,0.0,0.0,0.0,0.0,0.0,0.0,0.0,0.0,0.0,0.0,0.0,0.0,0.0,0.0,0.0,0.0,0.0,0.0,0.0,0.0,0.0,0.0,0.0,0.0,0.0,0.0,0.0,0.0,0.0,0.0,0.0,0.0,0.0,0.0,0.0,0.0,0.0,0.0,0.0,0.0,0.0,0.0,0.0,0.0,0.0,0.0,0.0,0.0,0.0,0.0,0.0,0.0,0.0,0.0,0.0,0.0,0.0,0.0,0.0,0.0,0.0,0.0,0.0,0.0,0.0,0.0,0.0,0.0,0.0,0.0,0.0,0.0,0.0,0.0,0.0,0.0,0.0,0.0,0.0,0.0,0.0,0.0,0.0,0.0,0.0,0.0,0.0,0.0,0.0,0.0,0.0,0.0,0.0,0.0,0.0,0.0,0.0,0.0,0.0,0.0,0.0,0.0,0.0,0.0,0.0,0.0,0.0,0.0,0.0,0.0,0.0,0.0,0.0,0.0,0.0,0.0,0.0,0.0,0.0,0.0,0.0,0.0,0.0,0.0,0.0,0.0,0.0,0.0,0.0,0.0,0.0,0.0,0.0,0.0,0.0,0.0,0.0,0.0,0.0,0.0,0.0,0.0,0.0,0.0,0.0,0.0,0.0,0.0,0.0,0.0,0.0,0.0,0.0,0.0,0.0,0.0,0.0,0.0,0.0,0.0,0.0,0.0,0.0,0.0,0.0,0.0,0.0,0.0,0.0,0.0,0.0,0.0,0.0,0.0,0.0,0.0,0.0,0.0,0.0,0.0,0.0,0.0,0.0,0.0,0.0,0.0,0.0,0.0,0.0,0.0,0.0,0.0,0.0,0.0,0.0,0.0,0.0,0.0,0.0,0.0,0.0,0.0,0.0,0.0,0.0,0.0,0.0,0.0,0.0,0.0,0.0,0.0,0.0,0.0,0.0,0.0,0.0,0.0,0.0,0.0,0.0,0.0,0.0,0.0,0.0,0.0,0.0,0.0,0.0,0.0,0.0,0.0,0.0,0.0,0.0,0.0,0.0,0.0,0.0,0.0,0.0,0.0,0.0,0.0,0.0,0.0,0.0,0.0,0.0,0.0,0.0,0.0,0.0,0.0,0.0,0.0,0.0,0.0,0.0,0.0,0.0,0.0,0.0,0.0,0.0,0.0,0.0,0.0,0.0,0.0,0.0,0.0,0.0,0.0,0.0,0.0,0.0,0.0,0.0,0.0,0.0,0.0,0.0,0.0,0.0,0.0,0.0,0.0,0.0,0.0,0.0,0.0,0.0,0.0,0.0,0.0,0.0,0.0,0.0,0.0,0.0,0.0,0.0,0.0,0.0,0.0,0.0,0.0,0.0,0.0,0.0,0.0,0.0,0.0,0.0,0.0,0.0,0.0,0.0,0.0,0.0,0.0,0.0,0.0,0.0,0.0,0.0,0.0,0.0,0.0,0.0,0.0,0.0,0.0,0.0,0.0,0.0,0.0,0.0,0.0,0.0,0.0,0.0,0.0,0.0,0.0,0.0,0.0,0.0,0.0,0.0,0.0,0.0,0.0,0.0,0.0,0.0,0.0,0.0,0.0,0.0,0.0,0.0,0.0,0.0,0.0,0.0,0.0,0.0,0.0,0.0,0.0,0.0,0.0,0.0,0.0,0.0,0.0,0.0,0.0,0.0,0.0,0.0,0.0,0.0,0.0,0.0,0.0,0.0,0.0,0.0,0.0,0.0,0.0,0.0,0.0,0.0,0.0,0.0,0.0,0.0,0.0,0.0,0.0,0.0,0.0,0.0,0.0,0.0,0.0,0.0,0.0,0.0,0.0,0.0,0.0,0.0,0.0,0.0,0.0,0.0,0.0,0.0,0.0,0.0,0.0,0.0,0.0,0.0,0.0,0.0,0.0,0.0,0.0,0.0,0.0,0.0,0.0,0.0,0.0,0.0,0.0,0.0,0.0,0.0,0.0,0.0,0.0,0.0,0.0,0.0,0.0,0.0,0.0,0.0,0.0,0.0,0.0,0.0,0.0,0.0,0.0,0.0,0.0,0.0,0.0,0.0,0.0,0.0,0.0,0.0,0.0,0.0,0.0,0.0,0.0,0.0,0.0,0.0,0.0,0.0,0.0,0.0,0.0,0.0,0.0,0.0,0.0,0.0,0.0,0.0,0.0,0.0,0.0,0.0,0.0,0.0,0.0,0.0,0.0,0.0,0.0,0.0,0.0,0.0,0.0,0.0,0.0,0.0,0.0,0.0,0.0,0.0,0.0,0.0,0.0,0.0,0.0,0.0,0.0,0.0,0.0,0.0,0.0,0.0,0.0,0.0,0.0,0.0,0.0,0.0,0.0,0.0,0.0,0.0,0.0,0.0,0.0,0.0,0.0,0.0,0.0,0.0,0.0,0.0,0.0,0.0,0.0,0.0,0.0,0.0,0.0,0.0,0.0,0.0,0.0,0.0,0.0,0.0,0.0,0.0,0.0,0.0,0.0,0.0,0.0,0.0,0.0,0.0,0.0,0.0,0.0,0.0,0.0,0.0,0.0,0.0,0.0,0.0,0.0,0.0,0.0,0.0,0.0,0.0,0.0,0.0,0.0,0.0,0.0,0.0,0.0,0.0,0.0,0.0,0.0,0.0,0.0,0.0,0.0,0.0,0.0,0.0,0.0,0.0,0.0,0.0,0.0,0.0,0.0,0.0,0.0,0.0,0.0,0.0,0.0,0.0,0.0,0.0,0.0,0.0,0.0,0.0,0.0,0.0,0.0,0.0,0.0,0.0,0.0,0.0,0.0,0.0,0.0,0.0,0.0,0.0,0.0,0.0,0.0,0.0,0.0,0.0,0.0,0.0,0.0,0.0,0.0,0.0,0.0,0.0,0.0,0.0,0.0,0.0,0.0,0.0,0.0,0.0,0.0,0.0,0.0,0.0,0.0,0.0,0.0,0.0,0.0,0.0,0.0,0.0,0.0,0.0,0.0,0.0,0.0,0.0,0.0,0.0,0.0,0.0,0.0,0.0,0.0,0.0,0.0,0.0,0.0,0.0,0.0,0.0,0.0,0.0,0.0,0.0,0.0,0.0,0.0,0.0,0.0,0.0,0.0,0.0,0.0,0.0,0.0,0.0,0.0,0.0,0.0,0.0,0.0,0.0,0.0,0.0,0.0,0.0,0.0,0.0,0.0,0.0,0.0,0.0,0.0,0.0,0.0,0.0,0.0,0.0,0.0,0.0,0.0,0.0,0.0,0.0,0.0,0.0,1.2598,1.2005,0.0,0.0,0.0,0.0,0.0,0.0,0.0,0.0,0.0,0.0,0.0,0.0,0.0,0.0,0.0,0.0,0.0,0.0,0.0,0.0,0.0,0.0,0.0,0.0,0.0,0.0,0.0,0.0,0.0,0.0,0.0,0.0,0.0,0.0,0.0,0.0,0.0,0.0,1.4121,1.5273,1.6269,1.582,1.4699,1.31,0.0,0.0,0.0,0.0,0.0,0.0,0.0,0.0,0.0,0.0,0.0,0.0,0.0,0.0,0.0,0.0,0.0,0.0,0.0,0.0,0.0,0.0,0.0,0.0,0.0,0.0,0.0,0.0,0.0,0.0,0.0,0.0,0.0,0.0,0.0,0.0,0.0,0.0,0.0,0.0,0.0,0.0,0.0,0.0,0.0,0.0,0.0,0.0,0.0,0.0,0.0,0.0,0.0,0.0,0.0,0.0,0.0,0.0,0.0,0.0,0.0,0.0,0.0,0.0,0.0,0.0,0.0,0.0,0.0,0.0,1.2641,1.196,0.0,0.0,0.0,0.0,0.0,0.0,0.0,0.0,0.0,0.0,0.0,0.0,0.0,0.0,0.0,0.0,0.0,0.0,0.0,0.0,0.0,0.0,0.0,0.0,0.0,0.0,0.0,0.0,0.0,0.0,0.0,0.0,0.0,0.0,0.0,0.0,0.0,0.0,1.6395,1.8208,1.9629,1.9707,1.8223,1.542,1.4777,0.0,0.0,0.0,0.0,0.0,0.0,0.0,0.0,0.0,0.0,0.0,0.0,0.0,0.0,0.0,0.0,0.0,0.0,0.0,0.0,0.0,0.0,0.0,0.0,0.0,0.0,0.0,0.0,0.0,0.0,0.0,0.0,0.0,0.0,0.0,0.0,0.0,0.0,0.0,0.0,0.0,0.0,0.0,0.0,0.0,0.0,0.0,0.0,0.0,0.0,0.0,0.0,0.0,0.0,0.0,0.0,0.0,0.0,0.0,0.0,0.0,0.0,0.0,1.5478,1.4941,1.5125,1.4664,1.3874,1.2861,1.2734,1.1825,1.0617,1.2531,0.0,0.0,0.0,0.0,0.0,0.0,0.0,0.0,0.0,0.0,0.0,0.0,0.0,0.0,0.0,0.0,0.0,0.0,0.0,0.0,0.0,1.3418,1.3574,1.3899,1.3938,1.3938,0.0,0.0,0.0,0.0,0.0,0.0,0.0,1.3997,1.4952,1.6875,1.9358,2.0722,2.0956,2.1367,2.1309,2.0801,1.9219,1.7695,1.6239,0.0,0.0,0.0,0.0,0.0,0.0,0.0,0.0,0.0,0.0,0.0,0.0,0.0,0.0,0.0,0.0,0.0,0.0,0.0,0.0,0.0,0.0,0.0,0.0,0.0,0.0,0.0,0.0,0.0,0.0,0.0,0.0,0.0,0.0,0.0,0.0,0.0,0.0,0.0,0.0,0.0,1.4392,1.3521,0.0,0.0,0.0,0.0,0.0,0.0,0.0,0.0,0.0,0.0,0.0,0.0,0.0,1.8838,1.9386,1.9298,1.9404,1.9693,2.0436,2.0864,2.0798,1.8437,1.7247,1.6891,1.365,0.0,1.1526,1.1063,0.0,0.0,0.0,0.0,0.0,0.0,0.0,0.0,0.0,0.0,0.0,0.0,0.0,0.0,0.0,0.0,0.0,0.0,0.0,0.0,0.0,1.459,1.5362,1.5556,1.6453,1.6621,1.5634,0.0,0.0,0.0,0.0,0.0,1.4816,1.5204,1.6545,1.8856,2.1011,2.2621,2.3558,2.3966,2.417,2.4084,2.2227,2.0431,1.8789,1.7435,0.0,0.0,0.0,0.0,0.0,0.0,0.0,0.0,0.0,0.0,0.0,0.0,0.0,0.0,0.0,0.0,0.0,0.0,0.0,0.0,0.0,0.0,0.0,0.0,0.0,0.0,0.0,0.0,0.0,0.0,0.0,0.0,0.0,0.0,0.0,0.0,0.0,0.0,0.0,1.3667,1.4402,1.368,1.4559,1.4865,0.0,0.0,0.0,0.0,0.0,0.0,0.0,0.0,0.0,1.8624,1.9947,2.0762,2.1029,1.9567,1.8891,1.9005,1.745,1.6682,1.6619,1.544,1.4843,1.4775,1.3058,1.23,1.2157,1.2018,1.2414,1.3142,0.0,0.0,0.0,0.0,1.3672,1.3507,0.0,0.0,0.0,0.0,0.0,0.0,0.0,0.0,0.0,0.0,0.0,0.0,1.4492,1.6328,1.7603,1.7837,1.9043,1.9102,1.7467,1.735,0.0,0.0,0.0,1.5488,1.5898,1.7063,1.898,2.1635,2.3155,2.4539,2.5865,2.6098,2.602,2.5541,2.41,2.235,2.0435,1.8654,1.7597,1.6935,0.0,0.0,0.0,0.0,0.0,0.0,0.0,0.0,0.0,0.0,0.0,0.0,0.0,0.0,0.0,0.0,0.0,0.0,0.0,0.0,0.0,0.0,0.0,0.0,0.0,0.0,0.0,0.0,0.0,0.0,0.0,0.0,0.0,0.0,0.0,0.0,0.0,1.4402,1.5164,1.4359,1.5571,1.6166,0.0,0.0,0.0,0.0,0.0,0.0,1.797,1.879,1.9421,1.9643,2.0479,2.1015,2.1152,1.9238,1.8281,1.8265,1.5539,1.4152,1.4152,1.3659,1.3447,1.3447,1.2947,1.2712,1.2674,1.2733,1.2624,1.2653,1.3488,1.4042,1.4231,1.3915,1.3789,1.359,0.0,0.0,0.0,0.0,0.0,0.0,0.0,0.0,0.0,0.0,0.0,1.6707,1.7148,1.873,2.006,2.0898,2.1054,2.0527,1.9238,1.916,1.8398,1.6687,1.6609,1.6804,1.7266,1.982,2.2793,2.6071,2.6609,2.6903,2.7032,2.705,2.6249,2.4729,2.4654,2.3047,2.0377,1.9525,1.8797,1.8031,1.5895,0.0,0.0,0.0,0.0,0.0,0.0,0.0,0.0,0.0,0.0,0.0,0.0,0.0,0.0,0.0,0.0,0.0,0.0,0.0,0.0,0.0,0.0,0.0,0.0,0.0,0.0,0.0,0.0,0.0,0.0,0.0,0.0,0.0,0.0,0.0,0.0,0.0,0.0,1.638,1.7448,0.0,0.0,0.0,0.0,1.9426,1.9613,1.9773,2.0007,1.9377,1.9076,1.9207,1.8484,1.8285,1.8774,1.8605,1.8735,1.8945,1.8798,1.8642,1.8573,1.68,1.6013,1.5941,1.4102,1.3275,1.3057,1.2094,1.2423,1.3506,1.2976,1.3495,1.4409,1.3242,1.2783,1.2562,0.0,0.0,0.0,0.0,0.0,0.0,0.0,0.0,0.0,1.3516,1.5625,1.7305,1.7734,2.0547,2.2251,2.1876,2.3744,2.3863,2.1317,2.1301,2.0723,1.9258,1.8364,1.8248,1.8939,1.9909,2.1179,2.2713,2.4126,2.4951,2.5114,2.5276,2.5077,2.4439,2.3245,2.199,2.0829,2.0524,2.0119,1.9442,1.7121,1.6325,0.0,0.0,0.0,0.0,0.0,0.0,0.0,0.0,0.0,0.0,0.0,0.0,0.0,0.0,0.0,0.0,0.0,0.0,0.0,0.0,0.0,0.0,0.0,0.0,0.0,0.0,0.0,0.0,0.0,0.0,0.0,0.0,0.0,0.0,0.0,0.0,0.0,1.8023,1.9118,0.0,1.8918,1.8851,1.9199,2.0013,2.0949,2.1523,2.163,2.2488,2.2913,2.3015,2.2893,2.2983,2.3336,2.2086,2.1658,2.1903,1.9202,1.7872,1.779,1.5643,1.4678,1.4601,1.3908,1.3654,1.3573,1.32,1.3058,1.3216,1.2993,1.3199,1.3499,1.3049,1.2907,1.2824,0.0,0.0,0.0,0.0,0.0,0.0,0.0,0.0,0.0,1.4727,1.707,1.9004,1.9863,2.291,2.466,2.4091,2.6123,2.6102,2.2972,2.2666,2.1755,1.9829,1.9169,1.9497,2.0899,2.0719,2.1292,2.2779,2.3547,2.3944,2.4168,2.4312,2.4092,2.3508,2.2285,2.159,2.1424,2.1278,2.1046,2.069,1.8373,1.7337,1.7007,0.0,0.0,0.0,0.0,0.0,0.0,0.0,0.0,0.0,0.0,0.0,0.0,0.0,0.0,0.0,0.0,0.0,0.0,0.0,0.0,0.0,0.0,0.0,0.0,0.0,0.0,0.0,0.0,0.0,0.0,0.0,0.0,0.0,0.0,1.7796,1.8985,1.9199,2.0254,2.0855,2.0561,2.0628,2.0648,2.059,2.1582,2.1911,2.1278,2.2545,2.3307,2.3316,2.3663,2.3605,2.306,2.1757,2.0857,2.0259,1.7483,1.6111,1.6034,1.4572,1.3919,1.3919,1.3973,1.3966,1.3919,1.3919,1.3661,1.3261,1.3261,1.3261,1.3261,1.3261,1.3261,1.3254,0.0,0.0,0.0,0.0,0.0,0.0,0.0,1.3841,1.4894,1.709,1.9629,2.1853,2.3613,2.5742,2.7207,2.7604,2.8013,2.6948,2.401,2.3159,2.1382,1.8284,1.8929,2.0594,2.3079,2.2347,2.3505,2.6726,2.5126,2.4366,2.4381,2.4381,2.3551,2.2017,2.2017,2.2004,2.1977,2.1762,2.1707,2.1598,1.965,1.876,1.8394,0.0,0.0,0.0,0.0,0.0,0.0,0.0,0.0,0.0,0.0,0.0,0.0,0.0,0.0,0.0,0.0,0.0,0.0,0.0,0.0,0.0,0.0,0.0,0.0,0.0,0.0,0.0,0.0,0.0,0.0,0.0,0.0,0.0,1.6951,1.9194,2.0446,1.9867,2.0935,2.175,2.1965,2.2191,2.2102,2.1359,2.1557,2.0968,1.9151,1.9472,1.9785,1.9917,2.0375,1.9605,1.7468,1.7392,1.6305,1.4029,1.395,1.395,1.395,1.4101,1.4082,1.4089,1.4238,1.4217,1.4082,1.4082,1.3987,1.3765,1.3759,1.3838,1.3838,1.3838,1.3838,1.3824,0.0,0.0,0.0,0.0,0.0,0.0,0.0,1.3841,1.4894,1.709,1.9629,2.197,2.4023,2.6191,2.7353,2.7012,2.6995,2.6046,2.3791,2.2502,2.1157,1.955,2.0573,2.1546,2.223,2.2075,2.2517,2.3667,2.3203,2.3061,2.3281,2.3281,2.3079,2.2619,2.2619,2.2498,2.2298,2.2218,2.2067,2.1842,2.0665,1.9935,1.9398,0.0,0.0,0.0,0.0,0.0,0.0,0.0,0.0,0.0,0.0,0.0,0.0,0.0,0.0,0.0,0.0,0.0,0.0,0.0,0.0,0.0,0.0,0.0,0.0,0.0,0.0,0.0,0.0,0.0,0.0,0.0,1.6229,1.7453,1.7827,1.8647,1.9519,2.034,2.2223,2.3001,2.1655,2.1788,2.1342,1.978,2.0032,2.0043,1.9544,1.9915,2.0156,2.0216,2.0359,2.0239,1.9864,1.9942,1.9751,1.9292,1.7684,1.6984,1.6769,1.5159,1.4333,1.4238,1.4285,1.4278,1.4238,1.4238,1.4211,1.415,1.3926,1.3838,1.3838,1.3838,1.3838,1.3752,0.0,0.0,0.0,0.0,0.0,0.0,0.0,1.3827,1.5049,1.8305,1.9773,2.1797,2.5119,2.6423,2.6913,2.666,2.6352,2.5198,2.2878,2.1258,2.0292,2.011,2.1058,2.1726,2.2118,2.2252,2.2432,2.2605,2.2605,2.2699,2.2928,2.2928,2.2928,2.2928,2.2928,2.2766,2.2605,2.2605,2.2432,2.2124,2.1617,2.074,1.9598,1.893,1.8542,1.8299,1.8221,1.8842,1.9618,1.8928,0.0,0.0,0.0,0.0,0.0,0.0,0.0,0.0,0.0,0.0,0.0,0.0,0.0,0.0,0.0,0.0,0.0,0.0,0.0,0.0,0.0,0.0,0.0,0.0,1.5771,1.6362,1.6817,1.7744,1.8659,1.9639,2.0916,2.1445,2.0494,2.0692,2.008,1.807,1.8381,1.8201,1.7299,1.8418,1.91,1.91,2.0206,2.0439,1.9615,1.9743,1.938,1.8607,1.7288,1.6664,1.6564,1.5165,1.4468,1.4387,1.4326,1.4299,1.4299,1.4299,1.4299,1.4285,0.0,0.0,0.0,0.0,1.4034,1.4034,0.0,0.0,0.0,0.0,0.0,0.0,0.0,1.3719,1.5278,1.9927,1.9989,2.1445,2.6275,2.6361,2.6226,2.6583,2.5937,2.4298,2.1393,1.9813,1.9398,2.0254,2.0962,2.167,2.2458,2.2726,2.2928,2.2928,2.2928,2.2928,2.2928,2.2928,2.2928,2.2928,2.2928,2.2928,2.2928,2.2928,2.2712,2.2472,2.2432,2.1309,1.9658,1.9011,1.8658,1.8376,1.7876,1.9114,2.0812,2.0103,0.0,0.0,0.0,0.0,0.0,0.0,0.0,0.0,0.0,0.0,0.0,0.0,0.0,0.0,0.0,0.0,0.0,0.0,0.0,0.0,0.0,0.0,0.0,0.0,1.4521,1.3598,1.4781,1.6271,1.7392,1.8072,1.8399,1.8568,1.871,1.9142,1.851,1.6312,1.6549,1.5895,1.395,1.5972,0.0,0.0,0.0,1.9637,1.7631,1.7731,1.6832,1.4767,1.478,1.4787,1.4787,1.4652,1.459,1.4577,1.4455,1.4401,1.4401,1.4401,1.4387,1.4373,1.4319,1.4299,1.4299,1.4299,1.4299,1.4299,0.0,0.0,0.0,0.0,0.0,0.0,0.0,1.3056,1.5182,1.9552,1.9823,2.1176,2.5277,2.5919,2.6389,2.7056,2.5165,2.2596,1.9598,2.0004,2.051,2.0909,2.1951,2.2605,2.2779,2.2901,2.2928,2.2928,2.2928,2.2928,2.2928,2.2928,2.2928,2.2928,2.2928,2.2928,2.2928,2.2928,2.2832,2.2752,2.2512,2.2044,2.1416,2.0828,2.0577,2.0596,2.1249,2.1759,2.2127,2.1723,2.141,2.0865,1.9196,1.7532,0.0,0.0,0.0,0.0,0.0,0.0,0.0,0.0,0.0,0.0,0.0,0.0,0.0,0.0,0.0,0.0,0.0,0.0,0.0,1.331,1.4001,1.4442,1.3231,1.3518,1.4515,1.6294,1.8233,1.8792,1.7106,1.7299,1.6691,1.4507,1.4521,1.4454,1.4027,1.4601,1.5006,1.5038,1.5541,1.5636,1.5321,1.5484,1.5384,1.493,1.5045,0.0,1.5092,1.5065,1.5052,1.5052,1.5025,1.5011,1.5011,1.5011,1.4943,1.4808,1.4441,1.4299,1.4299,1.4299,1.4299,1.4299,0.0,0.0,0.0,0.0,0.0,0.0,0.0,1.29,1.454,1.7972,1.7935,1.893,2.2492,2.2544,2.25,2.3053,2.1625,2.0175,1.8961,2.0027,2.1069,2.1951,2.2552,2.2928,2.2928,2.2928,2.2928,2.2928,2.2928,2.2928,2.2928,2.2928,2.2928,2.2928,2.2928,2.2928,2.2928,2.2928,2.2928,2.2914,2.2699,2.2552,2.2365,2.1764,2.1456,2.1397,2.1686,2.2201,2.2662,2.2402,2.2537,2.2543,2.0833,1.9622,1.8494,0.0,0.0,0.0,0.0,0.0,0.0,0.0,0.0,0.0,0.0,0.0,0.0,0.0,0.0,1.5914,1.5209,0.0,1.4475,1.3038,1.3416,1.3656,1.2965,1.3037,1.358,1.4614,1.5812,1.6155,1.5181,1.5423,1.5182,1.4148,1.4211,1.4326,1.4401,1.4475,1.4557,1.4624,1.4699,1.478,1.4855,1.5079,1.5194,1.5194,1.5343,1.5411,1.5411,1.533,1.5296,1.5296,1.5215,1.5181,1.5181,1.5181,1.514,1.5052,1.4828,1.4652,1.4523,1.4523,1.4523,1.4523,0.0,0.0,0.0,0.0,0.0,0.0,0.0,0.0,1.3901,1.6347,1.5906,1.6569,1.9745,1.9092,1.8482,1.8631,1.8708,1.8768,1.8811,2.016,2.1483,2.2726,2.2901,2.2928,2.2928,2.2928,2.2928,2.2928,2.2928,2.2928,2.2928,2.2928,2.2928,2.2928,2.2928,2.2928,2.2928,2.2928,2.2928,2.2928,2.2928,2.2928,2.2874,2.2338,2.1977,2.1735,2.1323,2.1693,2.2282,2.2209,2.2854,2.3357,2.2171,2.1635,2.0733,1.7446,1.7184,0.0,0.0,0.0,0.0,0.0,0.0,0.0,0.0,1.738,1.8023,1.9038,1.8005,1.6846,1.6647,1.4819,1.3294,1.3284,1.2946,1.2854,1.3247,1.3437,1.3553,1.3614,1.3593,1.3668,1.3905,1.4095,1.4251,1.4373,1.4489,1.4611,1.4733,1.474,1.4753,1.4787,1.4903,1.4997,1.5059,1.5296,1.5425,1.5459,1.5581,1.5655,1.5676,1.5554,1.5513,1.5533,1.5411,1.5357,1.5357,1.5323,1.5316,1.5309,1.5282,1.5126,1.4909,1.4848,1.4828,1.4828,0.0,0.0,0.0,0.0,0.0,0.0,0.0,0.0,0.0,1.5977,1.5245,1.5685,1.8644,1.8482,1.8041,1.7781,1.9941,2.0554,1.8682,2.0615,2.2031,2.2445,2.2726,2.2928,2.2928,2.2928,2.2928,2.2928,2.2928,2.2928,2.2928,2.2928,2.2928,2.2928,2.2928,2.2928,2.2928,2.2928,2.2928,2.2928,2.2928,2.2928,2.2928,2.2861,2.2579,2.2245,2.1697,2.0926,2.024,2.0997,2.0495,1.9672,2.0556,1.9942,1.8605,1.7089,1.6265,1.5435,1.3961,1.4977,1.6446,1.658,1.7649,1.8811,0.0,1.9452,1.9693,2.0347,1.8827,1.7033,1.6157,1.4882,1.3575,1.2444,1.2927,1.3566,1.3743,1.3899,1.4095,1.4353,1.4278,1.4211,1.4245,1.4502,1.4672,1.4685,1.4706,1.4719,1.474,1.474,1.4801,1.4943,1.4964,1.5092,1.5357,1.5398,1.5479,1.5615,1.5628,1.5703,1.5825,1.5811,1.5879,1.6008,1.5988,1.5981,1.5967,1.5832,1.5778,1.5764,1.5635,1.5567,1.5506,1.5235,1.5133,1.5133,0.0,0.0,0.0,0.0,0.0,0.0,0.0,0.0,0.0,0.0,1.3629,1.3654,1.5086,1.5127,1.5076,1.5276,1.7647,0.0,1.8223,2.0428,2.1937,2.2392,2.2539,2.2686,2.2928,2.2928,2.2928,2.2928,2.2928,2.2928,2.2928,2.2928,2.2928,2.2928,2.2928,2.2928,2.2928,2.2928,2.2928,2.2928,2.2928,2.2928,2.2928,2.2928,2.2779,2.2539,2.143,2.0615,0.0,2.0468,2.0187,1.9893,2.1069,2.0548,1.9279,1.809,1.7609,1.7569,1.8103,1.829,1.8557,1.9533,2.0374,2.0975,2.1056,2.1336,2.1804,2.2565,2.0426,1.832,1.7824,1.5404,1.339,1.3022,1.341,1.3804,1.3953,1.4177,1.4373,1.4496,1.4618,1.4652,1.4563,1.4665,1.478,1.4869,1.4875,1.4909,1.4991,1.4997,1.5025,1.5092,1.5181,1.5289,1.5411,1.5581,1.5703,1.5764,1.5852,1.5927,1.5988,1.5988,1.6022,1.6083,1.6083,1.6083,1.6076,1.6015,1.5988,1.5981,1.592,1.5893,1.5859,1.556,1.5445,1.5445,0.0,0.0,0.0,0.0,0.0,0.0,0.0,0.0,0.0,0.0,0.0,1.2029,1.2429,1.2585,1.2878,1.3347,1.5404,0.0,0.0,1.9853,2.1403,2.2151,2.2258,2.2445,2.2739,2.2739,2.2779,2.2928,2.2928,2.2928,2.2928,2.2928,2.2928,2.2928,2.2928,2.2928,2.2928,2.2928,2.2928,2.2928,2.2928,2.2928,2.2928,2.2928,2.2673,2.2124,2.1056,2.0334,1.9853,1.9773,1.9533,1.9466,2.0655,2.0441,1.9519,1.8343,1.7969,1.833,2.0107,2.0201,2.0174,2.1724,2.2512,2.2899,2.2846,2.3166,2.3701,2.4516,2.1777,1.9282,1.9323,1.6072,1.3444,1.3709,1.3905,1.4082,1.4238,1.4475,1.4652,1.4692,1.4896,1.4984,1.4875,1.4862,1.4909,1.5018,1.5031,1.5072,1.5174,1.5181,1.5201,1.5242,1.5309,1.5391,1.5472,1.5689,1.5811,1.5852,1.6008,1.6083,1.6083,1.6083,1.6083,1.6083,1.6083,1.6083,1.6083,1.6083,1.6083,1.6083,1.6083,1.6083,1.6056,1.5839,1.5764,1.5764,0.0,0.0,0.0,0.0,0.0,0.0,0.0,0.0,0.0,0.0,0.0,0.0,0.0,1.2167,1.2438,1.2784,1.4459,0.0,0.0,1.8851,2.0374,2.1588,2.1844,2.2138,2.2432,2.2432,2.2579,2.2928,2.2928,2.2928,2.2928,2.2928,2.2928,2.2928,2.2928,2.2928,2.2928,2.2928,2.2928,2.2928,2.2928,2.2928,2.2928,2.2928,2.1977,2.0735,2.0695,0.0,1.8918,1.8637,1.7769,1.7021,1.8223,1.8571,1.8303,1.7114,1.6166,1.5885,1.7622,1.8958,2.0214,2.1964,2.3287,2.4302,2.4863,2.4997,2.5184,2.5785,2.2481,1.9594,2.0027,1.6633,1.3871,1.4034,1.4299,1.4543,1.4699,1.4855,1.5011,1.5147,1.5167,1.5174,1.5167,1.5167,1.5174,1.5174,1.5174,1.5174,1.5181,1.5181,1.5248,1.5398,1.5262,1.533,1.5628,1.5642,1.5716,1.5852,1.6008,1.6083,1.6083,1.6083,1.6083,1.6083,1.6083,1.6083,1.6083,1.6083,1.6083,1.6083,1.6083,1.6083,1.6083,1.6069,1.6069,1.6069,0.0,0.0,0.0,0.0,0.0,0.0,0.0,0.0,0.0,0.0,0.0,0.0,0.0,0.0,0.0,0.0,1.3895,1.507,1.5705,1.7903,1.9479,2.014,2.1122,2.183,2.2124,2.2124,2.2178,2.2285,2.2472,2.2565,2.2579,2.2766,2.2928,2.2928,2.2928,2.2928,2.2914,2.2645,2.2565,2.2552,2.2352,2.2285,2.2191,2.1416,2.0815,2.0174,0.0,0.0,1.7809,1.7849,1.7622,1.7502,1.8691,1.8531,1.7649,1.6473,1.6607,1.7449,1.9008,2.0494,2.1964,2.3741,2.4489,2.489,2.5277,2.5518,2.5718,2.5996,2.3202,2.0539,1.9682,1.6905,1.4512,1.361,1.4143,1.4679,1.4733,1.4957,1.5092,1.5052,1.5038,1.5004,1.4896,1.4984,1.5038,1.5038,1.495,1.4889,1.4889,1.4984,1.5065,1.512,1.5357,1.5533,1.5635,1.5832,1.5954,1.6008,1.6056,1.6083,1.6083,1.6083,1.6083,1.6083,1.6083,1.6083,1.609,1.6191,1.6232,1.6246,1.6334,1.6374,1.6374,1.6374,1.6374,1.6347,0.0,0.0,0.0,0.0,0.0,0.0,0.0,0.0,0.0,0.0,0.0,0.0,0.0,0.0,0.0,0.0,0.0,1.4028,1.4763,0.0,1.7782,1.8397,1.9484,2.0181,2.0401,2.0508,2.0628,2.0735,2.1336,2.1643,2.1643,2.2258,2.2552,2.2552,2.2552,2.2552,2.2539,2.2338,2.2205,2.2071,2.1563,2.1296,2.1096,2.0013,1.9279,0.0,0.0,1.6486,1.6273,1.6673,1.6807,1.6954,1.7822,1.7569,1.6914,1.6673,1.7236,1.8422,2.0406,2.1777,2.2979,2.4663,2.5157,2.5317,2.5611,2.5905,2.6146,2.6239,2.3741,2.1121,1.9681,1.6902,1.4462,1.3137,1.3464,1.4034,1.4306,1.455,1.4746,1.4875,1.4889,1.4848,1.4746,1.478,1.4828,1.4882,1.4794,1.4767,1.4821,1.4916,1.5045,1.5208,1.5438,1.5608,1.5716,1.5906,1.6029,1.6083,1.6083,1.6083,1.6083,1.6083,1.6083,1.6083,1.6137,1.6164,1.6178,1.6327,1.6388,1.6395,1.6483,1.6524,1.6415,1.5385,1.497,1.515,0.0,0.0,0.0,0.0,0.0,0.0,0.0,0.0,0.0,0.0,0.0,0.0,0.0,0.0,0.0,0.0,0.0,0.0,1.4295,0.0,0.0,1.654,1.6941,1.7313,1.7528,1.7809,1.8103,1.8424,1.9546,2.0047,2.0087,2.1283,2.1804,2.1804,2.1804,2.1804,2.1804,2.179,2.1617,2.136,2.0428,1.9907,1.9559,1.8651,0.0,0.0,0.0,1.5658,1.4563,1.5164,1.5431,1.5565,1.5939,1.6011,1.6277,1.7716,1.8196,1.8821,2.1683,2.2699,2.3397,2.4783,2.5358,2.5638,2.5959,2.6239,2.6493,2.6667,2.4118,2.141,1.9801,1.6684,1.3895,1.2532,1.2461,1.2854,1.3573,1.3797,1.4095,1.4658,1.4726,1.4726,1.4719,1.4584,1.4563,1.4719,1.4726,1.4794,1.4936,1.497,1.5174,1.5601,1.5499,1.5567,1.595,1.5957,1.594,1.6083,1.6083,1.6083,1.6083,1.6083,1.6083,1.6103,1.6246,1.6313,1.6334,1.6266,1.6326,1.6326,1.6128,1.6128,1.5821,1.3124,1.2097,1.2508,0.0,0.0,0.0,0.0,0.0,0.0,0.0,0.0,0.0,0.0,0.0,0.0,0.0,0.0,0.0,0.0,0.0,0.0,1.2556,0.0,0.0,0.0,0.0,0.0,0.0,0.0,0.0,1.7541,1.8009,1.837,1.8555,1.9132,1.9386,1.9386,1.9386,1.9386,1.9372,1.9132,1.8998,1.8878,0.0,1.7943,1.7742,0.0,0.0,0.0,1.4629,1.4146,1.3946,1.4803,1.5986,1.7275,1.8664,1.9105,1.9128,1.9559,2.0441,2.151,2.2485,2.3621,2.477,2.5798,2.6106,2.6306,2.6814,2.6987,2.6694,2.5451,2.3799,2.1406,1.7609,1.6329,1.5005,1.2529,1.318,1.4068,1.4258,1.4414,1.4523,1.4563,1.457,1.4529,1.4421,1.438,1.4414,1.4557,1.457,1.4584,1.4624,1.4943,1.5181,1.5296,1.5588,1.5778,1.5852,1.5967,1.6042,1.6083,1.6083,1.6083,1.6083,1.6083,1.6144,1.6252,1.6293,1.6368,1.6272,1.4341,1.3559,1.3357,1.1345,1.0529,1.0425,0.969,0.948,0.9585,0.0,0.0,0.0,0.0,0.0,0.0,0.0,0.0,0.0,0.0,0.0,0.0,0.0,0.0,0.0,0.0,0.0,0.0,0.0,1.2612,0.0,0.0,0.0,0.0,0.0,0.0,0.0,0.0,0.0,0.0,1.685,1.7448,1.7702,1.7702,1.7702,1.7702,1.7702,1.7515,0.0,0.0,0.0,0.0,0.0,0.0,0.0,1.4148,1.3733,1.4093,1.5017,1.6469,1.7716,1.8918,1.992,2.0167,2.0361,2.1002,2.1777,2.2632,2.3581,2.4636,2.5611,2.6239,2.6587,2.6653,2.6213,2.6213,2.5798,2.4022,2.2726,2.0707,1.6721,1.5946,1.4996,1.2037,1.2732,1.3743,1.4075,1.4251,1.4387,1.4496,1.457,1.4557,1.4407,1.4394,1.4482,1.4699,1.4652,1.4665,1.4801,1.5113,1.5343,1.5472,1.5723,1.5886,1.5954,1.6042,1.6083,1.6083,1.6083,1.6083,1.6083,1.4831,1.4391,1.4369,1.3247,1.2816,1.2776,1.1327,1.0735,1.0639,0.9104,0.8487,0.8382,0.7111,0.6584,0.6478,0.0,0.0,0.0,0.0,0.0,0.0,0.0,0.0,0.0,0.0,0.0,0.0,0.0,0.0,0.0,0.0,0.0,0.0,0.0,0.0,0.0,0.0,0.0,0.0,1.2663,1.2893,1.32,1.348,1.4295,0.0,0.0,0.0,0.0,0.0,0.0,0.0,0.0,0.0,0.0,0.0,0.0,0.0,0.0,0.0,0.0,0.0,1.3427,1.4736,1.6643,1.872,1.9826,2.0454,2.0673,2.0753,2.1069,2.2338,2.2712,2.3073,2.4743,2.5571,2.6052,2.6466,2.6947,2.6867,2.4829,2.4644,2.4261,2.1984,2.0734,1.91,1.6033,1.5155,1.408,1.1424,1.1911,1.284,1.3634,1.3851,1.4082,1.4496,1.4658,1.4685,1.4557,1.4176,1.4302,1.4977,1.4613,1.4567,1.5201,1.5377,1.5594,1.5872,1.5886,1.5947,1.6083,1.6083,1.5877,1.5578,1.5578,1.5386,1.49,1.2579,1.1619,1.1454,0.925,0.8274,0.8287,0.8038,0.7958,0.7852,0.7535,0.7323,0.7111,0.457,0.3615,0.3296,0.0,0.0,0.0,0.0,0.0,0.0,0.0,0.0,0.0,0.0,0.0,0.0,0.0,0.0,0.0,0.0,0.0,0.0,0.0,0.0,0.0,0.0,0.0,0.0,1.2047,1.2114,1.2395,1.2945,1.3092,1.3333,0.0,0.0,0.0,0.0,0.0,0.0,0.0,0.0,0.0,0.0,0.0,0.0,0.0,0.0,0.0,0.0,1.308,1.4576,1.6643,1.872,2.0301,2.1617,2.334,2.3875,2.3928,2.4109,2.4249,2.4476,2.5518,2.5956,2.6278,2.7215,2.7549,2.6888,2.412,2.3602,2.2337,1.7942,1.6868,1.5767,1.2721,1.2561,1.2645,1.1817,1.2352,1.3227,1.4217,1.438,1.4468,1.4679,1.4726,1.4726,1.4706,1.2762,1.2501,1.4932,1.3323,1.3103,1.5269,1.5628,1.5859,1.6035,1.6042,1.6056,1.6083,1.6083,1.4968,1.2752,1.2752,1.1593,0.935,0.8959,0.8833,0.8958,0.8466,0.8409,0.8256,0.5943,0.4995,0.4676,0.2341,0.149,0.1384,0.0958,0.0746,0.0639,0.0,0.0,0.0,0.0,0.0,0.0,0.0,0.0,0.0,0.0,0.0,0.0,0.0,0.0,0.0,0.0,0.0,0.0,0.0,0.0,0.0,0.0,0.0,0.0,1.1637,1.1637,1.185,1.2328,0.0,1.2476,1.2732,1.2732,1.2732,1.2732,1.2732,1.2732,1.2732,1.2732,1.2732,1.2719,1.2572,1.2556,0.0,0.0,0.0,0.0,0.0,1.4429,1.6273,1.7769,1.9859,2.2111,2.4035,2.4743,2.4863,2.4863,2.497,2.4984,2.4442,2.4381,2.443,2.4069,2.4102,2.3458,2.0642,2.0011,1.8927,1.5104,1.4276,1.3638,1.1481,1.1753,1.2012,1.1227,1.2223,1.3302,1.396,1.4455,1.478,1.4855,1.4923,1.4375,1.3002,1.1786,1.1154,1.1337,1.0203,1.1311,1.5435,1.4557,1.3994,1.4059,1.2652,1.1853,1.1853,1.1853,1.1249,0.9945,0.9945,0.9287,0.795,0.6559,0.6002,0.5973,0.4635,0.4023,0.3933,0.2553,0.2022,0.1916,0.0533,0.0,0.0,0.0,0.0,0.0,0.0,0.0,0.0,0.0,0.0,0.0,0.0,0.0,0.0,0.0,0.0,0.0,0.0,0.0,0.0,0.0,0.0,0.0,0.0,0.0,0.0,0.0,0.0,0.0,0.0,0.0,0.0,1.177,1.177,0.0,0.0,0.0,0.0,0.0,1.2184,1.2171,1.2118,1.2118,1.2118,0.0,0.0,1.2158,0.0,0.0,0.0,0.0,0.0,1.4095,1.5458,1.6777,1.8894,2.1269,2.3113,2.4115,2.4609,2.4609,2.4459,2.4022,2.3062,2.259,2.2128,2.0952,2.0813,2.014,1.7156,1.6461,1.5583,1.2538,1.1887,1.1572,1.0579,1.0948,1.1225,1.0515,1.1633,1.2827,1.3492,1.4217,1.4577,1.4242,1.4358,1.3333,1.0698,0.996,0.9126,0.7897,0.7696,0.9586,1.3998,1.2301,1.1244,1.1244,0.914,0.8041,0.8041,0.8041,0.7737,0.7139,0.7151,0.689,0.6241,0.4134,0.313,0.3053,0.0956,0.0,0.0,0.0,0.0,0.0,0.0,0.0,0.0,0.0,0.0,0.0,0.0,0.0,0.0,0.0,0.0,0.0,0.0,0.0,0.0,0.0,0.0,0.0,0.0,0.0,0.0,0.0,0.0,0.0,0.0,0.0,0.0,0.0,0.0,0.0,0.0,0.0,0.0,1.1463,1.1463,0.0,0.0,0.0,0.0,0.0,0.0,1.1757,1.1469,1.1469,0.0,0.0,0.0,0.0,0.0,0.0,0.0,0.0,0.0,1.332,1.3828,1.6362,1.7393,1.7996,2.0,2.175,2.306,2.306,2.1729,2.0602,2.251,2.1662,2.0262,2.0702,2.0672,1.9644,1.5704,1.4711,1.3567,0.9689,0.8898,0.8846,0.8762,0.8897,0.9222,0.9951,1.0453,1.1369,1.3166,1.3614,1.3222,1.1855,1.1763,1.072,0.8153,0.5834,0.5409,0.7612,0.7936,0.8214,0.8728,0.8535,0.8339,0.8339,0.8142,0.8041,0.8041,0.8041,0.6734,0.4326,0.4365,0.3075,0.0726,0.0523,0.0317,0.0319,0.0107,0.0,0.0,0.0,0.0,0.0,0.0,0.0,0.0,0.0,0.0,0.0,0.0,0.0,0.0,0.0,0.0,0.0,0.0,0.0,0.0,0.0,0.0,0.0,0.0,0.0,0.0,0.0,0.0,0.0,0.0,0.0,0.0,0.0,0.0,0.0,0.0,0.0,1.1049,1.1169,1.1516,0.0,0.0,0.0,0.0,0.0,0.0,1.1971,1.169,1.169,0.0,0.0,0.0,0.0,0.0,0.0,0.0,0.0,0.0,0.0,1.3454,1.503,1.6393,1.7447,1.7341,1.8078,1.9337,2.0817,2.1682,2.1715,1.972,1.9473,1.9211,1.6899,1.5916,1.4925,1.2734,1.1846,1.0898,0.8636,0.8214,0.8241,0.8336,0.8472,0.875,0.9235,1.0005,1.086,1.1904,1.2569,1.2421,1.0873,1.07,0.9269,0.5682,0.4412,0.3594,0.3157,0.32,0.3224,0.3224,0.473,0.5633,0.5633,0.4028,0.3224,0.3224,0.3224,0.2628,0.1627,0.1633,0.1031,0.0,0.0,0.0,0.0,0.0,0.0,0.0,0.0,0.0,0.0,0.0,0.0,0.0,0.0,0.0,-0.0204,0.0,0.0,0.0,0.0,0.0,0.0,0.0,0.0,0.0,0.0,0.0,0.0,0.0,0.0,0.0,0.0,0.0,0.0,0.0,0.0,0.0,0.0,0.0,0.0,0.0,0.0,1.1035,1.1116,1.153,1.1744,0.0,0.0,1.2131,1.2051,0.0,0.0,0.0,0.0,0.0,0.0,0.0,0.0,0.0,0.0,0.0,0.0,0.0,0.0,0.0,0.0,0.0,1.6071,1.5106,1.4985,1.5666,1.8262,1.972,1.9895,1.6948,1.6933,1.7038,1.4066,1.2596,1.1708,1.0846,1.0039,0.9198,0.8184,0.7988,0.8022,0.818,0.8357,0.8554,0.8771,0.9571,1.0385,1.1009,1.1721,1.1616,1.0118,0.9953,0.8241,0.3888,0.2958,0.1954,0.0099,0.0,0.0,0.0,0.1812,0.282,0.282,0.1009,0.0,0.0,0.0,0.0,0.0,0.0,0.0,0.0,0.0,0.0,0.0,0.0,0.0,0.0,0.0,0.0,0.0,0.0,0.0,-0.0102,-0.0917,-0.1217,-0.1615,0.0,0.0,0.0,0.0,0.0,0.0,0.0,0.0,0.0,0.0,0.0,0.0,0.0,0.0,0.0,0.0,0.0,0.0,0.0,0.0,0.0,0.0,0.0,0.0,0.0,0.0,0.0,1.1389,1.1389,1.1402,1.1402,1.173,1.1717,1.1415,0.0,0.0,0.0,0.0,0.0,0.0,0.0,0.0,0.0,0.0,0.0,0.0,0.0,0.0,0.0,0.0,0.0,0.0,0.0,1.2723,1.2532,1.5623,1.4781,1.3152,1.4697,1.4176,1.322,1.3084,1.2291,1.1423,1.0663,0.9802,0.9002,0.8143,0.7988,0.7988,0.7988,0.8282,0.8486,0.8486,0.8994,0.9761,1.0739,1.1212,1.0827,0.9382,0.9235,0.7541,0.3159,0.1131,0.0,0.0,0.0,0.0,0.0,0.0,0.0,0.0,0.0,0.0,0.0,0.0,0.0,0.0,0.0,0.0,0.0,0.0,0.0,0.0,0.0,0.0,0.0,0.0,0.0,0.0,0.0,0.0,-0.0303,-0.3023,-0.3926,-0.4326,0.0,0.0,0.0,0.0,0.0,0.0,0.0,0.0,0.0,0.0,0.0,0.0,0.0,0.0,0.0,0.0,0.0,0.0,0.0,0.0,0.0,0.0,0.0,0.0,0.0,0.0,0.0,0.0,0.0,1.2024,1.2024,1.2118,1.2118,1.2024,1.2131,1.1997,0.0,0.0,0.0,0.0,0.0,0.0,0.0,0.0,0.0,0.0,0.0,0.0,0.0,0.0,0.0,0.0,0.0,0.0,0.0,1.195,1.2966,1.3751,1.2422,1.2773,1.3199,1.1699,1.0595,0.9869,0.9692,0.896,0.8323,0.8035,0.7988,0.7988,0.7988,0.8282,0.8479,0.8479,0.8988,0.9571,1.01,0.9373,0.8236,0.6814,0.4424,0.2382,0.1032,0.0384,0.0,0.0,0.0,0.0,0.0,0.0,0.0,0.0,0.0,0.0,0.0,0.0,0.0,0.0,0.0,0.0,0.0,0.0,0.0,0.0,0.0,0.0,0.0,0.0,0.0,-0.0202,-0.2016,-0.272,-0.3021,-0.5733,-0.6734,-0.7136,0.0,0.0,0.0,0.0,0.0,0.0,0.0,0.0,0.0,0.0,0.0,0.0,0.0,0.0,0.0,0.0,0.0,0.0,0.0,0.0,0.0,0.0,0.0,0.0,0.0,0.0,0.0,0.0,0.0,0.0,0.0,0.0,1.2639,1.2639,1.2518,1.2409,0.0,0.0,0.0,0.0,0.0,0.0,0.0,0.0,0.0,0.0,0.0,0.0,0.0,0.0,0.0,0.0,0.0,0.0,0.0,0.0,1.0587,1.1806,1.0501,1.1314,1.2138,1.0741,0.9835,0.9207,0.9207,0.8574,0.7988,0.7988,0.7988,0.8008,0.8113,0.8323,0.852,0.8635,0.9062,0.9301,0.8955,0.8131,0.7064,0.5614,0.2812,0.1024,0.1033,0.0383,0.0,0.0,0.0,0.0,0.0,0.0,0.0,0.0,0.0,0.0,0.0,0.0,0.0,0.0,0.0,0.0,0.0,0.0,0.0,0.0,0.0,-0.0609,0.0,-0.1513,-0.2117,-0.3224,-0.4829,-0.5532,-0.5831,-0.8539,-0.954,-0.9949,0.0,0.0,0.0,0.0,0.0,0.0,0.0,0.0,0.0,0.0,0.0,0.0,0.0,0.0,0.0,0.0,0.0,0.0,0.0,0.0,0.0,0.0,0.0,0.0,0.0,0.0,0.0,1.2811,1.3066,1.3213,1.3213,0.0,0.0,1.32,1.2945,1.2811,0.0,0.0,0.0,0.0,0.0,0.0,0.0,0.0,0.0,0.0,0.0,0.0,0.0,0.0,0.0,0.0,0.0,0.0,0.0,0.0,0.0,0.0,0.0,0.968,1.0283,1.0154,0.9591,0.9132,0.9132,0.854,0.0,0.7988,0.7995,0.8099,0.8241,0.8404,0.8608,0.8838,0.9205,0.8964,0.7566,0.7332,0.672,0.5204,0.3523,0.2492,0.2519,0.0941,0.0,0.0,0.0,0.0,0.0,0.0,0.0,0.0,0.0,0.0,0.0,0.0,0.0,0.0,0.0,-0.0103,-0.0307,-0.0307,-0.0407,-0.0606,-0.0606,-0.2016,-0.4326,-0.4326,-0.5733,-0.8041,-0.8242,-0.8339,-0.8639,-1.1344,-1.2348,-1.2768,0.0,0.0,0.0,0.0,0.0,0.0,0.0,0.0,0.0,0.0,0.0,0.0,0.0,0.0,0.0,0.0,0.0,0.0,0.0,0.0,0.0,0.0,0.0,0.0,0.0,0.0,0.0,1.3106,1.3173,1.3213,1.3213,1.3213,0.0,0.0,0.0,0.0,0.0,0.0,0.0,0.0,0.0,0.0,0.0,0.0,0.0,0.0,0.9747,0.933,0.0,0.0,0.0,0.0,0.0,0.0,0.0,0.0,0.7834,0.0,0.8221,0.0,0.8555,0.8574,0.8431,0.8303,0.0,0.8116,0.7988,0.7988,0.8133,0.8228,0.8313,0.8581,0.8852,0.8871,0.9374,0.9175,0.7584,0.5343,0.325,0.1476,0.0928,0.0653,0.0664,0.0286,0.0,0.0,0.0,0.0,0.0,0.0,0.0,0.0,0.0,0.0,0.0,0.0,0.0,0.0,0.0,-0.1123,-0.3032,-0.3032,-0.4136,-0.6135,-0.6135,-0.6436,-0.7035,-0.7035,-0.7437,-0.8238,-1.0345,-1.1144,-1.1444,-1.4165,-1.5174,-1.5585,0.0,0.0,0.0,0.0,0.0,0.0,0.0,0.0,0.0,0.0,0.0,0.0,0.0,0.0,0.0,0.0,0.0,0.0,0.0,0.0,0.0,0.0,0.0,0.0,0.0,0.0,0.0,0.0,0.0,1.4015,0.0,0.0,0.0,0.0,0.0,0.0,0.0,0.0,0.0,0.0,0.0,0.0,0.0,0.0,0.0,0.0,0.825,0.7967,0.0,0.8572,0.8514,0.8076,0.0,0.0,0.0,0.0,0.776,0.0,0.0,0.7988,0.7988,0.7988,0.7988,0.7988,0.7988,0.8092,0.8147,0.8147,0.8262,0.8411,0.8554,0.8167,0.8121,0.9127,0.829,0.6951,0.536,0.3056,0.113,0.0092,0.0,0.0,0.0,0.0,0.0,0.0,0.0,0.0,0.0,0.0,0.0,0.0,0.0,0.0,0.0,0.0,-0.061,-0.1828,-0.1828,-0.3239,-0.5831,-0.5831,-0.6634,-0.8041,-0.8041,-0.8739,-0.9845,-0.9845,-1.0645,-1.1853,-1.3356,-1.396,-1.4259,-1.6942,-1.7939,-1.8267,0.0,0.0,0.0,0.0,0.0,0.0,0.0,0.0,0.0,0.0,0.0,0.0,0.0,0.0,0.0,0.0,0.0,0.0,0.0,0.0,0.0,0.0,0.0,0.0,0.0,0.0,0.0,0.0,0.0,0.0,0.0,0.0,1.4563,0.0,0.0,0.0,0.0,0.0,0.0,0.0,0.0,0.0,0.0,0.0,0.0,0.0,0.0,0.0,0.0,0.6871,0.6964,0.7065,0.7092,0.0,0.0,0.0,0.0,0.0,0.7941,0.7868,0.7725,0.7965,0.7988,0.7995,0.8022,0.8174,0.8327,0.8347,0.8438,0.8575,0.8556,0.7488,0.7096,0.8763,0.6428,0.3925,0.2722,0.108,0.0,0.0,0.0,0.0,0.0,0.0,0.0,0.0,0.0,0.0,0.0,0.0,-0.0198,-0.0598,-0.0599,-0.0798,-0.1196,-0.0804,-0.1915,-0.4628,-0.4628,-0.6032,-0.8639,-0.8639,-0.884,-0.9244,-0.9244,-1.0545,-1.2752,-1.2752,-1.4059,-1.6182,-1.6573,-1.6665,-1.7055,-1.9593,-2.0559,-2.1005,0.0,0.0,0.0,0.0,0.0,0.0,0.0,0.0,0.0,0.0,0.0,0.0,0.0,0.0,0.0,0.0,0.0,0.0,0.0,0.0,0.0,0.0,0.0,0.0,0.0,0.0,0.0,0.0,0.0,0.0,1.5008,1.4955,1.4763,0.0,0.0,0.0,0.0,0.0,0.0,0.0,0.7778,0.0,0.0,0.0,0.0,0.0,0.0,0.0,0.0,0.6831,0.6903,0.6937,0.7058,0.0,0.0,0.0,0.0,0.0,0.7914,0.717,0.6563,0.7737,0.7988,0.8022,0.8208,0.8255,0.8354,0.8425,0.8676,0.8439,0.7138,0.6953,0.6682,0.5639,0.3961,0.2803,0.2668,0.117,0.0,0.0,0.0,0.0,0.0,0.0,0.0,0.0,0.0,0.0,0.0,0.0,-0.0997,-0.3315,-0.3415,-0.4518,-0.6723,-0.4525,-0.4728,-0.7339,-0.7339,-0.884,-1.1444,-1.1444,-1.2752,-1.4869,-1.4869,-1.5074,-1.5472,-1.5472,-1.5778,-1.6275,-1.8517,-1.9396,-1.9683,-2.2312,-2.3286,-2.3746,0.0,0.0,0.0,0.0,0.0,0.0,0.0,0.0,0.0,0.0,0.0,0.0,0.0,0.0,0.0,0.0,0.0,0.0,0.0,0.0,0.0,0.0,0.0,0.0,0.0,0.0,0.0,0.0,0.0,1.4431,1.4384,1.353,1.329,1.3511,0.0,0.0,0.0,0.0,0.0,0.0,0.0,0.0,0.0,0.0,0.0,0.0,0.0,0.0,0.0,0.0,0.679,0.6896,0.6964,0.0,0.0,0.0,0.0,0.0,0.7907,0.7044,0.6168,0.6764,0.6402,0.5864,0.5966,0.6034,0.6081,0.6165,0.6336,0.631,0.5676,0.4925,0.3977,0.2445,0.2425,0.2311,0.1412,0.053,-0.0535,-0.1849,-0.2026,-0.2595,-0.4009,-0.4099,-0.4099,-0.4217,-0.4254,-0.4294,-0.4337,-0.4279,-0.4908,-0.6132,-0.6132,-0.7437,-1.0145,-0.904,-0.904,-1.0245,-1.0245,-1.1649,-1.4265,-1.4265,-1.4968,-1.6083,-1.6083,-1.6083,-1.6182,-1.7642,-1.8228,-1.8426,-2.1049,-2.2126,-2.2409,-2.5045,-2.7994,-3.0857,0.0,0.0,0.0,0.0,0.0,0.0,0.0,0.0,0.0,0.0,0.0,0.0,0.0,0.0,0.0,0.0,0.0,0.0,0.0,0.0,0.0,0.0,0.0,0.0,0.0,0.0,1.4305,1.4587,1.3826,1.344,1.3392,1.2188,1.191,0.0,0.0,0.0,0.0,0.0,0.0,0.0,0.0,0.0,0.0,0.0,0.0,0.0,0.0,0.0,0.0,0.0,0.0,0.0,0.0,0.0,0.0,0.7131,0.7362,0.7523,0.7162,0.6297,0.543,0.5119,0.4536,0.3975,0.4023,0.4114,0.4192,0.4262,0.4397,0.4487,0.414,0.2262,0.0438,-0.0671,-0.0168,-0.0169,-0.1622,-0.1753,-0.2512,-0.4426,-0.4719,-0.5419,-0.7383,-0.7609,-0.7647,-0.78,-0.779,-0.7864,-0.8021,-0.8001,-0.8339,-0.894,-0.8943,-1.0245,-1.3051,-1.3051,-1.3051,-1.3051,-1.3051,-1.4059,-1.6083,-1.6083,-1.6083,-1.6083,-1.6765,-1.7055,-1.7253,-1.988,-2.0951,-2.1147,-2.3783,-2.5507,-2.6845,-2.8799,-3.2872,-3.7249,0.0,0.0,0.0,0.0,0.0,0.0,0.0,0.0,0.0,0.0,0.0,0.0,0.0,0.0,0.0,0.0,0.0,0.0,0.0,0.0,0.0,0.0,0.0,0.0,0.0,1.2086,1.1776,1.2162,1.2086,1.2047,1.2047,1.193,1.1735,1.1344,0.0,0.0,0.0,0.0,0.0,0.0,0.0,0.0,0.0,0.0,0.0,0.0,0.0,0.0,0.0,0.0,0.0,0.0,0.0,0.0,0.693,0.5996,0.6643,0.7136,0.4868,0.4216,0.3838,0.2579,0.317,0.4058,0.415,0.4176,0.4223,0.4458,0.4624,0.418,0.2685,-0.0774,-0.3419,-0.3544,-0.5298,-0.6784,-0.7032,-0.6917,-0.6988,-0.7269,-0.7373,-0.7383,-0.7592,-0.7752,-0.7797,-0.7804,-0.7935,-0.8021,-0.8025,-0.8001,-0.9144,-1.1749,-1.1848,-1.3051,-1.5778,-1.5778,-1.5778,-1.5778,-1.5778,-1.5877,-1.6083,-1.6083,-1.6083,-1.6275,-1.8714,-1.9683,-1.988,-2.2516,-2.3578,-2.388,-2.6505,-3.0419,-3.447,-3.4671,-3.6931,-3.9879,0.0,0.0,0.0,0.0,0.0,0.0,0.0,0.0,0.0,0.0,0.0,0.0,0.0,0.0,0.0,0.0,0.0,0.0,0.0,0.0,0.0,0.0,0.0,0.8802,1.0656,1.1099,1.1505,1.1901,1.1121,1.073,1.0681,0.9846,0.0,0.0,0.0,0.0,0.0,0.0,0.0,0.0,0.0,0.0,0.0,0.0,0.0,0.0,0.0,0.0,0.0,0.0,0.6505,0.6709,0.677,0.643,0.5986,0.567,0.5407,0.507,0.4224,0.3371,0.2655,0.2107,0.1728,0.1537,0.1583,0.1561,0.1579,0.1723,0.0479,-0.0795,-0.1445,-0.4033,-0.5636,-0.4085,-0.5873,-0.7507,-0.7633,-0.7599,-0.8145,-0.975,-1.0,-1.0654,-1.2248,-1.2488,-1.2576,-1.2823,-1.2923,-1.2908,-1.2985,-1.3035,-1.3561,-1.4564,-1.4564,-1.5068,-1.6083,-1.6083,-1.6083,-1.6083,-1.6083,-1.6083,-1.6083,-1.6083,-1.6963,-1.8616,-1.9585,-2.0951,-2.2614,-2.5238,-2.6312,-2.6698,-3.0881,-3.4549,-3.762,-3.762,-4.0413,-4.4212,0.0,0.0,0.0,0.0,0.0,0.0,0.0,0.0,0.0,0.0,0.0,0.0,0.0,0.0,0.0,0.0,0.0,0.0,0.0,0.0,0.0,0.0,0.0,0.7339,0.8652,0.9641,1.033,1.0681,0.9805,0.9361,0.9361,0.0,0.0,0.0,0.0,0.0,0.0,0.0,0.0,0.0,0.0,0.0,0.0,0.0,0.0,0.0,0.0,0.0,0.0,0.0,0.6463,0.6593,0.6226,0.5752,0.5176,0.4585,0.4127,0.3639,0.2934,0.2356,0.1728,0.0604,-0.0438,-0.1328,-0.2054,-0.1736,-0.145,-0.2196,-0.3144,-0.404,-0.4769,-0.6391,-0.7293,-0.6307,-0.8319,-0.9951,-0.9954,-0.9978,-1.0616,-1.2438,-1.2606,-1.3382,-1.5207,-1.5493,-1.5635,-1.5839,-1.59,-1.5967,-1.6076,-1.6083,-1.6083,-1.6083,-1.6083,-1.6083,-1.6083,-1.6963,-1.7353,-1.7353,-1.8137,-1.8137,-1.7353,-1.7353,-1.8714,-2.1245,-2.2191,-2.359,-2.555,-2.9102,-3.0964,-3.2083,-3.5499,-3.883,-4.1594,-4.1489,-4.4679,-4.9138,0.0,0.0,0.0,0.0,0.0,0.0,0.0,0.0,0.0,0.0,0.0,0.0,0.0,0.0,0.0,0.0,0.0,0.0,0.0,0.0,0.0,0.0,0.0,0.6912,0.7405,0.7522,0.7746,0.7988,0.7988,0.7988,0.7988,0.7988,0.0,0.0,0.0,0.0,0.0,0.0,0.0,0.0,0.0,0.0,0.0,0.0,0.0,0.0,0.0,0.0,0.0,0.0,0.6356,0.6297,0.524,0.4972,0.4642,0.2429,0.2709,0.3209,0.0699,0.0934,0.1087,-0.2417,-0.3464,-0.4245,-0.6609,-0.5393,-0.4471,-0.6918,-0.5496,-0.4595,-0.7011,-0.7599,-0.8419,-1.0837,-1.3303,-1.5025,-1.5167,-1.5065,-1.5025,-1.5167,-1.5316,-1.5411,-1.5411,-1.5683,-1.5852,-1.5852,-1.5995,-1.6083,-1.6083,-1.6083,-1.6083,-1.6083,-1.6083,-1.6083,-1.6182,-1.8714,-1.9978,-2.0077,-2.2711,-2.2516,-2.0077,-2.0077,-2.1441,-2.4085,-2.6958,-2.8253,-2.8666,-3.4137,-3.7993,-4.0347,-4.0347,-4.3301,-4.7435,-4.6846,-4.9981,-5.4485,0.0,0.0,0.0,0.0,0.0,0.0,0.0,0.0,0.0,0.0,0.0,0.0,0.0,0.0,0.0,0.0,0.0,0.0,0.0,0.0,0.0,0.0,0.0,0.0,0.0,0.0,0.7841,0.7988,0.7988,0.7988,0.0,0.0,0.0,0.7597,0.0,0.0,0.0,0.0,0.0,0.0,0.0,0.0,0.0,0.0,0.0,0.0,0.0,0.0,0.0,0.0,0.0,0.0,0.4159,0.3359,0.2631,0.2009,0.1475,0.0963,0.0203,-0.0921,-0.2168,-0.3223,-0.4814,-0.6744,-0.9169,-0.6567,-0.4428,-0.7016,-0.842,-0.9321,-1.0039,-1.182,-1.269,-1.1666,-1.3584,-1.5337,-1.5486,-1.5282,-1.5215,-1.5472,-1.5452,-1.5493,-1.5703,-1.5805,-1.59,-1.6008,-1.6056,-1.6083,-1.6083,-1.6083,-1.6083,-1.6083,-1.6083,-1.6963,-1.8813,-1.9585,-2.0951,-2.2702,-2.3491,-2.3481,-2.2711,-2.2711,-2.4253,-2.7055,-2.9791,-3.2051,-3.4233,-3.7741,-4.1567,-4.5269,-4.5269,-4.8205,-5.2476,-5.2325,-5.507,-5.9033,0.0,0.0,0.0,0.0,0.0,0.0,0.0,0.0,0.0,0.0,0.0,0.0,0.0,0.0,0.0,0.0,0.0,0.0,0.0,0.0,0.0,0.0,0.0,0.0,0.0,0.7516,0.7712,0.0,0.0,0.0,0.0,0.0,0.0,0.759,0.0,0.7285,0.0,0.0,0.0,0.0,0.0,0.0,0.0,0.0,0.0,0.0,0.0,0.0,0.0,0.0,0.0,0.0,0.2985,0.2241,0.1519,0.0559,-0.0238,-0.0973,-0.1917,-0.3238,-0.4703,-0.5967,-0.7435,-0.8938,-1.0501,-0.9431,-0.861,-1.0193,-1.1028,-1.1647,-1.2609,-1.3369,-1.3731,-1.323,-1.4403,-1.5513,-1.5547,-1.5391,-1.5343,-1.5527,-1.552,-1.5594,-1.5832,-1.5906,-1.5981,-1.6076,-1.6083,-1.6083,-1.6083,-1.7055,-1.7642,-1.7642,-1.8623,-1.9987,-2.1539,-2.2614,-2.388,-2.5432,-2.6505,-2.7541,-2.8368,-2.6387,-2.7585,-3.1421,-3.4269,-3.7138,-4.0005,-4.2481,-4.5865,-4.9518,-5.0387,-5.3644,-5.7668,-5.7456,-6.0082,-6.3747,0.0,0.0,0.0,0.0,0.0,0.0,0.0,0.0,0.0,0.0,0.0,0.0,0.0,0.0,0.0,0.0,0.0,0.0,0.0,0.0,0.0,0.0,0.0,0.0,0.0,0.0,0.0,0.0,0.0,0.0,0.0,0.0,0.7699,0.757,0.0,0.7272,0.0,0.0,0.0,0.0,0.0,0.0,0.0,0.0,0.0,0.0,0.0,0.0,0.0,0.0,0.0,0.0,0.1771,0.1464,0.1024,-0.1159,-0.1963,-0.2593,-0.4658,-0.5589,-0.6714,-0.962,-1.0651,-1.1137,-1.122,-1.3186,-1.4991,-1.4706,-1.3122,-1.2417,-1.4659,-1.3335,-1.2735,-1.5063,-1.5567,-1.5615,-1.5493,-1.5459,-1.5459,-1.5472,-1.5594,-1.573,-1.5859,-1.6192,-1.6474,-1.6474,-1.6665,-1.6765,-1.6765,-1.9101,-2.0363,-2.0363,-2.2711,-2.3977,-2.4269,-2.6602,-2.7876,-2.8164,-3.0782,-3.3243,-3.5182,-3.0648,-3.1567,-3.6975,-4.0047,-4.2992,-4.5906,-4.8187,-5.083,-5.3572,-5.566,-5.914,-6.2966,-6.2353,-6.4788,-6.8318,0.0,0.0,0.0,0.0,0.0,0.0,0.0,0.0,0.0,0.0,0.0,0.0,0.0,0.0,0.0,0.0,0.0,0.0,0.0,0.0,0.0,0.0,0.0,0.0,0.0,0.0,0.0,0.0,0.0,0.0,0.0,0.0,0.0,0.7414,0.0,0.7125,0.0,0.0,0.0,0.0,0.0,0.0,0.0,0.0,0.0,0.0,0.0,0.0,0.0,0.0,0.0,0.0,0.069,0.0332,0.0256,-0.0274,-0.1655,-0.3131,-0.364,-0.656,-0.9628,-1.0319,-1.2148,-1.3879,-1.3854,-1.4567,-1.4571,-1.2582,-1.3447,-1.4679,-1.5228,-1.5169,-1.5165,-1.566,-1.5784,-1.5839,-1.5927,-1.5832,-1.5805,-1.592,-1.5967,-1.6001,-1.6029,-1.7917,-1.9199,-1.9199,-2.1049,-2.2223,-2.2223,-2.2809,-2.3101,-2.3101,-2.3588,-2.4851,-2.6902,-2.7492,-2.8847,-3.089,-3.3389,-3.5005,-3.5806,-3.4755,-3.7303,-4.293,-4.5612,-4.8293,-5.0973,-5.3351,-5.6627,-6.0296,-6.0817,-6.3684,-6.749,-6.7354,-6.891,-7.1152,0.0,0.0,0.0,0.0,0.0,0.0,0.0,0.0,0.0,0.0,0.0,0.0,0.0,0.0,0.0,0.0,0.0,0.0,0.0,0.0,0.0,0.0,0.0,0.0,0.0,0.0,0.0,0.0,0.0,0.0,0.0,0.0,0.0,0.7412,0.0,0.7098,0.0,0.0,0.0,0.0,0.0,0.0,0.0,0.0,0.0,0.0,0.0,0.0,0.0,0.0,0.0,0.0,0.0,0.0,-0.0128,-0.0771,-0.1762,-0.3163,-0.533,-0.782,-1.03,-1.1885,-1.3497,-1.474,-1.474,-1.497,-1.4805,-1.3475,-1.4349,-1.5411,-1.5411,-1.5655,-1.5879,-1.5947,-1.5961,-1.6454,-1.7727,-1.784,-1.8329,-1.9765,-1.9804,-1.9821,-2.0006,-2.1103,-2.1832,-2.1832,-2.3101,-2.388,-2.388,-2.5045,-2.5733,-2.5733,-2.6987,-2.826,-2.9625,-3.0812,-3.2043,-3.3511,-3.6126,-3.8917,-4.1775,-4.0654,-4.2348,-4.6439,-4.9148,-5.1812,-5.4301,-5.7639,-6.0345,-6.2613,-6.4716,-6.7512,-7.0391,-7.0836,-7.221,-7.4069,0.0,0.0,0.0,0.0,0.0,0.0,0.0,0.0,0.0,0.0,0.0,0.0,0.0,0.0,0.0,0.0,0.0,0.0,0.0,0.0,0.0,0.0,0.0,0.0,0.0,0.0,0.0,0.0,0.0,0.0,0.0,0.0,0.0,0.7326,0.0,0.0,0.0,0.0,0.0,0.0,0.0,0.0,0.0,0.0,0.0,0.0,0.0,0.0,0.0,0.0,0.0,0.0,0.0,0.0,-0.0213,-0.135,-0.1939,-0.3032,-0.6731,-0.859,-1.0234,-1.3495,-1.4523,-1.4713,-1.4767,-1.497,-1.5153,-1.5174,-1.5323,-1.5452,-1.5452,-1.5689,-1.5934,-1.6062,-1.6474,-1.7499,-1.9589,-2.0296,-2.1448,-2.3813,-2.4023,-2.3977,-2.4272,-2.4531,-2.4601,-2.456,-2.4948,-2.5238,-2.5238,-2.7287,-2.8464,-2.8464,-3.0592,-3.1853,-3.2313,-3.4327,-3.5509,-3.5974,-3.9373,-4.3633,-4.8632,-4.7247,-4.7631,-4.9651,-5.2762,-5.5179,-5.7343,-6.1719,-6.3738,-6.4427,-6.8023,-7.0728,-7.2701,-7.3439,-7.4951,-7.6744,0.0,0.0,0.0,0.0,0.0,0.0,0.0,0.0,0.0,0.0,0.0,0.0,0.0,0.0,0.0,0.0,0.0,0.0,0.0,0.0,0.0,0.0,0.0,0.0,0.0,0.0,0.0,0.0,0.0,0.0,0.0,0.0,0.0,0.7125,0.0,0.0,0.0,0.0,0.0,0.0,0.0,0.0,0.0,0.0,0.0,0.0,0.0,0.0,0.0202,0.0202,0.012,0.0,0.0,0.0,-0.0042,-0.0218,-0.1618,-0.3266,-0.3876,-0.7089,-1.1004,-1.3766,-1.4516,-1.4611,-1.4882,-1.497,-1.5031,-1.516,-1.5411,-1.5608,-1.5608,-1.5852,-1.6056,-1.6076,-1.8031,-1.9577,-1.9945,-2.219,-2.3948,-2.4282,-2.4576,-2.4668,-2.4333,-2.6353,-2.7518,-2.7311,-2.9421,-3.0687,-3.0687,-3.0985,-3.1189,-3.1189,-3.1474,-3.2677,-3.4779,-3.5152,-3.6421,-3.8536,-4.3831,-4.8087,-5.1298,-5.3447,-5.4588,-5.5113,-5.9296,-6.1203,-6.1883,-6.6204,-6.9029,-7.0655,-7.125,-7.3211,-7.5617,-7.5784,-7.6838,-7.8407,0.0,0.0,0.0,0.0,0.0,0.0,0.0,0.0,0.0,0.0,0.0,0.0,0.0,0.0,0.0,0.0,0.0,0.0,0.0,0.0,0.0,0.0,0.0,0.0,0.0,0.0,0.0,0.0,0.0,0.0,0.0,0.6831,0.6896,0.0,0.0,0.0,0.0,0.0,0.0,0.0,0.0,0.0,0.0,0.0,0.0,0.0,0.0,0.0918,0.0,0.0,0.0,0.0,0.0,0.0,0.0,0.0,-0.0667,-0.2015,-0.459,-0.7837,-1.1122,-1.372,-1.4455,-1.459,-1.4903,-1.497,-1.5468,-1.6994,-1.7412,-1.7612,-1.78,-1.9076,-2.0251,-2.0452,-2.1441,-2.2711,-2.4172,-2.5517,-2.6996,-2.8736,-2.8941,-2.9013,-2.9171,-3.0045,-3.0539,-3.026,-3.1221,-3.1837,-3.1677,-3.2947,-3.3685,-3.3685,-3.5059,-3.6344,-3.7344,-3.8991,-4.1912,-4.6146,-4.8662,-5.2539,-5.7729,-5.8997,-5.9536,-5.9619,-6.1556,-6.3764,-6.6332,-7.0339,-7.2478,-7.3388,-7.5037,-7.6455,-7.7616,-7.8147,-7.9184,-8.0598,0.0,0.0,0.0,0.0,0.0,0.0,0.0,0.0,0.0,0.0,0.0,0.0,0.0,0.0,0.0,0.0,0.0,0.0,0.0,0.0,0.0,0.0,0.0,0.0,0.0,0.0,0.0,0.0,0.0,0.0,0.6586,0.6586,0.6668,0.0,0.6849,0.6943,0.0,0.0,0.0,0.0,0.0,0.0,0.0,0.0,0.0,0.0,0.0,0.0693,0.0,0.0,0.0,0.0,0.0,0.0,0.0,0.0,0.0,-0.0906,-0.4942,-0.7654,-0.9919,-1.2739,-1.3774,-1.4258,-1.4787,-1.5398,-1.6457,-1.8408,-1.9962,-2.1002,-2.1301,-2.2498,-2.3501,-2.3769,-2.4421,-2.5529,-2.7492,-2.8416,-2.9779,-3.2177,-3.2305,-3.2676,-3.378,-3.3155,-3.3021,-3.4092,-3.3613,-3.342,-3.3847,-3.5578,-3.659,-3.659,-3.8337,-3.9624,-4.0265,-4.3632,-4.7483,-5.1761,-5.3409,-5.7144,-6.2451,-6.3498,-6.4559,-6.5446,-6.5446,-6.7246,-7.0525,-7.4194,-7.5582,-7.5632,-7.7743,-7.8941,-7.9527,-8.02,-8.1466,-8.2992,0.0,0.0,0.0,0.0,0.0,0.0,0.0,0.0,0.0,0.0,0.0,0.0,0.0,0.0,0.0,0.0,0.0,0.0,0.0,0.0,0.0,0.0,0.0,0.0,0.0,0.0,0.0,0.0,0.0,0.0,0.632,0.632,0.6402,0.6552,0.6797,0.6889,0.6903,0.0,0.0,0.0,0.0,0.0,0.0,0.0,0.1109,0.011,0.0099,0.0047,0.0,0.0,0.0,0.0,0.0,0.0,0.0,0.0,0.0,0.0,-0.3082,-0.48,-0.6677,-1.0203,-1.213,-1.3342,-1.4489,-1.6674,-1.8417,-1.8609,-2.2414,-2.5959,-2.6214,-2.467,-2.3451,-2.3461,-2.5773,-2.7684,-2.778,-3.0139,-3.1899,-3.2118,-3.2358,-3.3574,-3.5957,-3.4059,-3.461,-3.947,-3.7598,-3.7203,-3.9719,-4.0,-4.0,-4.0,-4.0187,-4.1322,-4.3648,-4.8344,-5.1015,-5.1761,-5.8177,-6.1577,-6.2532,-6.6695,-7.0396,-7.3655,-7.3655,-7.3822,-7.433,-7.7966,-7.9051,-7.8413,-7.8563,-7.9822,-8.1626,-8.1729,-8.3383,-8.5711,0.0,0.0,0.0,0.0,0.0,0.0,0.0,0.0,0.0,0.0,0.0,0.0,0.0,0.63,0.63,0.63,0.0,0.0,0.0,0.0,0.0,0.0,0.0,0.0,0.0,0.0,0.0,0.0,0.0,0.6166,0.63,0.63,0.6327,0.6388,0.6647,0.6408,0.576,0.5928,0.0,0.4192,0.3384,0.2566,0.0,0.0916,0.0363,0.0,0.0,0.0,0.0,0.0,0.0,0.0,0.0,0.0,0.0,0.0,0.0,-0.0677,-0.3901,-0.5199,-0.6526,-1.0298,-1.1996,-1.3419,-1.5856,-1.7329,-1.9239,-2.2707,-2.4755,-2.6516,-2.8448,-2.824,-2.8043,-2.8372,-2.9287,-3.0101,-3.028,-3.1172,-3.2545,-3.4316,-3.4622,-3.5705,-3.8356,-3.7819,-3.8009,-3.9643,-3.9091,-3.9108,-3.9812,-4.1608,-4.2579,-4.2579,-4.5653,-4.8533,-5.1099,-5.2909,-5.5347,-5.8569,-6.0964,-6.4351,-6.8592,-7.1209,-7.3774,-7.6353,-7.847,-7.8781,-7.7967,-7.9828,-8.1213,-8.2068,-8.2153,-8.3426,-8.5112,-8.4612,-8.5561,-8.6988,0.0,0.0,0.0,0.0,0.0,0.0,0.0,0.0,0.0,0.0,0.0,0.0,0.0,0.0,0.6354,0.6306,0.63,0.0,0.0,0.0,0.0,0.0,0.0,0.0,0.0,0.0,0.0,0.0,0.0,0.0,0.0,0.6272,0.6099,0.5763,0.599,0.5697,0.0,0.4847,0.4093,0.2948,0.2146,0.1585,0.1097,0.0306,0.0,-0.007,-0.0846,-0.1143,-0.1267,-0.1999,-0.2261,-0.216,-0.1408,-0.0619,-0.0091,-0.0502,-0.0598,-0.1231,-0.41,-0.5243,-0.6412,-0.9346,-1.0958,-1.276,-1.6123,-1.7971,-2.0279,-2.4854,-2.6551,-2.7735,-2.9472,-3.0007,-3.0368,-3.0862,-3.1022,-3.1422,-3.244,-3.2644,-3.3693,-3.6297,-3.6792,-3.8004,-4.0781,-4.0257,-4.0393,-4.2027,-4.1608,-4.203,-4.3614,-4.5437,-4.6934,-4.7864,-5.1027,-5.3885,-5.6427,-5.719,-5.9519,-6.3396,-6.4848,-6.8031,-7.2806,-7.4518,-7.665,-7.9063,-8.1239,-8.1845,-8.1302,-8.2433,-8.3749,-8.5042,-8.512,-8.6053,-8.7237,-8.6702,-8.7213,-8.8144,0.0,0.0,0.0,0.0,0.0,0.0,0.0,0.0,0.0,0.6518,0.0,0.0,0.0,0.0,0.0,0.632,0.6306,0.63,0.6293,0.0,0.0,0.0,0.0,0.0,0.0,0.0,0.0,0.0,0.0,0.0,0.0,0.0,0.5705,0.4696,0.4803,0.4819,0.4755,0.3901,0.2859,0.1753,0.1754,0.0987,-0.0066,-0.0067,-0.0136,-0.0478,-0.2708,-0.3525,-0.3846,-0.5949,-0.6758,-0.6406,-0.4059,-0.1848,-0.0276,-0.1487,-0.1862,-0.213,0.0,0.0,0.0,-0.7289,-0.8878,-1.1135,-1.5244,-1.8618,-2.1728,-2.4539,-2.7599,-2.9753,-2.9526,-2.9802,-3.0097,-3.0378,-3.0673,-3.1675,-3.3899,-3.4621,-3.5821,-3.8162,-3.8836,-4.0203,-4.3054,-4.1069,-4.1866,-4.7211,-4.5274,-4.6204,-5.1522,-5.174,-5.3099,-5.603,-5.603,-5.7017,-5.9177,-6.1375,-6.3556,-6.573,-6.9956,-7.2847,-7.4534,-7.6515,-7.9187,-8.2222,-8.2312,-8.3043,-8.4227,-8.5746,-8.6662,-8.7179,-8.7143,-8.7413,-8.7778,-8.7742,-8.8432,-8.933,0.0,0.0,0.0,0.0,0.0,0.0,0.0,0.0,0.6552,0.0,0.0,0.0,0.6641,0.6634,0.658,0.6463,0.6457,0.6361,0.6105,0.6017,0.5874,0.5657,0.5569,0.5508,0.0,0.0,0.0,0.0,0.0,0.0,0.0,0.0,0.0,0.0,0.3936,0.3183,0.2524,0.2381,0.1583,0.0484,0.0487,-0.0663,-0.2418,-0.2362,-0.3414,-0.4965,-0.5538,-0.5817,-0.5848,-0.6509,-0.5693,-0.4112,-0.2808,-0.1879,-0.1569,-0.2884,-0.3177,-0.3403,-0.484,0.0,0.0,0.0,0.0,0.0,-1.5137,-1.7145,-1.9702,-2.515,-2.6912,-2.7802,-2.9219,-3.1105,-3.2382,-3.2237,-3.2687,-3.3288,-3.405,-3.5766,-3.7801,-4.0298,-4.0896,-4.2172,-4.4736,-4.4649,-4.5722,-4.881,-4.8641,-4.9783,-5.2879,-5.3708,-5.6109,-6.0486,-6.0569,-6.2345,-6.6073,-6.6745,-6.8658,-7.1834,-7.3062,-7.5268,-7.8376,-8.0042,-8.1508,-8.2718,-8.4504,-8.6123,-8.7373,-8.6136,-8.6998,-8.9085,-8.7977,-8.8793,-9.0449,-8.93,-8.9343,-8.9929,0.0,0.0,0.0,0.0,0.0,0.0,0.0,0.0,0.0,0.0,0.0,0.0,0.6803,0.6742,0.6668,0.6573,0.6566,0.6464,0.6227,0.6159,0.6017,0.5786,0.5657,0.5549,0.5494,0.0,0.0,0.0,0.0,0.0,0.0,0.0,0.0,0.0,0.0,0.0,0.0,0.1003,0.066,-0.0098,-0.1043,-0.2207,-0.355,-0.4433,-0.5651,-0.7011,-0.7937,-0.8319,-0.8493,-0.9376,-0.7907,-0.5628,-0.5165,-0.3959,-0.2969,-0.4212,-0.4476,-0.4727,-0.6097,-0.6502,-0.6804,-0.7849,0.0,0.0,-1.6002,-1.7861,-2.0292,-2.6303,-2.7629,-2.8016,-2.9098,-3.1535,-3.332,-3.3126,-3.5184,-3.6778,-3.6739,-3.8117,-3.9896,-4.237,-4.3,-4.4195,-4.6441,-4.7098,-4.8346,-5.0477,-5.1076,-5.2724,-5.608,-5.8055,-6.0855,-6.4587,-6.4927,-6.6719,-7.0153,-7.0845,-7.266,-7.5565,-7.6261,-7.8093,-8.0826,-8.1939,-8.3127,-8.4404,-8.595,-8.7657,-8.9163,-8.7461,-8.8121,-9.0211,-8.9605,-8.991,-9.0603,-8.9959,-8.9916,-9.0169,0.0,0.0,0.0,0.0,0.0,0.0,0.0,0.0,0.0,0.0,0.7058,0.7098,0.697,0.6885,0.6797,0.6776,0.6756,0.6681,0.6532,0.6416,0.6252,0.6027,0.5786,0.5623,0.5589,0.5486,0.0,0.0,0.0,0.0,0.0,0.0,0.4671,0.2924,0.0,0.0,0.0,0.0,-0.0144,-0.0548,-0.2612,-0.3656,-0.4218,-0.6484,-0.7574,-0.8117,-1.0177,-1.1169,-1.1755,-1.3643,-1.2296,-0.9805,-0.9484,-0.752,-0.5318,-0.5717,-0.6073,-0.6485,-0.7257,-0.7516,-0.7706,-0.7994,-0.9114,0.0,-1.685,-1.9041,-2.1455,-2.6532,-2.807,-2.8516,-2.8534,-3.0923,-3.2961,-3.3132,-3.7437,-4.0602,-4.0415,-4.0947,-4.2225,-4.4459,-4.5123,-4.6205,-4.8231,-4.9047,-5.0321,-5.2434,-5.3515,-5.606,-6.0528,-6.3672,-6.6303,-6.8364,-6.9189,-7.0577,-7.2586,-7.4266,-7.5958,-7.7837,-7.9247,-8.0841,-8.2542,-8.2932,-8.4334,-8.6586,-8.7095,-8.8306,-8.9878,-8.9347,-8.9745,-9.0769,-9.1218,-9.0628,-8.9593,-9.0083,-9.0252,-9.0241,0.0,0.0,0.0,0.0,0.0,0.0,0.0,0.0,0.0,0.7251,0.7414,0.7502,0.7475,0.7441,0.7373,0.7251,0.7129,0.695,0.6851,0.658,0.6409,0.6259,0.6044,0.5833,0.5596,0.485,0.4404,0.4284,0.3616,0.3372,0.3482,0.3503,0.2928,0.1906,0.0,0.0,0.0,0.0,-0.1012,-0.2692,-0.3301,-0.464,-0.6537,-0.8927,-1.1001,-1.2765,-1.3258,-1.48,-1.6617,-1.6994,-1.6527,-1.5171,-1.1799,-1.1866,-1.238,-0.8527,-0.9037,-1.0448,-0.832,-0.7746,-0.8042,-0.9266,-0.9805,0.0,-1.4361,-1.5352,-1.6667,-2.0711,-2.179,-2.2781,-2.5271,-2.8033,-3.0435,-3.167,-3.6146,-3.9845,-4.0657,-4.2772,-4.4876,-4.666,-4.7651,-4.89,-5.0601,-5.1596,-5.3033,-5.5249,-5.9064,-6.2809,-6.6264,-6.7039,-6.879,-7.1821,-7.332,-7.506,-7.7038,-7.8779,-8.0128,-8.1239,-8.0942,-8.2188,-8.4639,-8.4766,-8.5776,-8.7443,-8.8798,-8.9455,-8.9606,-9.0679,-9.1268,-9.1358,-9.0211,-9.0259,-9.0932,-9.035,-9.0499,-9.1105,0.0,0.0,0.0,0.0,0.0,0.0,0.0,0.0,0.0,0.7398,0.7502,0.7597,0.7597,0.7597,0.757,0.7495,0.7414,0.7305,0.7156,0.6932,0.6485,0.5729,0.5989,0.5544,0.4294,0.4202,0.3914,0.3347,0.2898,0.2771,0.2885,0.2887,0.2124,0.0743,0.1314,0.0688,-0.0854,-0.0234,-0.0627,-0.186,-0.4289,-0.6609,-0.8991,-1.1444,-1.3961,-1.613,-1.6214,-1.7878,-2.0053,-2.0079,-1.8452,-1.6333,-1.5797,-1.5035,-1.4052,-1.1919,-1.2348,-1.295,-1.0338,-0.9686,-0.9923,-1.0644,-1.1376,0.0,0.0,-1.6213,-1.7469,-2.0491,-2.1724,-2.2736,-2.4318,-2.7474,-3.0169,-3.0941,-3.6521,-4.0332,-3.9181,-4.328,-4.67,-4.7499,-4.9192,-5.0984,-5.2842,-5.3726,-5.562,-5.905,-6.2712,-6.5893,-6.8412,-6.9963,-7.2123,-7.5048,-7.7085,-7.8582,-7.9605,-8.1257,-8.2221,-8.2531,-8.2932,-8.3958,-8.5531,-8.6133,-8.7094,-8.8313,-8.9641,-9.0364,-9.0583,-9.0856,-9.1226,-9.1483,-9.068,-9.0486,-9.0787,-9.1158,-9.1529,-9.1979,0.0,0.0,0.0,0.0,0.0,0.0,0.0,0.0,0.0,0.7448,0.7349,0.7298,0.7298,0.7076,0.6715,0.6284,0.6221,0.6179,0.6069,0.5873,0.5461,0.4793,0.5355,0.4796,0.2937,0.343,0.3268,0.2426,0.227,0.2229,0.2324,0.2335,0.1439,-0.0121,0.0344,-0.018,-0.1437,-0.093,-0.1209,-0.2336,-0.6172,-0.8619,-1.0349,-1.38,-1.6479,-1.854,-1.959,-2.1241,-2.2904,-2.2873,-2.0282,-1.7414,-1.8912,-1.757,-1.5236,-1.4708,-1.5115,-1.513,-1.2429,-1.1707,-1.182,-1.2047,-1.3006,-1.4467,0.0,0.0,0.0,-2.1121,-2.2566,-2.3536,-2.3786,-2.6694,-2.9092,-2.9342,-3.5363,-3.9051,-3.6451,-4.2094,-4.6597,-4.679,-5.0063,-5.2973,-5.4778,-5.5795,-5.8303,-6.3138,-6.5214,-6.7545,-7.0322,-7.3214,-7.5797,-7.8179,-8.0294,-8.1443,-8.1572,-8.312,-8.3662,-8.3294,-8.4515,-8.5483,-8.6147,-8.7003,-8.8038,-8.9191,-9.0106,-9.0858,-9.1372,-9.0761,-9.0735,-9.1162,-9.1162,-9.0885,-9.0711,-9.2026,-9.2595,-9.2864,0.63,0.63,0.0,0.0,0.0,0.0,0.0,0.0,0.0,0.7726,0.6856,0.6189,0.6189,0.5095,0.3608,0.1651,0.132,0.1202,0.1173,0.0971,0.1665,0.3492,0.3516,0.3291,0.2901,0.2252,0.1742,0.1447,0.0686,0.0326,0.0328,0.0336,0.0192,-0.0119,-0.2249,-0.207,-0.0328,-0.248,-0.5629,-0.9267,-1.0197,-0.9564,-0.8831,-1.5548,-1.8451,-1.9584,-2.4155,-2.5788,-2.56,-2.5015,-2.3986,-2.2311,-1.8237,-1.9327,-2.0848,-1.5153,-1.6145,-1.8061,-1.3539,-1.209,-1.2152,-1.3346,-1.3753,-1.428,-1.5667,0.0,-1.7923,-1.8169,0.0,-2.0802,-2.2035,0.0,0.0,-2.4908,-2.8943,-3.1934,-3.2051,-3.7925,-4.2546,-4.3447,-5.0326,-5.5172,-5.5627,-5.7651,-6.1246,-6.6976,-6.6879,-6.9198,-7.5133,-7.7779,-7.982,-8.1345,-8.2455,-8.3315,-8.3913,-8.5327,-8.5693,-8.4944,-8.4828,-8.5664,-8.7349,-8.686,-8.7998,-9.0323,-9.044,-9.0483,-9.0486,-9.106,-9.0867,-9.0269,-9.0269,-9.1082,-9.2254,-9.2423,-9.2941,-9.3672,0.6313,0.63,0.0,0.0,0.0,0.0,0.0,0.0,0.0,0.8038,0.7623,0.7382,0.7455,0.6967,0.5361,0.2231,0.1873,0.1506,0.0636,0.0338,0.0956,0.2512,0.3029,0.2616,0.1233,0.1451,0.1242,0.0533,0.0185,0.0,0.0,0.0,-0.0389,-0.1193,-0.4301,-0.471,-0.3279,-0.5877,-0.7311,-0.8135,-1.1305,-1.2109,-1.2172,-1.8643,-2.2132,-2.4186,-2.7609,-2.8881,-2.8831,-2.8514,-2.6251,-2.3827,-2.5726,-2.3892,-2.109,-2.1099,-2.0557,-1.9264,-1.6054,-1.6626,-1.7659,-1.5763,-1.7532,-1.9269,-1.7318,-1.7855,-1.8734,-1.8734,0.0,0.0,0.0,0.0,0.0,0.0,-2.938,-3.2257,-3.0583,-3.7512,-4.2716,-4.2612,-4.793,-5.2966,-5.6321,-5.9275,-6.3158,-6.8465,-6.7638,-6.9738,-7.6074,-7.826,-8.0223,-8.2359,-8.4177,-8.5563,-8.6558,-8.7178,-8.716,-8.6601,-8.6472,-8.6672,-8.7304,-8.8354,-8.9189,-8.9851,-9.0651,-9.0991,-9.097,-9.1191,-9.1356,-9.1471,-9.1471,-9.1912,-9.2633,-9.3595,-9.4172,-9.4557,0.6429,0.0,0.0,0.0,0.0,0.0,0.0,0.7591,0.7822,0.7667,0.7334,0.7033,0.6764,0.5863,0.3893,0.0557,-0.0321,-0.1027,-0.1823,-0.1677,-0.1086,-0.0103,0.158,0.1392,-0.095,0.0431,0.0767,0.0,0.0,0.0,0.0,0.0,-0.0478,-0.1481,-0.5059,-0.5991,-0.5115,-0.8715,-0.9917,-0.9736,-1.4153,-1.68,-1.8453,-2.2404,-2.5647,-2.8297,-2.9887,-3.1012,-3.1524,-3.0809,-2.8435,-2.6437,-3.1218,-2.8244,-2.369,-2.7139,-2.6014,-2.3097,-2.0303,-2.1377,-2.2387,-1.8531,-2.0244,-2.2112,-1.9036,-1.9196,-1.998,-1.998,-2.0944,0.0,0.0,0.0,-2.5313,-2.5487,0.0,-3.2333,-2.997,-3.6095,-4.0565,-4.0037,-4.4871,-5.036,-5.5765,-5.8459,-6.2321,-6.8273,-6.7461,-6.974,-7.6829,-7.8947,-8.1111,-8.3398,-8.5491,-8.6978,-8.7841,-8.7985,-8.7806,-8.726,-8.7353,-8.7486,-8.7663,-8.9172,-8.9847,-8.9902,-9.0694,-9.1174,-9.1344,-9.1489,-9.1941,-9.2556,-9.3018,-9.3172,-9.3326,-9.4557,-9.5134,-9.5441,0.6661,0.6566,0.0,0.0,0.6932,0.0,0.7719,0.788,0.7535,0.6236,0.4957,0.3665,0.2335,-0.0864,-0.3837,-0.616,-0.8378,-0.9356,-0.8483,-0.7195,-0.6153,-0.5381,-0.1828,-0.1011,-0.3412,-0.1151,0.0043,0.0,0.0,0.0,0.0,0.0,-0.0041,-0.0213,-0.4096,-0.5024,-0.4047,-1.0096,-1.4617,-1.7929,-2.0665,-2.4162,-2.763,-2.685,-2.831,-3.0703,-3.0782,-3.2015,-3.3368,-3.0963,-3.1003,-3.1967,-3.1049,-3.1146,-3.1586,-3.1574,-3.1981,-3.1439,-2.6702,-2.5309,-2.4459,-2.1428,-2.0434,-2.0201,-2.0072,-2.0646,-2.1239,-2.1239,-2.2208,-2.3387,-2.4489,-2.4766,-2.504,-2.5694,-2.7972,0.0,0.0,-3.2016,-3.3783,-3.3974,-4.1418,-4.848,-5.3334,-5.3978,-5.7633,-6.6226,-6.5914,-6.9328,-7.8442,-8.1442,-8.3568,-8.509,-8.6322,-8.6957,-8.6957,-8.7407,-8.722,-8.6427,-8.683,-8.7771,-8.92,-8.8486,-8.9328,-9.1286,-9.0514,-9.0526,-9.1269,-9.2133,-9.2479,-9.2672,-9.4287,-9.4903,-9.4903,-9.498,-9.5518,-9.6249,0.0,0.0,0.0,0.6844,0.697,0.7247,0.774,0.7173,0.6041,0.4167,0.2754,0.1193,-0.0775,-0.2028,-0.4124,-0.7477,-0.8343,-0.8773,-0.9004,-0.7573,-0.6341,-0.5618,-0.2028,-0.1092,-0.3431,-0.1172,0.0,0.0,0.0,0.0,0.0,0.0,0.0,-0.0217,-0.5554,-0.802,-0.8575,-1.4124,-1.7726,-1.9853,-2.1745,-2.4744,-2.8119,-2.7827,-2.9273,-3.1758,-3.2736,-3.4683,-3.668,-3.5838,-3.5323,-3.5345,-3.748,-3.5755,-3.3297,-3.5749,-3.5376,-3.3831,-3.2245,-3.4303,-3.5202,-2.8274,-2.8839,-2.9481,-2.3546,-2.3464,-2.448,-2.4111,-2.5032,-2.5893,-2.5904,-2.6984,-2.7973,-2.8222,-3.0085,-3.1566,0.0,-3.3318,-3.5015,-3.6163,-4.2149,-4.7271,-5.0152,-5.5221,-6.0961,-6.7102,-6.8657,-7.2214,-7.9021,-8.0473,-8.1874,-8.3614,-8.5136,-8.6233,-8.6965,-8.7121,-8.759,-8.8287,-8.7915,-8.8219,-8.9187,-8.9943,-9.039,-9.0536,-9.0721,-9.1297,-9.2095,-9.2364,-9.3133,-9.421,-9.4788,-9.5326,-9.5865,-9.5865,-9.6057,-9.6288,0.6865,0.6546,0.6257,0.6257,0.6087,0.6054,0.6372,0.533,0.3758,0.1554,0.0061,-0.1602,-0.3902,-0.488,-0.6323,-0.8893,-0.9647,-0.9821,-0.9111,-0.8429,-0.7673,-0.6904,-0.4059,-0.3554,-0.5937,-0.3327,-0.1909,-0.193,-0.1521,-0.1322,-0.126,-0.127,-0.129,-0.1545,-0.5926,-0.9215,-1.1799,-1.63,-1.9881,-2.2549,-2.404,-2.6259,-2.8804,-2.9473,-3.0704,-3.2348,-3.4852,-3.7362,-3.9549,-3.9716,-3.9722,-4.0131,-4.2702,-4.1379,-3.9386,-4.1808,-4.1686,-4.0586,-3.9528,-4.1716,-4.263,-3.561,-3.6226,-3.6588,-2.9281,-2.8467,-2.8948,-2.7789,-2.7883,-2.8347,-2.8985,-2.982,-3.047,-3.0901,-3.2173,-3.3331,0.0,-3.5252,-3.6508,-3.7528,-4.1322,-4.531,-4.918,-5.3479,-5.9118,-6.6634,-6.8595,-7.1959,-7.7693,-7.9716,-8.1383,-8.2859,-8.4824,-8.5956,-8.6151,-8.697,-8.773,-8.8442,-8.8151,-8.8538,-8.95,-9.0487,-9.0775,-9.0546,-9.1297,-9.1979,-9.2556,-9.3133,-9.4018,-9.5018,-9.5326,-9.5826,-9.6288,-9.6288,-9.6288,-9.6288,0.7003,0.5913,0.4933,0.4933,0.4285,0.3861,0.4003,0.2677,0.0867,-0.1487,-0.3087,-0.4948,-0.7231,-0.9418,-1.0696,-1.0745,-1.2701,-1.2667,-0.9494,-1.03,-1.0479,-0.9599,-0.8113,-0.8439,-1.0845,-0.7409,-0.5583,-0.5569,-0.4363,-0.3725,-0.3623,-0.3614,-0.3689,-0.3849,-0.5222,-0.8523,-1.3317,-1.6603,-2.1071,-2.6221,-2.7625,-2.8822,-2.9975,-3.2092,-3.2761,-3.3152,-3.7215,-4.0013,-4.1873,-4.2528,-4.4191,-4.5934,-4.6346,-4.7682,-4.9217,-4.9217,-5.0404,-5.1142,-4.8264,-4.7617,-4.6934,-4.3264,-4.2529,-4.155,-3.7037,-3.5736,-3.4859,-3.2765,-3.1509,-3.1489,-3.3886,-3.3325,-3.2788,-3.3642,-3.4028,-3.4813,-3.6477,-3.7413,-3.7876,-3.7876,-3.9157,-4.2842,-5.0018,-4.9078,-5.2923,-6.4706,-6.6005,-6.8965,-7.5035,-7.9277,-8.196,-8.2864,-8.5549,-8.6182,-8.4669,-8.6845,-8.7615,-8.6988,-8.755,-8.8629,-9.016,-9.016,-9.0566,-9.1325,-9.2133,-9.2556,-9.2749,-9.4326,-9.5018,-9.5134,-9.598,-9.6288,-9.6288,-9.6288,-9.6288,-9.6288,0.5969,0.4163,0.2633,0.2633,0.3291,0.3861,0.4003,0.1792,-0.0854,-0.3654,-0.6348,-0.9092,-1.213,-1.2936,-1.3387,-1.3634,-1.5704,-1.6337,-1.4696,-1.569,-1.5743,-1.4571,-1.3294,-1.2785,-1.3275,-0.9871,-0.8052,-0.81,-0.5188,-0.3772,-0.3733,0.0,-0.3776,-0.3846,-0.5289,-0.8698,-1.3471,-1.5556,-2.0502,-2.7066,-2.9511,-3.0888,-3.1874,-3.6377,-3.8051,-3.8253,-4.0314,-4.2623,-4.4645,-4.4856,-4.659,-4.864,-4.8764,-5.0209,-5.1917,-5.1917,-5.3115,-5.4217,-5.3458,-5.5188,-5.6167,-5.1774,-5.1499,-5.1049,-4.5954,-4.5503,-4.5821,-4.4374,-4.4924,-4.4581,-4.0935,-4.0562,-3.9814,-3.6858,-3.7077,-3.7806,-3.8261,-3.8864,-3.928,-3.928,-4.151,-4.364,-4.5115,-5.1252,-5.7709,-6.3861,-6.7001,-7.1787,-7.8815,-7.8182,-7.9292,-8.2979,-8.4966,-8.5693,-8.5187,-8.6353,-8.7436,-8.8383,-8.7962,-8.8829,-9.0914,-9.0914,-9.1353,-9.2172,-9.2402,-9.321,-9.4364,-9.4826,-9.5365,-9.598,-9.6211,-9.6288,-9.6288,-9.6288,-9.6288,-9.6343,0.4742,0.3158,0.1641,0.1104,0.074,0.0497,0.0562,-0.0445,-0.2368,-0.5544,-0.8061,-1.0355,-1.2539,-1.4801,-1.6152,-1.6333,-1.8489,-1.9209,-1.7581,-1.89,-1.9046,-1.7359,-1.7465,-1.7502,-1.7463,-1.5042,-1.2951,-1.1333,-0.894,-0.6952,-0.5459,0.0,0.0,-0.5623,-0.7044,-1.0228,-1.4857,-2.0199,-2.4539,-2.8185,-3.26,-3.5392,0.0,-4.105,-4.3958,-4.6083,-4.6811,-4.742,-4.7753,-4.7955,-4.9547,-5.1395,-5.1417,-5.2747,-5.4314,-5.4314,-5.6327,-5.8472,-5.8472,-6.0535,-6.1996,-5.9104,-5.9184,-5.8728,-5.3794,-5.3257,-5.3579,-5.2689,-5.2872,-5.2575,-5.0411,-4.8358,-4.5217,-3.9851,-3.975,-4.0355,-4.0311,-4.0886,-4.1435,-4.1691,-4.3739,-4.5094,-4.5089,-5.1041,-5.6878,-6.1768,-6.4914,-6.8654,-7.3386,-7.5485,-7.7849,-8.0773,-8.2784,-8.4159,-8.4871,-8.5214,-8.6374,-8.8362,-8.8573,-8.9534,-9.121,-9.1595,-9.2056,-9.2556,-9.3249,-9.4134,-9.5018,-9.5403,-9.5865,-9.6306,-9.6403,-9.6432,-9.6465,-9.656,-9.6514,-9.6458,0.317,0.2275,0.1225,0.0208,-0.2096,-0.4055,-0.4698,-0.3899,-0.4338,-0.7519,-0.9152,-1.0414,-1.1368,-1.5661,-1.8454,-1.8479,-2.0984,-2.1693,-1.9636,-2.1572,-2.1828,-1.9561,-2.1378,-2.2413,-2.2304,-2.1028,-1.8623,-1.4974,-1.3537,-1.1031,-0.7658,-0.7827,0.0,-0.8145,-0.9525,-1.2605,-1.7361,-2.6605,-3.0293,-3.0494,-3.6706,-4.1103,-4.4263,-4.6037,-4.9657,-5.3722,-5.3834,-5.2616,-5.1038,-5.1462,-5.2752,-5.4229,-5.4252,-5.5661,-5.7235,-5.7163,-5.9844,-6.2863,-6.2783,-6.4165,-6.543,-6.4972,-6.5572,-6.5202,-6.126,-6.0608,-6.0667,-6.0008,-5.9123,-5.8958,-6.0451,-5.5718,-4.9642,-4.3716,-4.3505,-4.4187,-4.438,-4.5161,-4.5658,-4.5427,-4.6886,0.0,-4.7845,-4.9909,-5.3688,-5.97,-6.1343,-6.3342,-6.6089,-7.272,-7.7092,-7.8557,-8.1071,-8.294,-8.4103,-8.4458,-8.5584,-8.7516,-8.913,-9.0364,-9.1248,-9.2095,-9.2556,-9.2749,-9.4326,-9.5057,-9.5211,-9.598,-9.6325,-9.6338,-9.6536,-9.6616,-9.667,-9.6964,-9.6885,-9.6732,0.0868,0.0468,0.0265,0.0054,-0.2087,-0.5291,-0.9663,-0.9286,-0.8977,-1.0346,-1.1861,-1.314,-1.4159,-1.6826,-1.8609,-1.8761,-2.2891,-2.5194,-2.4529,-2.7001,-2.7417,-2.499,-2.6955,-2.7206,-2.5477,-2.3831,-2.1335,-1.8036,-1.4536,-1.1113,-0.7957,-0.8931,-0.9451,-0.954,-1.1217,-1.5356,-2.1446,-2.6359,-3.1648,-3.7078,-4.1942,-4.5613,-4.8396,-5.1219,-5.2852,-5.3834,-5.4642,-5.4494,-5.3842,-5.3931,-5.5428,-5.7125,-5.7125,-5.9761,-6.2688,-6.2144,-6.3644,-6.5444,-6.4851,-6.616,-6.7576,-6.7461,-6.9713,-7.153,-7.019,-7.1278,-7.2427,-7.1791,-7.1903,-7.0946,-6.701,-5.9944,-5.399,-5.182,-5.2775,-5.4457,-5.6425,-5.7735,-5.6809,-5.241,-5.4479,-5.4562,-5.0153,-5.1035,-5.4354,-6.0463,-5.9356,-6.3121,-7.3943,-7.3379,-7.582,-8.2631,-8.5279,-8.5698,-8.3703,-8.7113,-8.8011,-8.6398,-8.8773,-9.0364,-9.1248,-9.2095,-9.2864,-9.3557,-9.4557,-9.5403,-9.6095,-9.6249,-9.6403,-9.6542,-9.6599,-9.6732,-9.6974,-9.7233,-9.7316,-9.7259,0.0107,-0.0703,-0.1452,-0.1911,-0.5961,-1.0184,-1.3209,-1.5401,-1.6433,-1.5455,-1.4758,-1.4998,-1.6768,-1.9156,-2.1153,-2.2535,-2.6048,-2.8013,-2.7977,-2.9049,-2.927,-2.8458,-2.922,-2.9217,-2.8166,-2.8444,-2.5779,-1.9912,-1.9136,-1.5971,-1.0483,-1.1088,-1.134,-1.1527,-1.5464,-2.0217,-2.5677,-3.2338,-3.7986,-4.2813,-4.7307,-5.0591,-5.2985,-5.4696,-5.6966,-5.9214,-5.9999,-6.1055,-6.1672,-5.9428,-5.996,-6.1764,-6.2791,-6.431,-6.5735,-6.5762,-6.7165,-6.8626,-6.8315,-7.0263,-7.2248,-7.1888,-7.3445,-7.4999,-7.4684,-7.5088,-7.5713,-7.6238,-7.702,-7.648,-7.2598,-6.632,-6.1288,-6.011,-5.8479,-5.8589,-6.2156,-6.3186,-6.2858,-6.0857,-6.0076,-5.8807,-5.6593,-5.4907,-5.5155,-5.8072,-5.8409,-6.2241,-7.0839,-7.194,-7.5436,-8.2217,-8.4036,-8.5102,-8.5555,-8.6748,-8.7363,-8.7478,-8.9556,-9.1018,-9.1902,-9.2749,-9.3595,-9.4403,-9.5288,-9.5903,-9.6306,-9.6398,-9.6491,-9.6629,-9.6924,-9.7099,-9.724,-9.7451,-9.7557,-9.7557,-0.0793,-0.233,-0.4015,-0.5275,-1.0632,-1.5379,-1.7036,-2.1074,-2.3056,-2.0381,-1.8139,-1.7465,-1.9423,-2.182,-2.4021,-2.6048,-2.8436,-2.994,-3.0007,-2.9793,-3.0196,-3.1322,-3.1048,-3.1091,-3.1671,-3.3323,-3.0616,-2.3274,-2.4066,-2.0931,-1.4046,-1.3558,-1.4257,-1.62,-2.1362,-2.6644,-3.2191,-3.9739,-4.4933,-4.8526,-5.2548,-5.5607,-5.7789,-5.8777,-6.158,-6.5128,-6.5639,-6.7143,-6.8408,-6.5423,-6.503,-6.6159,-6.7694,-6.8179,-6.8239,-6.8675,-7.035,-7.2109,-7.1962,-7.4238,-7.6463,-7.5933,-7.6589,-7.7384,-7.7384,-7.7415,-7.7741,-7.8976,-7.9888,-7.9453,-7.6109,-7.1908,-6.8273,-6.6451,-6.371,-6.303,-6.6544,-6.8142,-6.8847,-6.8509,-6.5272,-6.3117,-6.3268,-5.9207,-5.6854,-5.7522,-5.9322,-6.252,-6.737,-7.0997,-7.5478,-8.0968,-8.1909,-8.351,-8.6091,-8.6011,-8.6786,-8.844,-9.0517,-9.1825,-9.2518,-9.3518,-9.4326,-9.5057,-9.5903,-9.6304,-9.639,-9.6585,-9.6708,-9.6815,-9.724,-9.7425,-9.749,-9.7652,-9.7695,-9.7695,-0.3309,-0.5486,-0.8035,-1.0546,-1.4167,-1.8167,-2.2375,-2.5128,-2.5701,-2.3046,-2.2322,-2.209,-2.212,-2.4412,-2.5957,-2.6139,-2.8436,-3.0034,-3.0301,-3.0301,-3.1609,-3.4374,-3.4169,-3.5105,-3.7655,-3.6976,-3.4876,-3.1137,-2.6875,-2.2498,-1.8128,-1.5946,-1.898,-2.6298,-2.8904,-3.507,-4.3658,-4.5651,-4.9702,-5.4924,-5.7471,-6.0253,-6.2978,-6.5207,-6.6696,-6.7726,-6.8284,-6.8709,-6.9113,-7.0537,-6.9949,-6.8579,-6.873,-7.0012,-7.1353,-7.0836,-7.3108,-7.5664,-7.5048,-7.6242,-7.7636,-7.7572,-7.868,-7.9757,-7.9757,-8.1641,-8.3452,-8.3583,-8.3389,-8.1465,-7.5702,-7.4154,-7.2413,-6.8264,-7.0698,-7.3004,-7.2683,-7.7455,-7.8894,-7.3295,-7.1052,-6.9256,-6.7423,-6.2347,-6.0428,-6.354,-6.3614,-6.5947,-7.1381,-7.2779,-7.5859,-8.1143,-8.1952,-8.2169,-8.1878,-8.6893,-8.8786,-8.7555,-9.0825,-9.2402,-9.2556,-9.4134,-9.4903,-9.5057,-9.5903,-9.642,-9.6599,-9.686,-9.7107,-9.7333,-9.7363,-9.7503,-9.7656,-9.7695,-9.7695,-9.7695,-0.6232,-0.9264,-1.2255,-1.3792,-1.8772,-2.3348,-2.5671,-2.8229,-2.9388,-2.8059,-2.6469,-2.5937,-2.7345,-2.7069,-2.7965,-3.0872,-3.1986,-3.3319,-3.495,-3.5055,-3.5614,-3.6988,-3.6951,-3.7401,-3.8522,-3.9524,-3.803,-3.3905,-3.151,-2.8147,-2.3954,-2.4655,-2.8633,-3.5321,-3.8796,-4.4038,-5.0461,-5.3186,-5.7297,-6.204,-6.2996,-6.4291,-6.5807,-6.712,-6.8759,-7.04,-7.0655,-7.1495,-7.274,-7.4531,-7.3794,-7.2378,-7.3556,-7.5224,-7.6646,-7.6769,-7.7803,-7.8911,-7.8626,-7.9789,-8.1113,-8.1424,-8.2368,-8.3415,-8.4161,-8.4809,-8.5114,-8.4658,-8.4584,-8.422,-8.2879,-8.0226,-7.8448,-7.9009,-7.7754,-7.74,-7.9403,-8.1347,-8.1041,-7.6891,-7.3607,-7.1357,-7.0513,-6.4296,-6.194,-6.5975,-6.3678,-6.4385,-6.9654,-7.2668,-7.5939,-7.9683,-8.3432,-8.4805,-8.3579,-8.731,-8.9094,-8.894,-9.1364,-9.2749,-9.3249,-9.4441,-9.5332,-9.5965,-9.6313,-9.6613,-9.6871,-9.7123,-9.7283,-9.7416,-9.7511,-9.7612,-9.7695,-9.7695,-9.7695,-9.7695,-1.1149,-1.4495,-1.753,-1.8955,-2.3501,-2.7422,-2.8593,-3.0462,-3.1867,-3.2388,-3.0716,-3.0147,-3.1689,-3.0346,-3.0977,-3.5271,-3.5571,-3.6305,-3.829,-3.8296,-3.8664,-3.966,-3.9677,-4.0053,-4.0768,-4.2941,-4.2443,-3.9102,-3.798,-3.5733,-3.2603,-3.3893,-3.7614,-4.3473,-4.7679,-5.2284,-5.701,-6.0392,-6.3697,-6.6574,-6.7345,-6.7981,-6.877,-6.9899,-7.1754,-7.386,-7.379,-7.4877,-7.6467,-7.7612,-7.7392,-7.6786,-7.7711,-7.8878,-7.9899,-8.0318,-8.0942,-8.1557,-8.194,-8.3425,-8.4955,-8.5498,-8.6073,-8.6674,-8.7266,-8.7291,-8.6887,-8.6005,-8.5976,-8.6381,-8.7223,-8.4312,-8.238,-8.4192,-8.1657,-8.0085,-8.1841,-8.2798,-8.2105,-7.8869,-7.5207,-7.3262,-7.4076,-6.7435,-6.5214,-7.0455,-6.7161,-6.6589,-7.0491,-7.3536,-7.6726,-8.0186,-8.4203,-8.5884,-8.5114,-8.7818,-8.9678,-9.0757,-9.2311,-9.3493,-9.4304,-9.5193,-9.6,-9.6708,-9.6804,-9.6954,-9.713,-9.7373,-9.7493,-9.75,-9.7653,-9.7695,-9.7695,-9.7695,-9.7695,-9.7695,-1.8785,-2.1659,-2.4289,-2.6898,-2.8241,-2.9544,-3.1396,-3.1664,-3.2583,-3.4951,-3.5215,-3.4977,-3.4412,-3.4352,-3.5452,-3.8399,-3.828,-3.8396,-3.9109,-3.872,-3.9677,-4.2425,-4.2532,-4.3727,-4.6114,-4.8032,-4.8924,-4.8798,-4.6523,-4.5136,-4.4719,-4.241,-4.4612,-5.0734,-5.4712,-5.9279,-6.4228,-6.6828,-6.7635,-6.7384,-6.9907,-7.1351,-7.22,-7.4861,-7.6796,-7.8212,-7.8212,-7.891,-7.9742,-7.9742,-8.0826,-8.1853,-8.0288,-7.9803,-7.9803,-7.9835,-8.1463,-8.3531,-8.4824,-8.6885,-8.8827,-8.9318,-8.9427,-8.9214,-8.84,-8.91,-8.9636,-8.8398,-8.8109,-8.7555,-8.5938,-8.4797,-8.3119,-8.0001,-8.125,-8.1518,-7.8346,-8.1918,-8.3285,-7.9015,-7.6245,-7.5746,-7.8541,-7.2442,-7.1302,-7.8511,-7.6266,-7.5,-7.6061,-7.615,-7.8549,-8.3695,-8.3702,-8.4111,-8.5075,-8.8546,-9.1128,-9.2767,-9.3851,-9.4824,-9.5728,-9.6575,-9.6964,-9.7021,-9.7265,-9.7407,-9.7416,-9.761,-9.7695,-9.7695,-9.7695,-9.7695,-9.7695,-9.7695,-9.7695,-9.7695,-2.233,-2.4675,-2.6763,-2.757,-3.077,-3.3538,-3.4053,-3.5602,-3.7054,-3.8107,-3.8232,-3.8895,-4.0658,-3.9142,-3.9142,-4.2,-4.2112,-4.2891,-4.4811,-4.4458,-4.5319,-4.7681,-4.7508,-4.8466,-5.0778,-5.138,-5.1625,-5.1625,-4.8873,-4.8616,-5.0766,-5.1684,-5.5286,-6.1147,-6.3825,-6.6615,-6.9461,-6.9817,-7.0907,-7.2607,-7.4549,-7.6014,-7.725,-7.9296,-8.0646,-8.1379,-8.0428,-8.0265,-8.0752,-8.1837,-8.2517,-8.3275,-8.5296,-8.4976,-8.4166,-8.5547,-8.6443,-8.7177,-8.7931,-8.8696,-8.9364,-8.975,-8.9827,-8.9965,-9.0516,-9.0924,-9.104,-9.0675,-9.0094,-8.9641,-8.954,-8.8819,-8.7873,-8.6757,-8.6697,-8.602,-8.379,-8.2298,-7.986,-7.5723,-7.2438,-7.2091,-7.6052,-7.2344,-7.2111,-7.8028,-7.5429,-7.4149,-7.5369,-7.8593,-8.0393,-8.0418,-8.4894,-8.6932,-8.6262,-8.9061,-9.1374,-9.3094,-9.3979,-9.5183,-9.6584,-9.6856,-9.7099,-9.7265,-9.7354,-9.749,-9.7609,-9.7656,-9.7695,-9.7695,-9.7695,-9.7695,-9.7695,-9.7695,-9.7695,-9.7695,-2.68,-2.9127,-3.099,-3.0886,-3.4356,-3.718,-3.718,-3.8578,-4.0083,-4.1108,-4.1337,-4.2877,-4.6424,-4.5181,-4.4507,-4.5406,-4.5405,-4.6386,-4.9011,-4.8699,-4.9451,-5.1724,-5.1357,-5.1772,-5.319,-5.3834,-5.4534,-5.5249,-5.5126,-5.6271,-5.8555,-6.0388,-6.325,-6.7061,-6.9113,-7.0882,-7.2345,-7.3297,-7.4847,-7.6757,-7.8735,-7.9977,-8.0892,-8.2238,-8.3219,-8.3781,-8.2936,-8.2812,-8.3388,-8.4868,-8.5367,-8.5905,-8.899,-8.8832,-8.7844,-8.9158,-8.9493,-8.9643,-9.0437,-9.0605,-9.0688,-9.1052,-9.1149,-9.1348,-9.209,-9.2189,-9.2032,-9.1732,-9.1192,-9.0784,-9.0889,-9.044,-8.9994,-8.9927,-8.894,-8.7478,-8.544,-8.2663,-7.9441,-7.5642,-7.3355,-7.3612,-7.7479,-7.5851,-7.6526,-8.1254,-7.9834,-7.9115,-8.0069,-8.1106,-8.2018,-8.2725,-8.7509,-8.9496,-8.8239,-9.0517,-9.2391,-9.384,-9.5069,-9.6224,-9.7277,-9.7277,-9.7363,-9.7503,-9.7503,-9.7565,-9.7695,-9.7695,-9.7695,-9.7695,-9.7695,-9.7695,-9.7695,-9.7695,-9.7695,-9.7695,-3.2174,-3.4751,-3.6541,-3.6239,-3.8604,-4.0534,-4.0534,-4.1194,-4.2346,-4.4288,-4.5059,-4.7121,-5.1621,-5.2086,-5.1197,-4.9029,-4.8452,-4.9299,-5.1782,-5.1667,-5.2455,-5.4806,-5.4478,-5.435,-5.4516,-5.6122,-5.7854,-5.9591,-6.3975,-6.6484,-6.7009,-6.7718,-6.8429,-6.9187,-7.1322,-7.2604,-7.3471,-7.7026,-7.8885,-7.9701,-8.2079,-8.3095,-8.3256,-8.3929,-8.4862,-8.5788,-8.5689,-8.6306,-8.7395,-8.862,-8.9006,-8.9359,-9.1317,-9.1407,-9.0804,-9.0895,-9.0814,-9.1006,-9.2184,-9.2512,-9.2537,-9.3013,-9.3125,-9.3155,-9.3077,-9.2972,-9.2636,-9.1918,-9.1615,-9.1212,-9.041,-9.0091,-8.9902,-8.9902,-8.838,-8.6412,-8.3949,-8.2894,-8.1174,-7.8018,-7.7749,-7.8993,-8.1939,-8.2045,-8.3435,-8.7148,-8.7814,-8.8105,-8.8244,-8.3748,-8.3722,-8.9238,-9.0998,-9.1473,-9.0703,-9.2602,-9.399,-9.4927,-9.6829,-9.7695,-9.7695,-9.7695,-9.7695,-9.7695,-9.7695,-9.7695,-9.7695,-9.7695,-9.7695,-9.7695,-9.7695,-9.7695,-9.7695,-9.7695,-9.7695,-9.7695,-3.7663,-3.838,-3.8784,-3.8796,-4.1118,-4.3058,-4.3058,-4.6629,-4.9552,-5.0355,-5.2524,-5.4559,-5.5932,-5.6176,-5.5887,-5.5373,-5.4432,-5.4172,-5.4806,-5.487,-5.5821,-5.8085,-5.9249,-6.0632,-6.2267,-6.3864,-6.4533,-6.4517,-6.6048,-6.6871,-6.7009,-6.9204,-7.0578,-7.1322,-7.4569,-7.6105,-7.6391,-7.8596,-7.9824,-8.0553,-8.2465,-8.3906,-8.4915,-8.5857,-8.7676,-8.9541,-8.8376,-8.9135,-9.0709,-9.0962,-9.1104,-9.1329,-9.2728,-9.305,-9.2906,-9.2906,-9.2468,-9.2148,-9.2772,-9.2932,-9.2977,-9.3017,-9.3438,-9.3881,-9.383,-9.3754,-9.3583,-9.3393,-9.278,-9.22,-9.1969,-9.0813,-8.9902,-8.9902,-8.7511,-8.5214,-8.4016,-8.1558,-7.9431,-7.8129,-7.7492,-7.8731,-8.2846,-8.378,-8.4797,-8.6406,-8.7219,-8.7369,-8.6752,-8.6206,-8.7251,-9.018,-9.0905,-9.1398,-9.1822,-9.3137,-9.4566,-9.6128,-9.7187,-9.7695,-9.7695,-9.7695,-9.7695,-9.7695,-9.7695,-9.7695,-9.7695,-9.7695,-9.7695,-9.7695,-9.7695,-9.7695,-9.7695,-9.7695,-9.7695,-9.7695,-4.0094,-4.2273,-4.3936,-4.3576,-4.692,-4.9662,-4.9391,-5.2014,-5.3993,-5.4015,-5.5578,-5.7214,-5.854,-5.8761,-5.9291,-6.0592,-5.814,-5.7056,-5.8103,-5.8276,-5.9716,-6.302,-6.3695,-6.5057,-6.726,-6.7797,-6.8389,-6.885,-7.005,-7.0577,-7.0677,-7.2788,-7.4036,-7.4501,-7.7228,-7.8597,-7.9006,-8.0678,-8.1761,-8.2557,-8.4846,-8.6472,-8.7562,-8.8673,-9.0237,-9.176,-9.0969,-9.1371,-9.2388,-9.2986,-9.2952,-9.2844,-9.4105,-9.4202,-9.3854,-9.3854,-9.3525,-9.3308,-9.3558,-9.36,-9.3546,-9.3529,-9.3745,-9.401,-9.401,-9.3884,-9.3593,-9.2807,-9.2584,-9.228,-9.1631,-9.1006,-9.0681,-9.079,-8.8026,-8.5723,-8.5279,-8.2458,-8.0742,-8.1559,-8.1373,-8.257,-8.6172,-8.6953,-8.7422,-8.789,-8.8398,-8.8594,-8.8554,-8.8984,-8.9756,-9.0881,-9.1441,-9.2124,-9.2983,-9.4372,-9.5742,-9.7031,-9.75,-9.7695,-9.7695,-9.7695,-9.7695,-9.7695,-9.7695,-9.7695,-9.7695,-9.7695,-9.7695,-9.7695,-9.7695,-9.7695,-9.7695,-9.7695,-9.7695,-9.7695,-4.3134,-4.7025,-5.0094,-4.9372,-5.333,-5.6502,-5.64,-5.7023,-5.7508,-5.7372,-5.8108,-5.9406,-6.1522,-6.1775,-6.2801,-6.5288,-6.1933,-6.0308,-6.1909,-6.2385,-6.4354,-6.8119,-6.8091,-6.8892,-7.0628,-7.0492,-7.1114,-7.2602,-7.4515,-7.5467,-7.5437,-7.6992,-7.7739,-7.7929,-7.9468,-8.0428,-8.1064,-8.2963,-8.4171,-8.5064,-8.7727,-8.9384,-9.0264,-9.1198,-9.2211,-9.3178,-9.3036,-9.3139,-9.3495,-9.454,-9.442,-9.4059,-9.4995,-9.4869,-9.434,-9.4228,-9.4248,-9.4311,-9.4222,-9.4203,-9.4227,-9.4114,-9.4057,-9.4026,-9.3961,-9.3736,-9.3179,-9.1782,-9.1991,-9.2025,-9.0766,-9.0972,-9.1327,-9.1139,-8.8273,-8.6078,-8.6069,-8.3737,-8.3029,-8.5621,-8.6439,-8.7617,-8.9804,-9.0117,-9.0195,-9.0195,-9.0312,-9.0703,-9.1445,-9.1484,-9.1562,-9.1679,-9.2422,-9.3281,-9.4297,-9.5742,-9.6914,-9.7695,-9.7695,-9.7695,-9.7695,-9.7695,-9.7695,-9.7695,-9.7695,-9.7695,-9.7695,-9.7695,-9.7695,-9.7695,-9.7695,-9.7695,-9.7695,-9.7695,-9.7695,-9.7695,-5.4383,-5.4741,-5.4961,-5.4806,-5.5485,-5.6596,-5.8179,-6.0542,-6.277,-6.4357,-6.6741,-6.8434,-6.8881,-6.8881,-6.9309,-7.0354,-6.9745,-6.8599,-6.6777,-6.876,-7.0381,-7.1065,-7.2608,-7.3642,-7.3942,-7.5012,-7.5513,-7.5289,-7.6989,-7.786,-7.786,-7.9006,-7.9784,-8.0388,-8.1381,-8.1861,-8.2157,-8.4788,-8.6403,-8.7313,-8.8766,-9.0257,-9.1458,-9.102,-9.2344,-9.4439,-9.3798,-9.4245,-9.5121,-9.5313,-9.5258,-9.5047,-9.4552,-9.4716,-9.4999,-9.4312,-9.4561,-9.4908,-9.4291,-9.4564,-9.4858,-9.4111,-9.439,-9.4711,-9.418,-9.3466,-9.2934,-9.2904,-9.2413,-9.1928,-9.1704,-9.1169,-9.0041,-8.7928,-8.4871,-8.2733,-8.2738,-8.2472,-8.3201,-8.5858,-8.8086,-8.957,-8.9961,-9.0664,-9.1094,-9.1094,-9.1797,-9.2265,-9.2383,-9.2383,-9.2734,-9.3476,-9.3633,-9.4453,-9.6094,-9.6367,-9.6914,-9.7695,-9.7695,-9.7695,-9.7695,-9.7695,-9.7695,-9.7695,-9.7695,-9.7695,-9.7695,-9.7695,-9.7695,-9.7695,-9.7695,-9.7695,-9.7695,-9.7695,-9.7695,-9.7695,-5.8727,-5.964,-6.0568,-6.1408,-6.2559,-6.3589,-6.4215,-6.5398,-6.6577,-6.7557,-6.8831,-6.975,-7.0054,-7.0082,-7.033,-7.0937,-7.2022,-7.2215,-7.1018,-7.1645,-7.2612,-7.3724,-7.4668,-7.6137,-7.8243,-7.895,-7.9612,-8.0284,-8.1014,-8.1248,-8.0869,-8.1859,-8.2603,-8.3242,-8.4581,-8.5511,-8.6249,-8.7972,-8.8919,-8.9412,-9.0606,-9.1805,-9.2852,-9.3176,-9.4037,-9.5178,-9.5251,-9.5331,-9.5501,-9.5905,-9.5731,-9.5285,-9.491,-9.498,-9.5148,-9.4794,-9.4915,-9.5212,-9.5295,-9.5189,-9.5038,-9.4731,-9.421,-9.3785,-9.3667,-9.2932,-9.2237,-9.1849,-9.1836,-9.1801,-9.1483,-9.1418,-9.0668,-8.8236,-8.6564,-8.5606,-8.5606,-8.57,-8.6719,-8.9336,-9.0664,-9.1406,-9.1406,-9.1758,-9.1992,-9.1992,-9.2383,-9.2812,-9.3281,-9.3281,-9.3711,-9.457,-9.5078,-9.5703,-9.6484,-9.6914,-9.7344,-9.7695,-9.7695,-9.7695,-9.7695,-9.7695,-9.7695,-9.7695,-9.7695,-9.7695,-9.7695,-9.7695,-9.7695,-9.7695,-9.7695,-9.7695,-9.7695,-9.7695,-9.7695,-9.7695,-6.3161,-6.4601,-6.5903,-6.7135,-6.8557,-6.9564,-6.957,-6.956,-6.9903,-7.0728,-7.0874,-7.1162,-7.1998,-7.2027,-7.2285,-7.2814,-7.4371,-7.5377,-7.5525,-7.4966,-7.5144,-7.6403,-7.7004,-7.8779,-8.1922,-8.199,-8.2657,-8.3995,-8.4885,-8.4936,-8.4284,-8.5691,-8.6413,-8.6679,-8.79,-8.8907,-8.9837,-9.0757,-9.1247,-9.1479,-9.2532,-9.3506,-9.4445,-9.5181,-9.5552,-9.5802,-9.634,-9.6079,-9.5464,-9.6033,-9.5808,-9.5291,-9.5291,-9.5336,-9.5429,-9.52,-9.5009,-9.5079,-9.6021,-9.5707,-9.507,-9.5033,-9.3956,-9.2903,-9.2944,-9.2456,-9.1817,-9.1197,-9.1594,-9.1904,-9.1464,-9.1865,-9.1492,-8.9101,-8.8711,-8.8711,-8.8711,-8.8711,-8.9687,-9.2304,-9.2617,-9.2617,-9.2617,-9.2617,-9.2695,-9.289,-9.289,-9.3281,-9.414,-9.4219,-9.4609,-9.5469,-9.6133,-9.6601,-9.6797,-9.7383,-9.7695,-9.7695,-9.7695,-9.7695,-9.7695,-9.7695,-9.7695,-9.7695,-9.7695,-9.7695,-9.7695,-9.7695,-9.7695,-9.7695,-9.7695,-9.7695,-9.7695,-9.7695,-9.7695,-9.7695,-7.1572,-7.0854,-7.0269,-7.0369,-6.9612,-6.9542,-7.1423,-7.1712,-7.2865,-7.6248,-7.6673,-7.7323,-7.8878,-7.9065,-7.9318,-7.9921,-8.0048,-8.0428,-8.1062,-8.1062,-8.0417,-7.9089,-8.111,-8.2715,-8.377,-8.3802,-8.3866,-8.3995,-8.7467,-8.879,-8.8082,-9.098,-9.1976,-9.1282,-9.0715,-9.0535,-9.0708,-9.1879,-9.2773,-9.3513,-9.3986,-9.5072,-9.6291,-9.5652,-9.5838,-9.6438,-9.6496,-9.5989,-9.5338,-9.5395,-9.5324,-9.5195,-9.5195,-9.5674,-9.6078,-9.5232,-9.4425,-9.4174,-9.5846,-9.5814,-9.51,-9.4353,-9.3663,-9.303,-9.2407,-9.2203,-9.2233,-9.2415,-9.2498,-9.2537,-9.2499,-9.2538,-9.1718,-8.9101,-8.8711,-8.8711,-8.8711,-8.8711,-8.9687,-9.2304,-9.2617,-9.2617,-9.2617,-9.2617,-9.2929,-9.375,-9.3789,-9.4179,-9.5078,-9.5117,-9.5508,-9.6367,-9.6484,-9.6875,-9.7617,-9.7656,-9.7695,-9.7695,-9.7695,-9.7695,-9.7695,-9.7695,-9.7695,-9.7695,-9.7695,-9.7695,-9.7695,-9.7695,-9.7695,-9.7695,-9.7695,-9.7695,-9.7695,-9.7695,-9.7695,-9.7695,-7.4148,-7.4224,-7.4445,-7.5821,-7.5836,-7.5932,-7.6681,-7.6842,-7.7295,-7.8659,-7.8878,-7.9127,-7.9742,-8.0187,-8.0601,-8.0795,-8.1964,-8.2791,-8.3085,-8.4754,-8.4774,-8.2759,-8.3995,-8.5723,-8.7891,-8.7891,-8.846,-8.9502,-9.0953,-9.1499,-9.122,-9.1903,-9.2509,-9.2896,-9.2653,-9.321,-9.4407,-9.4853,-9.5471,-9.6136,-9.58,-9.6007,-9.6509,-9.6208,-9.5966,-9.5828,-9.626,-9.5945,-9.5298,-9.5776,-9.5887,-9.5805,-9.5268,-9.5253,-9.5342,-9.465,-9.4574,-9.4751,-9.5041,-9.446,-9.3736,-9.3743,-9.3132,-9.2563,-9.2476,-9.2448,-9.2492,-9.2578,-9.2617,-9.2617,-9.2617,-9.2617,-9.1758,-8.914,-9.0078,-9.0547,-8.8945,-9.0117,-9.1484,-9.2461,-9.2617,-9.2812,-9.3359,-9.3398,-9.3789,-9.4648,-9.4726,-9.5078,-9.5976,-9.6484,-9.6914,-9.7226,-9.7226,-9.7383,-9.7695,-9.7695,-9.7695,-9.7695,-9.7695,-9.7695,-9.7695,-9.7695,-9.7695,-9.7695,-9.7695,-9.7695,-9.7695,-9.7695,-9.7695,-9.7695,-9.7695,-9.7695,-9.7695,-9.7695,-9.7695,-9.7695,-7.7598,-7.7884,-7.8292,-7.952,-7.9763,-7.9803,-7.9803,-7.9995,-8.0456,-8.1401,-8.1714,-8.2221,-8.3129,-8.3417,-8.3583,-8.3583,-8.4598,-8.5263,-8.5263,-8.7361,-8.8065,-8.6987,-8.7473,-8.8809,-9.1077,-9.1127,-9.1712,-9.2896,-9.3566,-9.3751,-9.3501,-9.3912,-9.4239,-9.4564,-9.4805,-9.5546,-9.658,-9.6548,-9.6854,-9.7243,-9.6423,-9.6261,-9.6442,-9.6177,-9.5918,-9.5678,-9.6181,-9.5992,-9.5598,-9.6136,-9.6134,-9.5863,-9.5581,-9.5175,-9.4727,-9.4305,-9.4225,-9.4168,-9.3817,-9.318,-9.2745,-9.3337,-9.2905,-9.2356,-9.2577,-9.2617,-9.2617,-9.2617,-9.2617,-9.2617,-9.2617,-9.2617,-9.1992,-9.0234,-9.1445,-9.1953,-9.0195,-9.1484,-9.2695,-9.2969,-9.3008,-9.3359,-9.4219,-9.4297,-9.4687,-9.5547,-9.5625,-9.5976,-9.6836,-9.7383,-9.7695,-9.7695,-9.7695,-9.7695,-9.7695,-9.7695,-9.7695,-9.7695,-9.7695,-9.7695,-9.7695,-9.7695,-9.7695,-9.7695,-9.7695,-9.7695,-9.7695,-9.7695,-9.7695,-9.7695,-9.7695,-9.7695,-9.7695,-9.7695,-9.7695,-9.7695,-8.2939,-8.2331,-8.1627,-8.0861,-8.0219,-7.9832,-7.9864,-8.0502,-8.2032,-8.4865,-8.5884,-8.7452,-9.0386,-8.9978,-8.9508,-8.9508,-8.8719,-8.8259,-8.8259,-8.9002,-9.0181,-9.175,-9.1821,-9.2129,-9.2908,-9.2908,-9.2908,-9.2908,-9.4965,-9.5607,-9.4891,-9.7728,-9.8203,-9.6638,-9.7343,-9.7243,-9.6498,-9.6498,-9.6498,-9.6451,-9.5649,-9.5741,-9.6309,-9.5494,-9.5678,-9.6288,-9.6288,-9.6288,-9.6288,-9.6288,-9.5729,-9.5203,-9.6241,-9.5577,-9.4405,-9.4405,-9.3198,-9.1973,-9.2144,-9.2221,-9.2412,-9.3266,-9.3025,-9.2617,-9.2617,-9.2617,-9.2617,-9.2617,-9.2617,-9.2617,-9.2617,-9.2617,-9.2617,-9.2617,-9.2617,-9.2617,-9.2617,-9.2617,-9.2929,-9.3789,-9.3906,-9.4258,-9.5117,-9.5195,-9.5586,-9.6445,-9.6523,-9.6875,-9.7656,-9.7695,-9.7695,-9.7695,-9.7695,-9.7695,-9.7695,-9.7695,-9.7695,-9.7695,-9.7695,-9.7695,-9.7695,-9.7695,-9.7695,-9.7695,-9.7695,-9.7695,-9.7695,-9.7695,-9.7695,-9.7695,-9.7695,-9.7695,-9.7695,-9.7695,-9.7695,-9.7695,-8.2077,-8.2458,-8.2883,-8.3177,-8.4366,-8.5536,-8.6079,-8.7057,-8.8092,-8.8947,-8.875,-8.8849,-8.9781,-8.9568,-8.9427,-8.9427,-9.0506,-9.1717,-9.3162,-9.3951,-9.4589,-9.5072,-9.3781,-9.3501,-9.4632,-9.5172,-9.5409,-9.5409,-9.605,-9.622,-9.5996,-9.6874,-9.7012,-9.6524,-9.6789,-9.7031,-9.7211,-9.6641,-9.6743,-9.7128,-9.6346,-9.6124,-9.6326,-9.6057,-9.6117,-9.6288,-9.6288,-9.5983,-9.5702,-9.6297,-9.6046,-9.5449,-9.5151,-9.4767,-9.4198,-9.3172,-9.2936,-9.2924,-9.2597,-9.2492,-9.2531,-9.2804,-9.2732,-9.2617,-9.2617,-9.2617,-9.2617,-9.2617,-9.2617,-9.2617,-9.2617,-9.2617,-9.2812,-9.3398,-9.3515,-9.3515,-9.3515,-9.4023,-9.4297,-9.3945,-9.4453,-9.5156,-9.6015,-9.6094,-9.6445,-9.7265,-9.7344,-9.7461,-9.7695,-9.7695,-9.7695,-9.7695,-9.7695,-9.7695,-9.7695,-9.7695,-9.7695,-9.7695,-9.7695,-9.7695,-9.7695,-9.7695,-9.7695,-9.7695,-9.7695,-9.7695,-9.7695,-9.7695,-9.7695,-9.7695,-9.7695,-9.7695,-9.7695,-9.7695,-9.7695,-9.7695,-8.5694,-8.6181,-8.6661,-8.6797,-8.7964,-8.8912,-8.9052,-8.9965,-9.0718,-9.089,-9.0792,-9.0816,-9.1367,-9.1346,-9.1302,-9.1302,-9.2385,-9.3583,-9.4815,-9.5289,-9.5546,-9.5546,-9.4676,-9.4696,-9.582,-9.6267,-9.6498,-9.6498,-9.6498,-9.6498,-9.6498,-9.6804,-9.6787,-9.6446,-9.6768,-9.6958,-9.7052,-9.6554,-9.6654,-9.7148,-9.6994,-9.6992,-9.7131,-9.7494,-9.7402,-9.7092,-9.7092,-9.6616,-9.6046,-9.6601,-9.6361,-9.5696,-9.4846,-9.4387,-9.4022,-9.3117,-9.3015,-9.3061,-9.2694,-9.2617,-9.2617,-9.2617,-9.2617,-9.2617,-9.2617,-9.2617,-9.2617,-9.2617,-9.2617,-9.2695,-9.3047,-9.2812,-9.289,-9.375,-9.3906,-9.3906,-9.3906,-9.4648,-9.5117,-9.4961,-9.539,-9.6054,-9.6875,-9.6953,-9.7187,-9.7656,-9.7695,-9.7695,-9.7695,-9.7695,-9.7695,-9.7695,-9.7695,-9.7695,-9.7695,-9.7695,-9.7695,-9.7695,-9.7695,-9.7695,-9.7695,-9.7695,-9.7695,-9.7695,-9.7695,-9.7695,-9.7695,-9.7695,-9.7695,-9.7695,-9.7695,-9.7695,-9.7695,-9.7695,-9.7695,-9.7695,-9.1491,-9.1491,-9.1279,-9.0687,-9.0672,-9.055,-8.9965,-9.0517,-9.1217,-9.1704,-9.2292,-9.3088,-9.4264,-9.4265,-9.4201,-9.4201,-9.414,-9.4098,-9.4098,-9.4076,-9.4065,-9.4065,-9.4796,-9.5605,-9.6388,-9.6457,-9.6468,-9.6468,-9.6468,-9.6505,-9.6608,-9.7298,-9.7218,-9.6654,-9.7345,-9.7246,-9.6553,-9.6512,-9.6574,-9.6798,-9.7547,-9.7957,-9.8267,-9.9093,-9.885,-9.8189,-9.8189,-9.7653,-9.6892,-9.6871,-9.6532,-9.598,-9.5009,-9.4355,-9.3867,-9.3828,-9.3203,-9.2617,-9.2617,-9.2617,-9.2617,-9.2617,-9.2617,-9.2617,-9.2617,-9.2617,-9.2617,-9.2617,-9.2656,-9.2929,-9.3633,-9.3203,-9.3008,-9.3867,-9.4023,-9.4023,-9.4101,-9.4883,-9.5703,-9.6406,-9.6562,-9.6914,-9.7617,-9.7695,-9.7695,-9.7695,-9.7695,-9.7695,-9.7695,-9.7695,-9.7695,-9.7695,-9.7695,-9.7695,-9.7695,-9.7695,-9.7695,-9.7695,-9.7695,-9.7695,-9.7695,-9.7695,-9.7695,-9.7695,-9.7695,-9.7695,-9.7695,-9.7695,-9.7695,-9.7695,-9.7695,-9.7695,-9.7695,-9.7695,-9.7695,-9.7695,-8.9002,-8.9002,-8.9144,-8.9604,-9.0514,-9.148,-9.2467,-9.3639,-9.4612,-9.5251,-9.4965,-9.4765,-9.5022,-9.4516,-9.4113,-9.4113,-9.4009,-9.3949,-9.3949,-9.3867,-9.381,-9.381,-9.4793,-9.5438,-9.5632,-9.6098,-9.6358,-9.6358,-9.6358,-9.6664,-9.7277,-9.7439,-9.7806,-9.8307,-9.8681,-9.8717,-9.8539,-9.8052,-9.7892,-9.7906,-9.7401,-9.7237,-9.7284,-9.7479,-9.744,-9.7284,-9.7284,-9.685,-9.6207,-9.5745,-9.5965,-9.6128,-9.4606,-9.4022,-9.3789,-9.3086,-9.2734,-9.2617,-9.2617,-9.2617,-9.2617,-9.2617,-9.2617,-9.2617,-9.2617,-9.2617,-9.2617,-9.2617,-9.3125,-9.3476,-9.2969,-9.3281,-9.3906,-9.4765,-9.4922,-9.5156,-9.5859,-9.664,-9.6992,-9.6562,-9.707,-9.75,-9.7695,-9.7695,-9.7695,-9.7695,-9.7695,-9.7695,-9.7695,-9.7695,-9.7695,-9.7695,-9.7695,-9.7695,-9.7695,-9.7695,-9.7695,-9.7695,-9.7695,-9.7695,-9.7695,-9.7695,-9.7695,-9.7695,-9.7695,-9.7695,-9.7695,-9.7695,-9.7695,-9.7695,-9.7695,-9.7695,-9.7695,-9.7695,-9.7695,-9.7695,-9.1512,-9.1627,-9.1892,-9.2644,-9.3307,-9.3877,-9.428,-9.4915,-9.5345,-9.5338,-9.498,-9.4593,-9.415,-9.4057,-9.4206,-9.4679,-9.4676,-9.4803,-9.5335,-9.5298,-9.5258,-9.5258,-9.5854,-9.6171,-9.6171,-9.6462,-9.6638,-9.6638,-9.6638,-9.687,-9.7257,-9.7257,-9.7489,-9.7954,-9.8078,-9.8151,-9.8124,-9.781,-9.7744,-9.7876,-9.7837,-9.7883,-9.7983,-9.8417,-9.8339,-9.7944,-9.7944,-9.7241,-9.619,-9.5467,-9.5234,-9.5117,-9.4179,-9.3594,-9.3203,-9.2734,-9.2617,-9.2617,-9.2617,-9.2617,-9.2617,-9.2617,-9.2617,-9.2617,-9.2617,-9.2929,-9.3203,-9.3203,-9.3594,-9.4023,-9.4375,-9.414,-9.4336,-9.5625,-9.582,-9.5976,-9.6445,-9.7187,-9.7539,-9.7109,-9.7422,-9.7695,-9.7695,-9.7695,-9.7695,-9.7695,-9.7695,-9.7695,-9.7695,-9.7695,-9.7695,-9.7695,-9.7695,-9.7695,-9.7695,-9.7695,-9.7695,-9.7695,-9.7695,-9.7695,-9.7695,-9.7695,-9.7695,-9.7695,-9.7695,-9.7695,-9.7695,-9.7695,-9.7695,-9.7695,-9.7695,-9.7695,-9.7695,-9.7695,-9.7695,-9.7695,-9.4952,-9.5193,-9.5377,-9.5969,-9.6083,-9.5913,-9.5372,-9.5286,-9.5037,-9.4337,-9.4249,-9.3984,-9.3238,-9.39,-9.4696,-9.5583,-9.5519,-9.5837,-9.673,-9.6662,-9.6584,-9.6584,-9.6745,-9.684,-9.684,-9.7029,-9.7091,-9.7012,-9.7012,-9.709,-9.7207,-9.7207,-9.7284,-9.744,-9.7485,-9.7502,-9.7502,-9.7387,-9.7454,-9.771,-9.8299,-9.8611,-9.8867,-9.957,-9.9336,-9.8554,-9.8554,-9.7578,-9.6133,-9.5273,-9.4492,-9.3867,-9.3711,-9.3164,-9.2617,-9.2617,-9.2617,-9.2617,-9.2617,-9.2617,-9.2617,-9.2617,-9.2695,-9.2812,-9.2812,-9.3398,-9.3906,-9.3906,-9.414,-9.4687,-9.5859,-9.5117,-9.4804,-9.6289,-9.6484,-9.6562,-9.6679,-9.7265,-9.7695,-9.7695,-9.7695,-9.7695,-9.7695,-9.7695,-9.7695,-9.7695,-9.7695,-9.7695,-9.7695,-9.7695,-9.7695,-9.7695,-9.7695,-9.7695,-9.7695,-9.7695,-9.7695,-9.7695,-9.7695,-9.7695,-9.7695,-9.7695,-9.7695,-9.7695,-9.7695,-9.7695,-9.7695,-9.7695,-9.7695,-9.7695,-9.7695,-9.7695,-9.7695,-9.7695,-9.7695,-9.7695,-9.4236,-9.4274,-9.433,-9.4414,-9.4442,-9.4621,-9.5129,-9.5201,-9.5143,-9.4905,-9.4907,-9.483,-9.4715,-9.5593,-9.6383,-9.674,-9.6109,-9.5739,-9.5884,-9.524,-9.4851,-9.4851,-9.5719,-9.6217,-9.6217,-9.712,-9.7394,-9.7012,-9.7012,-9.7401,-9.8131,-9.8131,-9.8481,-9.9182,-9.9417,-9.9523,-9.945,-9.8958,-9.8745,-9.8748,-9.8084,-9.7851,-9.789,-9.8008,-9.7539,-9.6836,-9.6836,-9.6211,-9.5234,-9.4375,-9.3984,-9.3789,-9.3008,-9.2695,-9.2617,-9.2617,-9.2617,-9.2617,-9.2617,-9.2617,-9.2617,-9.2617,-9.3164,-9.3711,-9.3711,-9.3828,-9.3906,-9.3906,-9.5117,-9.5742,-9.4492,-9.5273,-9.6211,-9.6445,-9.6484,-9.6758,-9.7422,-9.7617,-9.7695,-9.7695,-9.7695,-9.7695,-9.7695,-9.7695,-9.7695,-9.7695,-9.7695,-9.7695,-9.7695,-9.7695,-9.7695,-9.7695,-9.7695,-9.7695,-9.7695,-9.7695,-9.7695,-9.7695,-9.7695,-9.7695,-9.7695,-9.7695,-9.7695,-9.7695,-9.7695,-9.7695,-9.7695,-9.7695,-9.7695,-9.7695,-9.7695,-9.7695,-9.7695,-9.7695,-9.7695,-9.7695,-9.463,-9.43,-9.412,-9.451,-9.4195,-9.3994,-9.4285,-9.4786,-9.5099,-9.5191,-9.5602,-9.5756,-9.5441,-9.5398,-9.571,-9.644,-9.6148,-9.6185,-9.6761,-9.6496,-9.6301,-9.6301,-9.6727,-9.6975,-9.6975,-9.7459,-9.7609,-9.739,-9.739,-9.7581,-9.7971,-9.7971,-9.8166,-9.8518,-9.8638,-9.8653,-9.8653,-9.8397,-9.8281,-9.8242,-9.7851,-9.7422,-9.7031,-9.7031,-9.6523,-9.5703,-9.5234,-9.4804,-9.4336,-9.3476,-9.3164,-9.3125,-9.2734,-9.2617,-9.2617,-9.2617,-9.2617,-9.2617,-9.2617,-9.2617,-9.2734,-9.3203,-9.3633,-9.4258,-9.5703,-9.5664,-9.5351,-9.5351,-9.5976,-9.6562,-9.6719,-9.6992,-9.75,-9.8476,-9.8633,-9.8594,-9.8437,-9.8437,-9.8242,-9.7773,-9.7695,-9.7695,-9.7695,-9.7695,-9.7695,-9.7695,-9.7695,-9.7695,-9.7695,-9.7695,-9.7695,-9.7695,-9.7695,-9.7695,-9.7695,-9.7695,-9.7695,-9.7695,-9.7695,-9.7695,-9.7695,-9.7695,-9.7695,-9.7695,-9.7695,-9.7695,-9.7695,-9.7695,-9.7695,-9.7695,-9.7695,-9.7695,-9.7695,-9.7695,-9.7695,-9.7695]},{"header":{"parameterUnit":"m.s-1","parameterCategory":1,"la1":30.6,"la2":28.766,"lo1":-90.7593,"lo2":-88.6598,"dx":0.0162,"dy":0.0183,"nx":116,"ny":114,"refTime":"2023-01-16T18:00:00:Z","depth":0,"parameterNumber":3,"parameterNumberName":"V-component_of_WINDS"},"data":[0.0,0.0,0.0,0.0,0.0,0.0,0.0,0.0,0.0,0.0,0.0,0.0,0.0,0.0,0.0,0.0,0.0,0.0,0.0,0.0,0.0,0.0,0.0,0.0,0.0,0.0,0.0,0.0,0.0,0.0,0.0,0.0,0.0,0.0,0.0,0.0,0.0,0.0,0.0,0.0,0.0,0.0,0.0,0.0,0.0,0.0,0.0,0.0,0.0,0.0,0.0,0.0,0.0,0.0,0.0,0.0,0.0,0.0,0.0,0.0,0.0,0.0,0.0,0.0,0.0,0.0,0.0,0.0,0.0,0.0,0.0,0.0,0.0,0.0,0.0,0.0,0.0,0.0,0.0,0.0,0.0,0.0,0.0,0.0,0.0,0.0,0.0,0.0,0.0,0.0,0.0,0.0,0.0,0.0,0.0,0.0,0.0,0.0,0.0,0.0,0.0,0.0,0.0,0.0,0.0,0.0,0.0,0.0,0.0,0.0,0.0,0.0,0.0,0.0,0.0,0.0,0.0,0.0,0.0,0.0,0.0,0.0,0.0,0.0,0.0,0.0,0.0,0.0,0.0,0.0,0.0,0.0,0.0,0.0,0.0,0.0,0.0,0.0,0.0,0.0,0.0,0.0,0.0,0.0,0.0,0.0,0.0,0.0,0.0,0.0,0.0,0.0,0.0,0.0,0.0,0.0,0.0,0.0,0.0,0.0,0.0,0.0,0.0,0.0,0.0,0.0,0.0,0.0,0.0,0.0,0.0,0.0,0.0,0.0,0.0,0.0,0.0,0.0,0.0,0.0,0.0,0.0,0.0,0.0,0.0,0.0,0.0,0.0,0.0,0.0,0.0,0.0,0.0,0.0,0.0,0.0,0.0,0.0,0.0,0.0,0.0,0.0,0.0,0.0,0.0,0.0,0.0,0.0,0.0,0.0,0.0,0.0,0.0,0.0,0.0,0.0,0.0,0.0,0.0,0.0,0.0,0.0,0.0,0.0,0.0,0.0,0.0,0.0,0.0,0.0,0.0,0.0,0.0,0.0,0.0,0.0,0.0,0.0,0.0,0.0,0.0,0.0,0.0,0.0,0.0,0.0,0.0,0.0,0.0,0.0,0.0,0.0,0.0,0.0,0.0,0.0,0.0,0.0,0.0,0.0,0.0,0.0,0.0,0.0,0.0,0.0,0.0,0.0,0.0,0.0,0.0,0.0,0.0,0.0,0.0,0.0,0.0,0.0,0.0,0.0,0.0,0.0,0.0,0.0,0.0,0.0,0.0,0.0,0.0,0.0,0.0,0.0,0.0,0.0,0.0,0.0,0.0,0.0,0.0,0.0,0.0,0.0,0.0,0.0,0.0,0.0,0.0,0.0,0.0,0.0,0.0,0.0,0.0,0.0,0.0,0.0,0.0,0.0,0.0,0.0,0.0,0.0,0.0,0.0,0.0,0.0,0.0,0.0,0.0,0.0,0.0,0.0,0.0,0.0,0.0,0.0,0.0,0.0,0.0,0.0,0.0,0.0,0.0,0.0,0.0,0.0,0.0,0.0,0.0,0.0,0.0,0.0,0.0,0.0,0.0,0.0,0.0,0.0,0.0,0.0,0.0,0.0,0.0,0.0,0.0,0.0,0.0,0.0,0.0,0.0,0.0,0.0,0.0,0.0,0.0,0.0,0.0,0.0,0.0,0.0,0.0,0.0,0.0,0.0,0.0,0.0,0.0,0.0,0.0,0.0,0.0,0.0,0.0,0.0,0.0,0.0,0.0,0.0,0.0,0.0,0.0,0.0,0.0,0.0,0.0,0.0,0.0,0.0,0.0,0.0,0.0,0.0,0.0,0.0,0.0,0.0,0.0,0.0,0.0,0.0,0.0,0.0,0.0,0.0,0.0,0.0,0.0,0.0,0.0,0.0,0.0,0.0,0.0,0.0,0.0,0.0,0.0,0.0,0.0,0.0,0.0,0.0,0.0,0.0,0.0,0.0,0.0,0.0,0.0,0.0,0.0,0.0,0.0,0.0,0.0,0.0,0.0,0.0,0.0,0.0,0.0,0.0,0.0,0.0,0.0,0.0,0.0,0.0,0.0,0.0,0.0,0.0,0.0,0.0,0.0,0.0,0.0,0.0,0.0,0.0,0.0,0.0,0.0,0.0,0.0,0.0,0.0,0.0,0.0,0.0,0.0,0.0,0.0,0.0,0.0,0.0,0.0,0.0,0.0,0.0,0.0,0.0,0.0,0.0,0.0,0.0,0.0,0.0,0.0,0.0,0.0,0.0,0.0,0.0,0.0,0.0,0.0,0.0,0.0,0.0,0.0,0.0,0.0,0.0,0.0,0.0,0.0,0.0,0.0,0.0,0.0,0.0,0.0,0.0,0.0,0.0,0.0,0.0,0.0,0.0,0.0,0.0,0.0,0.0,0.0,0.0,0.0,0.0,0.0,0.0,0.0,0.0,0.0,0.0,0.0,0.0,0.0,0.0,0.0,0.0,0.0,0.0,0.0,0.0,0.0,0.0,0.0,0.0,0.0,0.0,0.0,0.0,0.0,0.0,0.0,0.0,0.0,0.0,0.0,0.0,0.0,0.0,0.0,0.0,0.0,0.0,0.0,0.0,0.0,0.0,0.0,0.0,0.0,0.0,0.0,0.0,0.0,0.0,0.0,0.0,0.0,0.0,0.0,0.0,0.0,0.0,0.0,0.0,0.0,0.0,0.0,0.0,0.0,0.0,0.0,0.0,0.0,0.0,0.0,0.0,0.0,0.0,0.0,0.0,0.0,0.0,0.0,0.0,0.0,0.0,0.0,0.0,0.0,0.0,0.0,0.0,0.0,0.0,0.0,0.0,0.0,0.0,0.0,0.0,0.0,0.0,0.0,0.0,0.0,0.0,0.0,0.0,0.0,0.0,0.0,0.0,0.0,0.0,0.0,0.0,0.0,0.0,0.0,0.0,0.0,0.0,0.0,0.0,0.0,0.0,0.0,0.0,0.0,0.0,0.0,0.0,0.0,0.0,0.0,0.0,0.0,0.0,0.0,0.0,0.0,0.0,0.0,0.0,0.0,0.0,0.0,0.0,0.0,0.0,0.0,0.0,0.0,0.0,0.0,0.0,0.0,0.0,0.0,0.0,0.0,0.0,0.0,0.0,0.0,0.0,0.0,0.0,0.0,0.0,0.0,0.0,0.0,0.0,0.0,0.0,0.0,0.0,0.0,0.0,0.0,0.0,0.0,0.0,0.0,0.0,0.0,0.0,0.0,0.0,0.0,0.0,0.0,0.0,0.0,0.0,0.0,0.0,0.0,0.0,0.0,0.0,0.0,0.0,0.0,0.0,0.0,0.0,0.0,0.0,0.0,0.0,0.0,0.0,0.0,0.0,0.0,0.0,0.0,0.0,0.0,0.0,0.0,0.0,0.0,0.0,0.0,0.0,0.0,0.0,0.0,0.0,0.0,0.0,0.0,0.0,0.0,0.0,0.0,0.0,0.0,0.0,0.0,0.0,0.0,0.0,0.0,0.0,0.0,0.0,0.0,0.0,0.0,0.0,0.0,0.0,0.0,0.0,0.0,0.0,0.0,0.0,0.0,0.0,0.0,0.0,0.0,0.0,0.0,0.0,0.0,0.0,0.0,0.0,0.0,0.0,0.0,0.0,0.0,0.0,0.0,0.0,0.0,0.0,0.0,0.0,0.0,0.0,0.0,0.0,0.0,0.0,0.0,0.0,0.0,0.0,0.0,0.0,0.0,0.0,0.0,0.0,0.0,0.0,0.0,0.0,0.0,0.0,0.0,0.0,0.0,0.0,0.0,0.0,0.0,0.0,0.0,0.0,0.0,0.0,0.0,0.0,0.0,0.0,0.0,0.0,0.0,0.0,0.0,0.0,0.0,0.0,0.0,0.0,0.0,0.0,0.0,0.0,0.0,0.0,0.0,0.0,0.0,0.0,0.0,0.0,0.0,0.0,0.0,0.0,0.0,0.0,0.0,0.0,0.0,0.0,0.0,0.0,0.0,0.0,0.0,0.0,0.0,0.0,0.0,0.0,0.0,0.0,0.0,0.0,0.0,0.0,0.0,0.0,0.0,0.0,0.0,0.0,0.0,0.0,0.0,0.0,0.0,0.0,0.0,0.0,0.0,0.0,0.0,0.0,0.0,0.0,0.0,0.0,0.0,0.0,0.0,0.0,0.0,0.0,0.0,0.0,0.0,0.0,0.0,0.0,0.0,0.0,0.0,0.0,0.0,0.0,0.0,0.0,0.0,0.0,0.0,0.0,0.0,0.0,0.0,0.0,0.0,0.0,0.0,0.0,0.0,0.0,0.0,0.0,0.0,0.0,0.0,0.0,0.0,0.0,0.0,0.0,0.0,0.0,0.0,0.0,0.0,0.0,0.0,0.0,0.0,0.0,0.0,0.0,0.0,0.0,0.0,0.0,0.0,0.0,0.0,0.0,0.0,0.0,0.0,0.0,0.0,0.0,0.0,0.0,0.0,0.0,0.0,0.0,0.0,0.0,0.0,0.0,0.0,0.0,0.0,0.0,0.0,0.0,0.0,0.0,0.0,0.0,0.0,0.0,0.0,0.0,0.0,0.0,0.0,0.0,0.0,0.0,0.0,0.0,0.0,0.0,0.0,0.0,0.0,0.0,0.0,0.0,0.0,0.0,0.0,0.0,0.0,0.0,0.0,0.0,0.0,0.0,0.0,0.0,0.0,0.0,0.0,0.0,0.0,0.0,0.0,0.0,0.0,0.0,0.0,0.0,0.0,0.0,0.0,0.0,0.0,0.0,0.0,0.0,0.0,0.0,0.0,0.0,0.0,0.0,0.0,0.0,0.0,0.0,0.0,0.0,0.0,0.0,0.0,0.0,0.0,0.0,0.0,0.0,0.0,0.0,0.0,0.0,0.0,0.0,0.0,0.0,0.0,0.0,0.0,0.0,0.0,0.0,0.0,0.0,0.0,0.0,0.0,0.0,0.0,0.0,0.0,0.0,0.0,0.0,0.0,0.0,0.0,0.0,0.0,0.0,0.0,0.0,0.0,0.0,0.0,0.0,0.0,0.0,0.0,0.0,0.0,0.0,0.0,0.0,0.0,0.0,0.0,0.0,0.0,0.0,0.0,0.0,0.0,0.0,0.0,0.0,0.0,0.0,0.0,0.0,0.0,0.0,0.0,0.0,0.0,0.0,0.0,0.0,0.0,0.0,0.0,0.0,0.0,0.0,0.0,0.0,0.0,0.0,0.0,0.0,0.0,0.0,0.0,0.0,0.0,0.0,0.0,0.0,0.0,0.0,0.0,0.0,0.0,0.0,0.0,0.0,0.0,0.0,0.0,0.0,0.0,0.0,0.0,0.0,0.0,0.0,0.0,0.0,0.0,0.0,0.0,0.0,0.0,0.0,0.0,0.0,0.0,0.0,0.0,0.0,0.0,0.0,0.0,0.0,0.0,0.0,0.0,0.0,0.0,0.0,0.0,0.0,0.0,0.0,0.0,0.0,0.0,0.0,0.0,0.0,0.0,0.0,0.0,0.0,0.0,0.0,0.0,0.0,0.0,0.0,0.0,0.0,0.0,0.0,0.0,0.0,0.0,0.0,0.0,0.0,0.0,0.0,0.0,0.0,0.0,0.0,0.0,0.0,0.0,0.0,0.0,0.0,0.0,0.0,0.0,0.0,0.0,0.0,0.0,0.0,0.0,0.0,0.0,0.0,0.0,0.0,0.0,0.0,0.0,0.0,0.0,0.0,0.0,0.0,0.0,0.0,0.0,0.0,0.0,0.0,0.0,0.0,0.0,0.0,0.0,0.0,0.0,0.0,0.0,0.0,0.0,0.0,0.0,0.0,0.0,0.0,0.0,0.0,0.0,0.0,0.0,0.0,0.0,0.0,0.0,0.0,0.0,0.0,0.0,0.0,0.0,0.0,0.0,0.0,0.0,0.0,0.0,0.0,0.0,0.0,0.0,0.0,0.0,0.0,0.0,0.0,0.0,0.0,0.0,0.0,0.0,0.0,0.0,0.0,0.0,0.0,0.0,0.0,0.0,0.0,0.0,0.0,0.0,0.0,0.0,0.0,0.0,0.0,0.0,0.0,0.0,0.0,0.0,0.0,0.0,0.0,0.0,0.0,4.1366,3.8074,0.0,0.0,0.0,0.0,0.0,0.0,0.0,0.0,0.0,0.0,0.0,0.0,0.0,0.0,0.0,0.0,0.0,0.0,0.0,0.0,0.0,0.0,0.0,0.0,0.0,0.0,0.0,0.0,0.0,0.0,0.0,0.0,0.0,0.0,0.0,0.0,0.0,0.0,2.4458,2.6454,2.818,2.7402,2.5523,2.2747,0.0,0.0,0.0,0.0,0.0,0.0,0.0,0.0,0.0,0.0,0.0,0.0,0.0,0.0,0.0,0.0,0.0,0.0,0.0,0.0,0.0,0.0,0.0,0.0,0.0,0.0,0.0,0.0,0.0,0.0,0.0,0.0,0.0,0.0,0.0,0.0,0.0,0.0,0.0,0.0,0.0,0.0,0.0,0.0,0.0,0.0,0.0,0.0,0.0,0.0,0.0,0.0,0.0,0.0,0.0,0.0,0.0,0.0,0.0,0.0,0.0,0.0,0.0,0.0,0.0,0.0,0.0,0.0,0.0,0.0,4.8012,4.4636,0.0,0.0,0.0,0.0,0.0,0.0,0.0,0.0,0.0,0.0,0.0,0.0,0.0,0.0,0.0,0.0,0.0,0.0,0.0,0.0,0.0,0.0,0.0,0.0,0.0,0.0,0.0,0.0,0.0,0.0,0.0,0.0,0.0,0.0,0.0,0.0,0.0,0.0,2.8468,3.1616,3.3998,3.4134,3.1562,2.6776,2.5659,0.0,0.0,0.0,0.0,0.0,0.0,0.0,0.0,0.0,0.0,0.0,0.0,0.0,0.0,0.0,0.0,0.0,0.0,0.0,0.0,0.0,0.0,0.0,0.0,0.0,0.0,0.0,0.0,0.0,0.0,0.0,0.0,0.0,0.0,0.0,0.0,0.0,0.0,0.0,0.0,0.0,0.0,0.0,0.0,0.0,0.0,0.0,0.0,0.0,0.0,0.0,0.0,0.0,0.0,0.0,0.0,0.0,0.0,0.0,0.0,0.0,0.0,0.0,5.42,5.5039,5.5718,5.6447,5.6968,5.7125,5.5712,5.2793,4.89,4.7597,0.0,0.0,0.0,0.0,0.0,0.0,0.0,0.0,0.0,0.0,0.0,0.0,0.0,0.0,0.0,0.0,0.0,0.0,0.0,0.0,0.0,2.3241,2.3511,2.4135,2.4203,2.4203,0.0,0.0,0.0,0.0,0.0,0.0,0.0,2.4305,2.5963,2.9228,3.3613,3.5983,3.6389,3.7009,3.6907,3.6028,3.3288,3.0649,2.8197,0.0,0.0,0.0,0.0,0.0,0.0,0.0,0.0,0.0,0.0,0.0,0.0,0.0,0.0,0.0,0.0,0.0,0.0,0.0,0.0,0.0,0.0,0.0,0.0,0.0,0.0,0.0,0.0,0.0,0.0,0.0,0.0,0.0,0.0,0.0,0.0,0.0,0.0,0.0,0.0,0.0,3.9407,3.6773,0.0,0.0,0.0,0.0,0.0,0.0,0.0,0.0,0.0,0.0,0.0,0.0,0.0,5.1756,5.3261,5.375,5.4417,5.5227,5.8113,5.9536,5.9766,6.3511,6.5219,6.5312,6.5986,0.0,5.3938,5.0162,0.0,0.0,0.0,0.0,0.0,0.0,0.0,0.0,0.0,0.0,0.0,0.0,0.0,0.0,0.0,0.0,0.0,0.0,0.0,0.0,0.0,2.527,2.6674,2.7013,2.857,2.8789,2.7148,0.0,0.0,0.0,0.0,0.0,2.5726,2.8148,3.2298,3.8131,4.0147,4.199,4.3615,4.4371,4.4749,4.4706,4.3388,3.9039,3.2544,3.0123,0.0,0.0,0.0,0.0,0.0,0.0,0.0,0.0,0.0,0.0,0.0,0.0,0.0,0.0,0.0,0.0,0.0,0.0,0.0,0.0,0.0,0.0,0.0,0.0,0.0,0.0,0.0,0.0,0.0,0.0,0.0,0.0,0.0,0.0,0.0,0.0,0.0,0.0,0.0,3.7551,3.957,3.7713,4.0136,4.0981,0.0,0.0,0.0,0.0,0.0,0.0,0.0,0.0,0.0,5.1169,5.4803,5.7042,5.7776,6.0673,6.2276,6.265,6.5124,6.6292,6.6348,6.8236,6.9088,6.9142,6.9606,6.7601,6.3654,5.8744,5.5423,5.3205,0.0,0.0,0.0,0.0,5.0365,5.0409,0.0,0.0,0.0,0.0,0.0,0.0,0.0,0.0,0.0,0.0,0.0,0.0,2.5101,2.8281,3.0567,3.0973,3.2983,3.3085,3.033,3.0127,0.0,0.0,0.0,2.6826,2.7537,3.2866,3.8593,4.473,4.5939,4.7646,4.9819,5.0402,5.0793,5.0949,5.0955,4.6207,3.7932,3.4809,3.2494,3.063,0.0,0.0,0.0,0.0,0.0,0.0,0.0,0.0,0.0,0.0,0.0,0.0,0.0,0.0,0.0,0.0,0.0,0.0,0.0,0.0,0.0,0.0,0.0,0.0,0.0,0.0,0.0,0.0,0.0,0.0,0.0,0.0,0.0,0.0,0.0,0.0,0.0,3.957,4.1662,3.9585,4.2927,4.4415,0.0,0.0,0.0,0.0,0.0,0.0,4.9204,5.306,5.5613,5.6445,6.033,6.2581,6.2988,6.6817,6.8824,6.9071,7.0455,7.1145,7.1145,7.152,7.1679,7.1679,7.2049,7.2091,7.1423,6.589,6.2049,5.9529,5.8424,5.7932,5.7885,5.7962,5.7992,5.7999,0.0,0.0,0.0,0.0,0.0,0.0,0.0,0.0,0.0,0.0,0.0,2.901,2.9702,3.2442,3.4832,3.6288,3.6558,3.5644,3.3322,3.3186,3.1867,2.8976,2.884,2.9179,2.9905,3.7772,4.3093,4.5614,4.9913,5.2096,5.2206,5.224,5.2647,5.3335,5.3326,5.0282,4.4974,4.3344,4.0197,3.5968,3.2231,0.0,0.0,0.0,0.0,0.0,0.0,0.0,0.0,0.0,0.0,0.0,0.0,0.0,0.0,0.0,0.0,0.0,0.0,0.0,0.0,0.0,0.0,0.0,0.0,0.0,0.0,0.0,0.0,0.0,0.0,0.0,0.0,0.0,0.0,0.0,0.0,0.0,0.0,4.5002,4.7939,0.0,0.0,0.0,0.0,5.3371,5.3885,5.4326,5.5155,5.8762,6.1197,6.2097,6.5813,6.854,7.0067,7.0355,7.0846,7.1639,7.1718,7.1759,7.1817,7.3134,7.375,7.3806,7.5173,7.5284,7.4053,6.8154,6.5433,6.4579,6.1378,5.9945,5.9732,6.0041,6.0141,6.0067,0.0,0.0,0.0,0.0,0.0,0.0,0.0,0.0,0.0,2.341,2.7063,2.9973,3.0717,3.5588,3.9428,4.0927,4.2398,4.2286,3.9985,3.8035,3.5893,3.3355,3.1887,3.3696,3.9265,4.4585,4.9146,5.2866,5.4509,5.5552,5.6078,5.6605,5.6992,5.7227,5.7174,5.5825,5.3217,4.777,4.4276,4.2051,3.7787,3.4323,0.0,0.0,0.0,0.0,0.0,0.0,0.0,0.0,0.0,0.0,0.0,0.0,0.0,0.0,0.0,0.0,0.0,0.0,0.0,0.0,0.0,0.0,0.0,0.0,0.0,0.0,0.0,0.0,0.0,0.0,0.0,0.0,0.0,0.0,0.0,0.0,0.0,4.9517,5.2527,0.0,5.1977,5.1793,5.2747,5.4987,5.7556,5.9134,5.9428,6.3726,6.6309,6.6604,6.842,6.9954,7.103,7.196,7.2824,7.3648,7.4922,7.5531,7.5551,7.6463,7.6853,7.6907,7.7393,7.7438,7.6976,7.4861,7.2664,7.0451,6.926,6.8704,6.8646,6.8733,6.88,6.8775,0.0,0.0,0.0,0.0,0.0,0.0,0.0,0.0,0.0,2.5507,2.9567,3.2916,3.4404,3.9681,4.3586,4.4836,4.6527,4.6136,4.2865,4.1209,3.8945,3.5681,3.5862,3.9427,4.6667,5.0019,5.3539,5.7277,5.7557,5.7985,5.8527,5.9059,5.9444,5.9677,5.9603,5.9318,5.8464,5.3166,4.9883,4.7868,4.3548,3.9401,3.5556,0.0,0.0,0.0,0.0,0.0,0.0,0.0,0.0,0.0,0.0,0.0,0.0,0.0,0.0,0.0,0.0,0.0,0.0,0.0,0.0,0.0,0.0,0.0,0.0,0.0,0.0,0.0,0.0,0.0,0.0,0.0,0.0,0.0,0.0,4.8893,5.216,5.2747,5.5647,5.7299,5.6492,5.6675,5.7706,5.9797,6.2677,6.4546,6.5004,6.8371,7.0423,7.0708,7.1498,7.2381,7.3417,7.4342,7.5208,7.5938,7.7265,7.7882,7.7938,7.8622,7.8938,7.8938,7.9246,7.9208,7.8938,7.8938,7.7476,7.5207,7.5207,7.5207,7.5207,7.5207,7.5207,7.5168,0.0,0.0,0.0,0.0,0.0,0.0,0.0,2.4034,2.5862,2.96,3.3998,3.7946,4.0899,4.4587,4.7124,4.7932,4.8643,4.6912,4.1798,4.2542,4.0966,3.5884,4.0825,4.6119,5.1383,5.3784,5.6052,5.8307,5.9014,5.9374,5.941,5.941,5.9786,6.0493,6.0493,6.0456,6.0382,5.9588,5.7107,5.3289,4.9567,4.5292,4.0597,0.0,0.0,0.0,0.0,0.0,0.0,0.0,0.0,0.0,0.0,0.0,0.0,0.0,0.0,0.0,0.0,0.0,0.0,0.0,0.0,0.0,0.0,0.0,0.0,0.0,0.0,0.0,0.0,0.0,0.0,0.0,0.0,0.0,4.7537,5.2915,5.6367,5.4957,5.7519,5.9758,6.0553,6.1385,6.3737,6.826,6.9425,7.0503,7.1786,7.2671,7.3517,7.4331,7.5057,7.6149,7.7589,7.7646,7.7962,7.8562,7.8615,7.8615,7.8615,7.9462,7.9862,7.99,8.0746,8.0631,7.9862,7.9862,7.9323,7.8569,7.853,7.8477,7.8477,7.8477,7.8477,7.84,0.0,0.0,0.0,0.0,0.0,0.0,0.0,2.4034,2.5862,2.96,3.3998,3.8149,4.161,4.5365,4.8345,5.014,5.0504,4.9768,4.7587,4.6263,4.4482,4.2044,4.8174,5.234,5.3833,5.7134,5.9432,6.0664,6.0843,6.1272,6.1857,6.1857,6.1933,6.2144,6.2144,6.1814,6.1263,6.1043,6.0017,5.8225,5.5454,5.1595,4.7268,0.0,0.0,0.0,0.0,0.0,0.0,0.0,0.0,0.0,0.0,0.0,0.0,0.0,0.0,0.0,0.0,0.0,0.0,0.0,0.0,0.0,0.0,0.0,0.0,0.0,0.0,0.0,0.0,0.0,0.0,0.0,5.2469,5.6425,5.5693,5.7604,6.0072,6.2599,6.3861,6.4954,6.6155,6.7057,6.8469,7.0723,7.2234,7.3204,7.3581,7.4978,7.5884,7.6111,7.6315,7.6872,7.7857,7.8523,7.9215,7.9971,8.1022,8.1212,8.0618,8.1294,8.1285,8.0746,8.1016,8.0977,8.0746,8.0746,8.0592,8.0246,7.8977,7.8477,7.8477,7.8477,7.8477,7.8492,0.0,0.0,0.0,0.0,0.0,0.0,0.0,2.4626,2.6941,3.1785,3.5488,3.9324,4.3728,4.6941,4.9438,5.1078,5.0622,4.9722,4.8508,4.7191,4.7232,4.9003,5.3631,5.6598,5.7619,6.0115,6.163,6.2108,6.2108,6.2365,6.278,6.278,6.278,6.278,6.278,6.2548,6.2108,6.2108,6.163,6.0786,5.9391,5.5843,5.1222,4.9638,4.6771,4.324,4.0804,3.9614,3.8711,3.5504,0.0,0.0,0.0,0.0,0.0,0.0,0.0,0.0,0.0,0.0,0.0,0.0,0.0,0.0,0.0,0.0,0.0,0.0,0.0,0.0,0.0,0.0,0.0,0.0,5.6391,6.1331,6.3312,6.318,6.4016,6.7107,6.762,6.8274,6.9746,7.0991,7.21,7.3153,7.4766,7.5814,7.6065,7.7088,7.7686,7.7686,7.8132,7.8677,7.941,8.0304,8.1115,8.1817,8.2664,8.2832,8.2335,8.2326,8.2054,8.1593,8.1246,8.1093,8.1093,8.1093,8.1093,8.1016,0.0,0.0,0.0,0.0,7.9592,7.9592,0.0,0.0,0.0,0.0,0.0,0.0,0.0,2.5532,2.8508,3.4953,3.7594,4.0977,4.6442,4.8804,5.0379,5.1338,4.9825,4.8338,4.7215,4.7392,5.0044,5.5647,5.7593,5.9538,6.1704,6.2438,6.278,6.278,6.278,6.278,6.278,6.278,6.278,6.278,6.278,6.278,6.278,6.278,6.2401,6.1741,6.163,5.8547,5.3827,5.2234,4.9574,4.6501,4.4808,4.357,4.2437,4.0653,0.0,0.0,0.0,0.0,0.0,0.0,0.0,0.0,0.0,0.0,0.0,0.0,0.0,0.0,0.0,0.0,0.0,0.0,0.0,0.0,0.0,0.0,0.0,0.0,5.9343,6.432,6.954,6.8765,6.8168,6.9566,6.9884,7.0526,7.2023,7.3687,7.4935,7.5524,7.7031,7.8126,7.8615,7.8947,0.0,0.0,0.0,8.1013,8.1633,8.2531,8.3197,8.3747,8.3824,8.3862,8.3862,8.3093,8.2747,8.267,8.1977,8.167,8.167,8.167,8.1593,8.1516,8.1208,8.1093,8.1093,8.1093,8.1093,8.1093,0.0,0.0,0.0,0.0,0.0,0.0,0.0,2.5833,2.878,3.6011,3.8079,4.1337,4.779,4.9394,5.0558,5.1973,5.0612,5.0015,5.0888,5.3324,5.5595,5.7446,6.0309,6.2108,6.2585,6.2707,6.278,6.278,6.278,6.278,6.278,6.278,6.278,6.278,6.278,6.278,6.278,6.278,6.2732,6.2511,6.1851,6.0566,5.8841,5.7226,5.6153,5.5271,5.3093,5.2209,5.1502,4.8224,4.6176,4.4491,4.1519,3.7813,0.0,0.0,0.0,0.0,0.0,0.0,0.0,0.0,0.0,0.0,0.0,0.0,0.0,0.0,0.0,0.0,0.0,0.0,0.0,5.5978,6.3154,6.9053,7.0527,7.1626,7.2148,7.2008,7.279,7.3656,7.4466,7.6065,7.728,7.7799,7.883,7.9438,7.9554,8.0245,8.0965,8.1634,8.1858,8.2357,8.3171,8.4054,8.4549,8.467,8.5324,0.0,8.5593,8.544,8.5363,8.5363,8.5209,8.5132,8.5132,8.5132,8.4747,8.3978,8.19,8.1093,8.1093,8.1093,8.1093,8.1093,0.0,0.0,0.0,0.0,0.0,0.0,0.0,2.6304,2.8847,3.3889,3.5972,3.8705,4.3207,4.559,4.7304,4.8469,4.9293,5.0409,5.1919,5.5023,5.7886,6.0309,6.1961,6.278,6.278,6.278,6.278,6.278,6.278,6.278,6.278,6.278,6.278,6.278,6.278,6.278,6.278,6.278,6.278,6.2743,6.2365,6.1961,6.1447,5.9795,5.8951,5.839,5.6864,5.5825,5.488,5.2617,5.1068,4.961,4.6654,4.4071,4.1538,0.0,0.0,0.0,0.0,0.0,0.0,0.0,0.0,0.0,0.0,0.0,0.0,0.0,0.0,4.8799,4.8982,0.0,5.9435,6.0685,6.6313,7.1083,7.2601,7.3937,7.4634,7.4319,7.4792,7.5598,7.6755,7.7981,7.9023,7.9731,8.0592,8.1246,8.167,8.2093,8.2554,8.2939,8.3362,8.3824,8.4247,8.5517,8.617,8.617,8.7017,8.7401,8.7401,8.694,8.6748,8.6748,8.6286,8.6094,8.6094,8.6094,8.5863,8.5363,8.4093,8.3093,8.2362,8.2362,8.2362,8.2362,0.0,0.0,0.0,0.0,0.0,0.0,0.0,0.0,2.8901,3.1741,3.3916,3.6149,3.8647,4.1653,4.3672,4.416,4.7797,5.0533,5.1683,5.539,5.9024,6.2438,6.2707,6.278,6.278,6.278,6.278,6.278,6.278,6.278,6.278,6.278,6.278,6.278,6.278,6.278,6.278,6.278,6.278,6.278,6.278,6.278,6.2633,6.1374,6.0382,5.9515,5.8584,5.7071,5.5499,5.5317,5.4334,5.2927,5.1143,5.0056,4.8403,4.3044,4.3485,0.0,0.0,0.0,0.0,0.0,0.0,0.0,0.0,4.759,4.9351,5.2307,5.4402,5.5753,5.5975,6.0275,6.4264,6.5662,6.9428,7.2899,7.513,7.6207,7.6861,7.7207,7.7092,7.7515,7.8861,7.9939,8.0823,8.1516,8.217,8.2862,8.3555,8.3593,8.367,8.3862,8.4516,8.5055,8.5401,8.6748,8.7478,8.7671,8.8363,8.8786,8.8902,8.8209,8.7979,8.8094,8.7401,8.7094,8.7094,8.6901,8.6863,8.6824,8.6671,8.5786,8.4555,8.4209,8.4093,8.4093,0.0,0.0,0.0,0.0,0.0,0.0,0.0,0.0,0.0,3.2757,3.4646,3.6839,4.0096,4.1757,4.2374,4.1763,4.7847,5.152,5.0982,5.6638,6.0529,6.1667,6.2438,6.278,6.278,6.278,6.278,6.278,6.278,6.278,6.278,6.278,6.278,6.278,6.278,6.278,6.278,6.278,6.278,6.278,6.278,6.278,6.278,6.2597,6.2034,6.1117,5.9612,5.7107,5.4862,5.6914,5.5184,5.2615,5.5162,5.3514,4.9927,4.6323,4.4088,4.1979,3.8358,4.1148,4.5186,4.5553,4.8489,5.1683,0.0,5.3445,5.4106,5.5904,5.6887,5.7735,5.8756,6.3514,6.7476,6.7972,7.2846,7.6938,7.7938,7.8823,7.9939,8.14,8.0977,8.0592,8.0785,8.2247,8.3208,8.3285,8.3401,8.3478,8.3593,8.3593,8.3939,8.4747,8.4863,8.5593,8.7094,8.7325,8.7786,8.8556,8.8632,8.9056,8.9748,8.9671,9.0056,9.0787,9.0671,9.0633,9.0556,8.9787,8.9479,8.9402,8.8671,8.8286,8.794,8.6401,8.5824,8.5824,0.0,0.0,0.0,0.0,0.0,0.0,0.0,0.0,0.0,0.0,3.1345,3.2862,3.48,3.686,3.8396,3.9031,4.5234,0.0,5.0068,5.6124,6.0272,6.152,6.1924,6.2328,6.278,6.278,6.278,6.278,6.278,6.278,6.278,6.278,6.278,6.278,6.278,6.278,6.278,6.278,6.278,6.278,6.278,6.278,6.278,6.278,6.2585,6.1924,5.8877,5.6638,0.0,5.6235,5.5464,5.4656,5.7886,5.6455,5.2968,4.9701,4.8379,4.8269,4.9738,5.0251,5.0986,5.3665,5.5978,5.7629,5.785,5.8621,5.9905,6.1998,6.4294,6.6061,6.652,6.9485,7.2246,7.3385,7.6053,7.8284,7.9131,8.04,8.1516,8.2208,8.2901,8.3093,8.2593,8.317,8.3824,8.4324,8.4362,8.4555,8.5016,8.5055,8.5209,8.5593,8.6094,8.6709,8.7401,8.8363,8.9056,8.9402,8.9902,9.0325,9.0671,9.0671,9.0864,9.121,9.121,9.121,9.1171,9.0825,9.0671,9.0633,9.0287,9.0133,8.994,8.8248,8.7594,8.7594,0.0,0.0,0.0,0.0,0.0,0.0,0.0,0.0,0.0,0.0,0.0,3.015,3.1252,3.3328,3.5261,3.667,4.2323,0.0,0.0,5.4546,5.8804,6.086,6.1153,6.1667,6.2475,6.2475,6.2585,6.278,6.278,6.278,6.278,6.278,6.278,6.278,6.278,6.278,6.278,6.278,6.278,6.278,6.278,6.278,6.278,6.278,6.2083,6.0786,5.785,5.5868,5.4546,5.4326,5.3665,5.3482,5.6748,5.6161,5.3628,5.0398,4.937,5.0362,5.5244,5.55,5.5427,5.9685,6.1851,6.2915,6.2768,6.3649,6.5118,6.7357,7.0134,7.2277,7.2751,7.4417,7.6245,7.7746,7.8861,7.9862,8.0746,8.2093,8.3093,8.3324,8.4478,8.4978,8.4362,8.4286,8.4555,8.517,8.5247,8.5478,8.6055,8.6094,8.6209,8.644,8.6824,8.7286,8.7748,8.8979,8.9671,8.9902,9.0787,9.121,9.121,9.121,9.121,9.121,9.121,9.121,9.121,9.121,9.121,9.121,9.121,9.121,9.1056,8.9825,8.9402,8.9402,0.0,0.0,0.0,0.0,0.0,0.0,0.0,0.0,0.0,0.0,0.0,0.0,0.0,3.3316,3.4174,3.5004,3.9591,0.0,0.0,5.1793,5.5978,5.9111,6.0015,6.0823,6.163,6.163,6.2034,6.278,6.278,6.278,6.278,6.278,6.278,6.278,6.278,6.278,6.278,6.278,6.278,6.278,6.278,6.278,6.278,6.278,6.0382,5.6969,5.6859,0.0,5.1977,5.1206,4.882,4.6764,5.0068,5.1022,5.0288,4.7021,4.4415,4.3644,4.8582,5.2087,5.5537,6.0346,6.398,6.6769,6.8311,6.8678,6.9192,7.0844,7.2124,7.3447,7.507,7.7013,7.8669,7.9592,8.1093,8.2477,8.3362,8.4247,8.5132,8.5901,8.6017,8.6055,8.6017,8.6017,8.6055,8.6055,8.6055,8.6055,8.6094,8.6094,8.6478,8.7325,8.6555,8.694,8.8632,8.8709,8.9133,8.9902,9.0787,9.121,9.121,9.121,9.121,9.121,9.121,9.121,9.121,9.121,9.121,9.121,9.121,9.121,9.121,9.1133,9.1133,9.1133,0.0,0.0,0.0,0.0,0.0,0.0,0.0,0.0,0.0,0.0,0.0,0.0,0.0,0.0,0.0,0.0,3.8175,4.1405,4.3003,4.9187,5.3518,5.5148,5.8033,5.9979,6.0786,6.0786,6.0933,6.1227,6.1741,6.1998,6.2034,6.2548,6.278,6.278,6.278,6.278,6.2743,6.2218,6.1998,6.1961,6.141,6.1227,6.097,5.8841,5.7189,5.5427,0.0,0.0,4.8764,4.904,4.8416,4.8086,5.1353,5.0912,4.8489,4.5259,4.5626,4.8105,5.2401,5.6308,6.0346,6.5228,6.7283,6.8385,6.9449,7.011,7.066,7.1183,7.0622,7.0466,7.1885,7.3591,7.5095,7.6216,8.0208,8.3247,8.3555,8.4824,8.5593,8.5363,8.5286,8.5093,8.4478,8.4978,8.5286,8.5286,8.4786,8.4439,8.4439,8.4978,8.544,8.5747,8.7094,8.8094,8.8671,8.9787,9.0479,9.0787,9.1056,9.121,9.121,9.121,9.121,9.121,9.121,9.121,9.1248,9.1825,9.2056,9.2133,9.2633,9.2864,9.2864,9.2864,9.2864,9.271,0.0,0.0,0.0,0.0,0.0,0.0,0.0,0.0,0.0,0.0,0.0,0.0,0.0,0.0,0.0,0.0,0.0,3.8542,4.0561,0.0,4.8857,5.0545,5.335,5.5258,5.6051,5.6345,5.6675,5.6969,5.8621,5.9465,5.9465,6.1153,6.1961,6.1961,6.1961,6.1961,6.1924,6.1374,6.1006,6.0639,5.9245,5.851,5.796,5.4987,5.2968,0.0,0.0,4.5296,4.4709,4.581,4.6177,4.6581,4.8967,4.8269,4.6471,4.581,4.7517,5.0785,5.6257,5.9832,6.3135,6.776,6.9119,6.9559,7.0367,7.1174,7.1835,7.2092,7.0443,6.9355,7.067,7.0743,7.1083,7.265,7.6361,7.9592,8.1131,8.2516,8.3632,8.4362,8.4439,8.4209,8.3632,8.3824,8.4093,8.4401,8.3901,8.3747,8.4055,8.4593,8.5324,8.6247,8.7555,8.8517,8.9133,9.021,9.0902,9.121,9.121,9.121,9.121,9.121,9.121,9.121,9.1518,9.1672,9.1748,9.2595,9.2941,9.2979,9.348,9.371,9.369,9.3825,9.3852,9.3665,0.0,0.0,0.0,0.0,0.0,0.0,0.0,0.0,0.0,0.0,0.0,0.0,0.0,0.0,0.0,0.0,0.0,0.0,3.9276,0.0,0.0,4.5443,4.6544,4.7406,4.8159,4.893,4.9738,5.0618,5.3702,5.5265,5.5376,5.8474,5.9905,5.9905,5.9905,5.9905,5.9905,5.9869,5.9391,5.8487,5.6124,5.4693,5.3739,5.1242,0.0,0.0,0.0,4.302,4.001,4.1662,4.2396,4.2763,4.3791,4.4139,4.4873,4.8673,4.9994,5.1887,5.9575,6.2365,6.4064,6.8091,6.9669,7.044,7.1321,7.2092,7.2789,7.3266,7.1305,6.9757,7.0799,6.8505,6.7171,6.9306,7.0667,7.2899,7.6976,7.8246,7.9939,8.3131,8.3516,8.3516,8.3478,8.2708,8.2593,8.3478,8.3516,8.3901,8.4709,8.4901,8.6055,8.8479,8.7902,8.8286,8.9885,8.9923,9.0402,9.121,9.121,9.121,9.121,9.121,9.121,9.1325,9.2133,9.2518,9.2633,9.3438,9.3785,9.3785,9.3859,9.3859,9.3911,9.4128,9.4266,9.4212,0.0,0.0,0.0,0.0,0.0,0.0,0.0,0.0,0.0,0.0,0.0,0.0,0.0,0.0,0.0,0.0,0.0,0.0,3.438,0.0,0.0,0.0,0.0,0.0,0.0,0.0,0.0,4.803,4.9481,5.0472,5.1153,5.2564,5.3261,5.3261,5.3261,5.3261,5.3225,5.2564,5.2197,5.1867,0.0,4.9131,4.858,0.0,0.0,0.0,4.0194,3.8998,3.8447,4.0671,4.3774,4.7462,5.1279,5.2491,5.2732,5.3739,5.6161,5.9098,6.1777,6.4897,6.8054,7.0881,7.1725,7.2275,7.367,7.4147,7.334,6.9926,6.6743,6.3975,6.192,6.4004,6.6652,6.8433,7.4745,7.9785,8.0862,8.1747,8.2362,8.2593,8.2631,8.2401,8.1785,8.1554,8.1747,8.2554,8.2631,8.2708,8.2939,8.4747,8.6094,8.6748,8.8402,8.9479,8.9902,9.0556,9.0979,9.121,9.121,9.121,9.121,9.121,9.1556,9.2172,9.2402,9.2826,9.3477,9.4543,9.4974,9.5042,9.5854,9.6144,9.6155,9.6232,9.6253,9.6242,0.0,0.0,0.0,0.0,0.0,0.0,0.0,0.0,0.0,0.0,0.0,0.0,0.0,0.0,0.0,0.0,0.0,0.0,0.0,3.4651,0.0,0.0,0.0,0.0,0.0,0.0,0.0,0.0,0.0,0.0,4.6452,4.7939,4.8636,4.8636,4.8636,4.8636,4.8636,4.8122,0.0,0.0,0.0,0.0,0.0,0.0,0.0,3.8872,3.786,3.8851,4.1258,4.5095,4.8673,5.1977,5.473,5.5596,5.5941,5.7703,5.9832,6.2181,6.4787,6.7687,7.0367,7.2092,7.3046,7.323,7.2018,7.2018,7.0881,6.5999,6.2438,5.9715,5.8314,6.0835,6.3688,6.5346,7.2206,7.7938,7.9823,8.0823,8.1593,8.2208,8.2631,8.2554,8.1708,8.1631,8.2131,8.3362,8.3093,8.317,8.3939,8.5709,8.7017,8.7748,8.9171,9.0094,9.0479,9.0979,9.121,9.121,9.121,9.121,9.121,9.1699,9.2164,9.2682,9.3519,9.4171,9.4649,9.5699,9.6082,9.6171,9.676,9.7012,9.7021,9.7123,9.7199,9.7206,0.0,0.0,0.0,0.0,0.0,0.0,0.0,0.0,0.0,0.0,0.0,0.0,0.0,0.0,0.0,0.0,0.0,0.0,0.0,0.0,0.0,0.0,0.0,0.0,3.4674,3.5422,3.6266,3.7162,3.9276,0.0,0.0,0.0,0.0,0.0,0.0,0.0,0.0,0.0,0.0,0.0,0.0,0.0,0.0,0.0,0.0,0.0,3.7015,4.0487,4.5572,5.1259,5.4473,5.6198,5.6991,5.7212,5.7886,6.1374,6.2401,6.3392,6.7981,7.0257,7.1578,7.2716,7.4037,7.3817,6.9154,6.864,6.7573,6.2082,5.8753,5.6878,5.7088,5.8337,6.0091,6.24,6.7552,7.2822,7.7323,7.8554,7.9862,8.2208,8.3131,8.3285,8.2554,8.2502,8.3233,8.4939,8.4488,8.4773,8.6209,8.7209,8.844,9.0017,9.0094,9.0441,9.121,9.121,9.1206,9.1258,9.1258,9.133,9.149,9.2429,9.2948,9.3284,9.498,9.5776,9.5932,9.6737,9.7057,9.7065,9.7091,9.7107,9.7123,9.7354,9.7433,9.7444,0.0,0.0,0.0,0.0,0.0,0.0,0.0,0.0,0.0,0.0,0.0,0.0,0.0,0.0,0.0,0.0,0.0,0.0,0.0,0.0,0.0,0.0,0.0,0.0,3.2986,3.317,3.394,3.5445,3.5848,3.6509,0.0,0.0,0.0,0.0,0.0,0.0,0.0,0.0,0.0,0.0,0.0,0.0,0.0,0.0,0.0,0.0,3.5936,4.0047,4.5572,5.1259,5.5588,5.9391,6.4127,6.5595,6.5742,6.6465,6.6623,6.7247,7.011,7.1073,7.1953,7.4771,7.5689,7.4889,7.1057,7.0283,6.7987,5.938,5.7173,5.5905,5.2986,5.5511,5.9811,6.5346,7.0052,7.5014,8.0631,8.1554,8.2054,8.3247,8.3516,8.3516,8.3401,8.3523,8.4273,8.578,8.6559,8.7027,8.7149,8.8632,8.994,9.0941,9.0979,9.1056,9.121,9.121,9.1281,9.1459,9.1459,9.1928,9.2851,9.3046,9.3882,9.5204,9.5563,9.6117,9.6797,9.7162,9.7333,9.7348,9.7511,9.7567,9.7568,9.7612,9.7653,9.7654,0.0,0.0,0.0,0.0,0.0,0.0,0.0,0.0,0.0,0.0,0.0,0.0,0.0,0.0,0.0,0.0,0.0,0.0,0.0,0.0,0.0,0.0,0.0,0.0,3.1971,3.1971,3.2559,3.3757,0.0,3.416,3.4981,3.4981,3.4981,3.4981,3.4981,3.4981,3.4981,3.4981,3.4981,3.4945,3.4541,3.438,0.0,0.0,0.0,0.0,0.0,3.9643,4.4709,4.8654,5.4378,6.075,6.6035,6.7981,6.8311,6.8311,6.8605,6.9348,7.1236,7.2082,7.3013,7.5761,7.6733,7.5257,6.8317,6.6752,6.3896,5.3779,5.1698,5.1345,5.0228,5.3849,5.8386,6.2476,6.9321,7.5438,7.9169,8.1977,8.3824,8.4247,8.4632,8.4766,8.4474,8.4534,8.5447,8.7589,8.7847,8.8144,8.8666,9.0002,9.0921,9.1346,9.1473,9.158,9.158,9.158,9.1616,9.1728,9.1728,9.2229,9.3216,9.3794,9.4732,9.5947,9.649,9.6987,9.7381,9.7505,9.7557,9.7559,9.7655,9.7422,9.707,9.707,9.6797,9.6445,0.0,0.0,0.0,0.0,0.0,0.0,0.0,0.0,0.0,0.0,0.0,0.0,0.0,0.0,0.0,0.0,0.0,0.0,0.0,0.0,0.0,0.0,0.0,0.0,0.0,0.0,0.0,3.2339,3.2339,0.0,0.0,0.0,0.0,0.0,3.3476,3.344,3.3293,3.3293,3.3293,0.0,0.0,3.3403,0.0,0.0,0.0,0.0,0.0,3.8726,4.247,4.5938,5.1736,5.8437,6.3503,6.6256,6.7614,6.7614,6.8125,6.9273,7.1776,7.3031,7.411,7.6195,7.7002,7.4837,6.5162,6.28,5.9719,4.937,4.7238,4.7517,4.8468,5.2064,5.5796,5.8516,6.5974,7.2745,7.6515,8.0631,8.374,8.5105,8.5799,8.6004,8.5584,8.5751,8.6826,8.9143,8.9082,8.9331,9.0288,9.1126,9.1578,9.1578,9.1772,9.1914,9.1914,9.1914,9.1901,9.1989,9.2145,9.2713,9.3659,9.4675,9.5613,9.6475,9.7339,9.7617,9.7422,9.7422,9.7344,9.7148,9.7148,9.6797,9.6211,9.6211,9.5781,9.5312,0.0,0.0,0.0,0.0,0.0,0.0,0.0,0.0,0.0,0.0,0.0,0.0,0.0,0.0,0.0,0.0,0.0,0.0,0.0,0.0,0.0,0.0,0.0,0.0,0.0,0.0,0.0,3.1494,3.1494,0.0,0.0,0.0,0.0,0.0,0.0,3.2302,3.1617,3.1617,0.0,0.0,0.0,0.0,0.0,0.0,0.0,0.0,0.0,3.6597,3.7991,4.4801,4.7626,4.9277,5.495,5.9758,6.3356,6.3356,6.3783,6.559,7.1665,7.3719,7.4642,7.6263,7.615,7.3312,6.4482,6.1869,5.8767,4.9848,4.801,4.802,4.8155,4.9202,5.1644,5.6434,5.9281,6.4474,7.4668,7.7207,8.0088,8.5707,8.643,8.6526,8.6648,8.754,8.8428,8.9246,9.0708,9.1585,9.1695,9.1791,9.1849,9.1849,9.1905,9.1914,9.1914,9.1914,9.198,9.2164,9.2983,9.3934,9.5036,9.5936,9.6796,9.7577,9.7656,9.7304,9.6601,9.6601,9.6133,9.5429,9.5429,9.539,9.5312,9.5312,9.5273,9.5195,0.0,0.0,0.0,0.0,0.0,0.0,0.0,0.0,0.0,0.0,0.0,0.0,0.0,0.0,0.0,0.0,0.0,0.0,0.0,0.0,0.0,0.0,0.0,0.0,0.0,0.0,3.0356,3.0687,3.1641,0.0,0.0,0.0,0.0,0.0,0.0,3.2889,3.2118,3.2118,0.0,0.0,0.0,0.0,0.0,0.0,0.0,0.0,0.0,0.0,3.6964,4.1295,4.5039,4.7773,4.7645,5.1406,5.6964,6.2442,6.4335,6.6094,7.2644,7.3964,7.3951,7.5835,7.3691,6.9469,6.2943,5.9217,5.5104,4.8058,4.6586,4.674,4.7278,4.8048,4.9625,5.2713,5.6742,6.1589,6.7513,7.1283,7.5746,8.1898,8.267,8.3786,8.6689,8.7858,8.899,9.0413,9.1624,9.2326,9.2326,9.2183,9.2093,9.2093,9.2256,9.2326,9.2326,9.2326,9.2619,9.3228,9.3579,9.4525,9.5976,9.6328,9.6679,9.6992,9.6992,9.6484,9.5703,9.5703,9.5508,9.5195,9.5195,9.4883,9.4414,9.4414,9.4101,9.3671,0.0,0.0,0.0,0.0,0.0,0.0,0.0,0.0,0.0,0.0,0.0,0.0,0.0,0.0,0.0,0.0,0.0,0.0,0.0,0.0,0.0,0.0,0.0,0.0,0.0,0.0,3.032,3.054,3.1678,3.2265,0.0,0.0,3.333,3.3109,0.0,0.0,0.0,0.0,0.0,0.0,0.0,0.0,0.0,0.0,0.0,0.0,0.0,0.0,0.0,0.0,0.0,4.5859,4.3258,4.5609,5.0844,5.8587,6.2305,6.5073,7.0933,7.2983,7.3801,7.4981,7.1437,6.6397,6.1512,5.6934,5.2164,4.671,4.5594,4.5787,4.6394,4.7394,4.8509,4.974,5.428,5.8896,6.2435,6.6474,7.1326,7.7506,7.8236,8.0085,8.4794,8.745,8.9549,9.1172,9.2109,9.25,9.2226,9.2287,9.23,9.23,9.2494,9.2617,9.2617,9.2851,9.3281,9.3906,9.4414,9.5195,9.6133,9.6367,9.6367,9.6133,9.6133,9.5625,9.4804,9.4804,9.4648,9.4414,9.4414,9.4062,9.3515,9.3433,9.3,9.2525,0.0,0.0,0.0,0.0,0.0,0.0,0.0,0.0,0.0,0.0,0.0,0.0,0.0,0.0,0.0,0.0,0.0,0.0,0.0,0.0,0.0,0.0,0.0,0.0,0.0,0.0,0.0,3.1397,3.1397,3.1433,3.1433,3.2228,3.2192,3.147,0.0,0.0,0.0,0.0,0.0,0.0,0.0,0.0,0.0,0.0,0.0,0.0,0.0,0.0,0.0,0.0,0.0,0.0,0.0,4.3652,4.5574,5.0121,5.5648,6.122,6.528,7.0463,7.45,7.3731,6.9706,6.4782,6.0473,5.5588,5.0731,4.6479,4.5594,4.5594,4.5594,4.6971,4.8125,4.8125,5.101,5.5357,6.1293,6.3589,6.6942,7.3111,7.3878,7.5719,8.0407,8.6399,9.0351,9.1211,9.2109,9.2226,9.1367,9.2148,9.2617,9.2617,9.2617,9.2617,9.2617,9.3476,9.3906,9.3906,9.5664,9.6015,9.5234,9.6094,9.6015,9.5195,9.5195,9.4726,9.3906,9.3906,9.3398,9.2617,9.2617,9.2617,9.2577,9.2333,9.2221,9.2164,0.0,0.0,0.0,0.0,0.0,0.0,0.0,0.0,0.0,0.0,0.0,0.0,0.0,0.0,0.0,0.0,0.0,0.0,0.0,0.0,0.0,0.0,0.0,0.0,0.0,0.0,0.0,0.0,0.0,3.3036,3.3036,3.3293,3.3293,3.3036,3.333,3.2963,0.0,0.0,0.0,0.0,0.0,0.0,0.0,0.0,0.0,0.0,0.0,0.0,0.0,0.0,0.0,0.0,0.0,0.0,0.0,4.6416,5.0591,5.567,6.1054,6.3135,6.3805,6.3899,6.0089,5.5972,5.4615,5.0818,4.7201,4.5864,4.5594,4.5594,4.5594,4.6971,4.8086,4.8086,5.0971,5.428,5.728,6.1793,6.7074,7.3277,7.9447,8.395,8.6009,8.7968,8.9453,9.0351,9.0664,9.0703,9.0429,9.0664,9.1367,9.2578,9.2617,9.289,9.3476,9.375,9.4219,9.4804,9.5351,9.5469,9.5195,9.5508,9.5156,9.4297,9.4297,9.3828,9.3008,9.3008,9.2851,9.2578,9.24,9.2343,9.2294,9.2087,9.198,9.195,0.0,0.0,0.0,0.0,0.0,0.0,0.0,0.0,0.0,0.0,0.0,0.0,0.0,0.0,0.0,0.0,0.0,0.0,0.0,0.0,0.0,0.0,0.0,0.0,0.0,0.0,0.0,0.0,0.0,0.0,0.0,0.0,3.4724,3.4724,3.4394,3.3977,0.0,0.0,0.0,0.0,0.0,0.0,0.0,0.0,0.0,0.0,0.0,0.0,0.0,0.0,0.0,0.0,0.0,0.0,0.0,0.0,4.7026,5.0634,5.5977,5.8207,5.8999,5.9031,5.5423,5.1885,5.1885,4.8625,4.5594,4.5594,4.5594,4.571,4.6009,4.7201,4.8317,4.8971,5.1395,5.4485,5.8182,6.2284,6.7208,7.3379,8.0537,8.5306,8.6126,8.7733,8.8945,8.9453,8.9804,8.9844,8.9531,8.9804,9.0664,9.207,9.2109,9.2383,9.289,9.3554,9.4179,9.4726,9.5039,9.5039,9.4726,9.4726,9.4219,9.3398,9.3398,9.3045,0.0,9.2448,9.2397,9.2326,9.2139,9.2099,9.2042,9.183,9.1732,9.1767,0.0,0.0,0.0,0.0,0.0,0.0,0.0,0.0,0.0,0.0,0.0,0.0,0.0,0.0,0.0,0.0,0.0,0.0,0.0,0.0,0.0,0.0,0.0,0.0,0.0,0.0,0.0,3.5078,3.5899,3.6303,3.6303,0.0,0.0,3.6266,3.5445,3.5078,0.0,0.0,0.0,0.0,0.0,0.0,0.0,0.0,0.0,0.0,0.0,0.0,0.0,0.0,0.0,0.0,0.0,0.0,0.0,0.0,0.0,0.0,0.0,5.4895,5.8319,5.7588,5.4395,5.1462,5.1462,4.8432,0.0,4.5594,4.5633,4.5932,4.674,4.7663,4.8817,5.0442,5.2202,5.5808,6.2749,6.4978,6.8224,7.4427,7.871,8.1563,8.2461,8.6245,8.8594,8.8594,8.9375,8.9492,8.875,8.9453,9.0312,9.1172,9.1289,9.1367,9.1484,9.3086,9.3906,9.3906,9.4726,9.4648,9.3788,9.3788,9.3319,9.2537,9.2537,9.24,9.2164,9.2164,9.2087,9.1914,9.1897,9.1849,9.1821,9.1565,9.1475,9.1575,0.0,0.0,0.0,0.0,0.0,0.0,0.0,0.0,0.0,0.0,0.0,0.0,0.0,0.0,0.0,0.0,0.0,0.0,0.0,0.0,0.0,0.0,0.0,0.0,0.0,0.0,0.0,3.6009,3.6193,3.6303,3.6303,3.6303,0.0,0.0,0.0,0.0,0.0,0.0,0.0,0.0,0.0,0.0,0.0,0.0,0.0,0.0,3.6535,3.7248,0.0,0.0,0.0,0.0,0.0,0.0,0.0,0.0,4.4432,0.0,4.6624,0.0,4.8826,4.8625,4.7817,4.7086,0.0,4.6326,4.5594,4.5594,4.6124,4.6663,4.6846,4.8663,5.0202,5.0635,5.3164,5.7119,6.2904,7.0853,7.837,8.4557,8.5073,8.5505,8.6989,8.7538,8.7773,8.7773,8.7969,8.8281,8.8672,8.8906,8.9414,9.0273,9.0937,9.1953,9.3281,9.3711,9.3906,9.3906,9.4101,9.3626,9.2606,9.2606,9.2407,9.2061,9.2061,9.2041,9.1958,9.1958,9.1926,9.1858,9.1684,9.159,9.1553,9.1369,9.1286,9.1296,0.0,0.0,0.0,0.0,0.0,0.0,0.0,0.0,0.0,0.0,0.0,0.0,0.0,0.0,0.0,0.0,0.0,0.0,0.0,0.0,0.0,0.0,0.0,0.0,0.0,0.0,0.0,0.0,0.0,3.8505,0.0,0.0,0.0,0.0,0.0,0.0,0.0,0.0,0.0,0.0,0.0,0.0,0.0,0.0,0.0,0.0,3.6461,3.7283,0.0,3.9071,3.9843,4.0372,0.0,0.0,0.0,0.0,4.4008,0.0,0.0,4.5594,4.5594,4.5594,4.5594,4.5594,4.5594,4.5893,4.6201,4.6201,4.6855,4.7702,4.8509,4.9803,5.1275,5.2771,5.6307,6.1011,6.7169,7.3686,7.9679,8.457,8.4726,8.539,8.789,8.7773,8.75,8.75,8.7851,8.8242,8.8672,8.9062,8.9687,9.0586,9.1054,9.1758,9.2695,9.3086,9.324,9.3107,9.3107,9.2756,9.2042,9.2042,9.1987,9.1914,9.1914,9.1811,9.1739,9.1739,9.1649,9.158,9.1412,9.1361,9.1315,9.0856,9.0704,9.0798,0.0,0.0,0.0,0.0,0.0,0.0,0.0,0.0,0.0,0.0,0.0,0.0,0.0,0.0,0.0,0.0,0.0,0.0,0.0,0.0,0.0,0.0,0.0,0.0,0.0,0.0,0.0,0.0,0.0,0.0,0.0,0.0,4.001,0.0,0.0,0.0,0.0,0.0,0.0,0.0,0.0,0.0,0.0,0.0,0.0,0.0,0.0,0.0,0.0,3.8969,3.9746,4.0323,4.0477,0.0,0.0,0.0,0.0,0.0,4.5325,4.6091,4.6472,4.5757,4.5594,4.5633,4.5787,4.6355,4.6923,4.7038,4.7855,4.8942,5.0451,5.1253,5.257,5.5326,6.0519,6.6564,7.3348,7.6125,7.8633,8.1797,8.2617,8.414,8.7383,8.7578,8.75,8.75,8.8242,8.875,8.8906,8.9726,9.0586,9.1404,9.1443,9.1403,9.1398,9.2145,9.2402,9.2149,9.2149,9.2029,9.1821,9.1821,9.1802,9.1801,9.1801,9.1661,9.1459,9.1459,9.1346,9.1192,9.1082,9.1026,9.0914,9.0241,8.9946,9.0083,0.0,0.0,0.0,0.0,0.0,0.0,0.0,0.0,0.0,0.0,0.0,0.0,0.0,0.0,0.0,0.0,0.0,0.0,0.0,0.0,0.0,0.0,0.0,0.0,0.0,0.0,0.0,0.0,0.0,0.0,4.1095,4.0948,4.0561,0.0,0.0,0.0,0.0,0.0,0.0,0.0,3.5086,0.0,0.0,0.0,0.0,0.0,0.0,0.0,0.0,3.8738,3.94,3.9592,4.0285,0.0,0.0,0.0,0.0,0.0,4.5171,4.8338,5.0276,4.6549,4.5594,4.5787,4.6547,4.6817,4.7077,4.7778,4.9202,5.0431,5.079,5.3259,5.5419,5.6006,6.4762,7.3384,7.8861,8.2492,8.5351,8.7304,8.6367,8.6367,8.832,8.789,8.75,8.75,8.8242,8.9023,8.9765,9.0625,9.1401,9.2049,9.2046,9.1959,9.1824,9.2115,9.2144,9.1973,9.1973,9.1802,9.1553,9.1553,9.1459,9.1297,9.1297,9.1303,9.1236,9.1236,9.1224,9.1136,9.0508,9.0284,9.0181,8.9487,8.9238,8.94,0.0,0.0,0.0,0.0,0.0,0.0,0.0,0.0,0.0,0.0,0.0,0.0,0.0,0.0,0.0,0.0,0.0,0.0,0.0,0.0,0.0,0.0,0.0,0.0,0.0,0.0,0.0,0.0,0.0,4.2665,4.268,4.2426,4.1518,4.0089,0.0,0.0,0.0,0.0,0.0,0.0,0.0,0.0,0.0,0.0,0.0,0.0,0.0,0.0,0.0,0.0,3.8507,3.9361,3.9746,0.0,0.0,0.0,0.0,0.0,4.5133,4.7133,4.8909,4.9698,5.1675,5.3547,5.3929,5.51,5.5527,5.3592,5.4555,5.5384,5.3999,5.7014,6.1708,6.7886,7.1678,7.5629,8.0886,8.1053,8.1756,8.4745,8.439,8.4921,8.7447,8.7326,8.7326,8.7789,8.857,8.9389,9.0286,9.1149,9.1744,9.2022,9.2022,9.1926,9.1706,9.1782,9.1782,9.1695,9.1695,9.1566,9.1354,9.1354,9.1281,9.121,9.121,9.121,9.1192,9.0762,9.0606,9.0566,8.9832,8.9573,8.9462,8.8801,8.8449,8.8361,0.0,0.0,0.0,0.0,0.0,0.0,0.0,0.0,0.0,0.0,0.0,0.0,0.0,0.0,0.0,0.0,0.0,0.0,0.0,0.0,0.0,0.0,0.0,0.0,0.0,0.0,4.1841,4.2818,4.3684,4.4132,4.4146,4.3764,4.2585,0.0,0.0,0.0,0.0,0.0,0.0,0.0,0.0,0.0,0.0,0.0,0.0,0.0,0.0,0.0,0.0,0.0,0.0,0.0,0.0,0.0,0.0,4.2611,4.3126,4.3495,4.5218,4.6647,4.8604,5.2564,5.5322,5.7754,6.0374,6.1738,6.1889,6.0005,6.0974,6.1281,5.8291,6.0974,6.6912,7.6833,7.6797,7.7343,8.2601,8.0332,7.9374,8.2733,8.3108,8.4083,8.6561,8.6972,8.74,8.8053,8.9035,8.9891,9.0544,9.1447,9.1849,9.1792,9.1831,9.1695,9.1417,9.1417,9.1417,9.1417,9.1417,9.1346,9.121,9.121,9.121,9.121,9.1008,9.0914,9.0876,9.0138,8.9855,8.9809,8.9148,8.8588,8.8151,8.7656,8.7339,8.7223,0.0,0.0,0.0,0.0,0.0,0.0,0.0,0.0,0.0,0.0,0.0,0.0,0.0,0.0,0.0,0.0,0.0,0.0,0.0,0.0,0.0,0.0,0.0,0.0,0.0,4.1804,4.2824,4.442,4.4521,4.4572,4.4572,4.4523,4.3605,4.197,0.0,0.0,0.0,0.0,0.0,0.0,0.0,0.0,0.0,0.0,0.0,0.0,0.0,0.0,0.0,0.0,0.0,0.0,0.0,0.0,4.0862,4.2667,4.3163,4.352,4.5364,4.943,5.3221,5.3688,5.0917,5.0854,6.1266,6.0677,5.9459,6.4768,6.7185,6.7135,6.3068,6.4487,6.8078,7.3782,7.6966,8.0574,8.5767,8.5502,8.5222,8.6335,8.6444,8.6561,8.6778,8.7509,8.8014,8.8092,8.9571,9.0544,9.0583,9.1447,9.1811,9.1554,9.1541,9.1417,9.1224,9.1224,9.1224,9.1224,9.1224,9.1206,9.121,9.121,9.121,9.1136,9.0467,9.0181,9.0138,8.9476,8.9161,8.9122,8.8417,8.7107,8.5585,8.5545,8.5701,8.6009,0.0,0.0,0.0,0.0,0.0,0.0,0.0,0.0,0.0,0.0,0.0,0.0,0.0,0.0,0.0,0.0,0.0,0.0,0.0,0.0,0.0,0.0,0.0,3.9099,4.215,4.2157,4.2938,4.4612,4.4812,4.4908,4.4919,4.511,0.0,0.0,0.0,0.0,0.0,0.0,0.0,0.0,0.0,0.0,0.0,0.0,0.0,0.0,0.0,0.0,0.0,0.0,3.6892,3.8046,3.8392,3.948,4.0971,4.2711,4.3257,4.3652,4.5429,4.9769,5.4036,5.5155,5.4621,5.6346,6.5957,6.8146,6.8927,7.1776,7.3162,7.2886,6.9711,7.2427,7.5845,7.794,8.1429,8.4746,8.7245,8.6856,8.6571,8.7269,8.6926,8.677,8.7151,8.7472,8.8091,8.9121,8.9817,9.0411,9.0953,9.1301,9.1421,9.1307,9.1307,9.1264,9.121,9.121,9.121,9.121,9.121,9.121,9.121,9.121,9.0971,9.0488,9.0203,8.9855,8.9451,8.8746,8.8475,8.8359,8.6903,8.5511,8.4248,8.4248,8.3552,8.2714,0.0,0.0,0.0,0.0,0.0,0.0,0.0,0.0,0.0,0.0,0.0,0.0,0.0,0.0,0.0,0.0,0.0,0.0,0.0,0.0,0.0,0.0,0.0,3.9361,4.2288,4.2394,4.3236,4.4919,4.5159,4.5253,4.5253,0.0,0.0,0.0,0.0,0.0,0.0,0.0,0.0,0.0,0.0,0.0,0.0,0.0,0.0,0.0,0.0,0.0,0.0,0.0,3.6423,3.763,3.7969,3.9071,4.0688,4.2723,4.3359,4.3794,4.553,4.9045,5.2784,5.5348,5.7303,6.0884,6.9735,7.2323,7.3853,7.7391,7.7866,7.7082,7.5279,7.7941,8.0333,8.0143,8.3532,8.65,8.7364,8.6732,8.646,8.7124,8.6942,8.6945,8.7358,8.7863,8.8671,8.9825,9.0171,9.0556,9.1171,9.121,9.121,9.121,9.121,9.121,9.121,9.0971,9.0858,9.0858,9.0664,9.0664,9.0858,9.0858,9.0467,8.9786,8.9839,8.9603,8.9104,8.8255,8.7743,8.7257,8.5967,8.4471,8.297,8.2761,8.144,7.9795,0.0,0.0,0.0,0.0,0.0,0.0,0.0,0.0,0.0,0.0,0.0,0.0,0.0,0.0,0.0,0.0,0.0,0.0,0.0,0.0,0.0,0.0,0.0,3.92,4.1731,4.2662,4.3932,4.5594,4.5594,4.5594,4.5594,4.5594,0.0,0.0,0.0,0.0,0.0,0.0,0.0,0.0,0.0,0.0,0.0,0.0,0.0,0.0,0.0,0.0,0.0,0.0,3.6045,3.6888,3.7881,3.8745,3.9966,4.2783,4.3509,4.3828,4.5776,4.7569,4.9832,5.4008,5.7669,6.2669,7.1923,7.1516,7.1814,8.1112,8.1142,7.9398,7.9143,7.9834,8.0105,7.8986,8.2251,8.5209,8.6017,8.544,8.5209,8.6017,8.6863,8.7401,8.7401,8.894,8.9902,8.9902,9.071,9.121,9.121,9.121,9.121,9.121,9.121,9.121,9.1192,9.0467,9.0116,9.0095,8.9426,8.9476,9.0095,9.0095,8.974,8.9107,8.9219,8.9268,8.9218,8.8068,8.6859,8.579,8.579,8.4074,8.1542,8.0936,7.9407,7.7632,0.0,0.0,0.0,0.0,0.0,0.0,0.0,0.0,0.0,0.0,0.0,0.0,0.0,0.0,0.0,0.0,0.0,0.0,0.0,0.0,0.0,0.0,0.0,0.0,0.0,0.0,4.447,4.5594,4.5594,4.5594,0.0,0.0,0.0,4.3085,0.0,0.0,0.0,0.0,0.0,0.0,0.0,0.0,0.0,0.0,0.0,0.0,0.0,0.0,0.0,0.0,0.0,0.0,3.7976,3.8879,4.0148,4.2804,4.3608,4.413,4.6562,5.2765,5.8436,5.7879,6.3842,7.0851,7.4673,7.5065,7.6512,8.3338,8.4542,8.3426,8.0312,8.2793,8.4284,8.1079,8.3986,8.6978,8.7825,8.6671,8.6286,8.7748,8.7632,8.7863,8.9056,8.9633,9.0171,9.0787,9.1056,9.121,9.121,9.121,9.121,9.121,9.121,9.0971,9.0447,9.0203,8.9855,8.9389,8.9225,8.9187,8.9426,8.9426,8.9345,8.919,8.8396,8.8059,8.8031,8.6798,8.4989,8.2943,8.2943,8.1226,7.8722,7.8494,7.6497,7.3883,0.0,0.0,0.0,0.0,0.0,0.0,0.0,0.0,0.0,0.0,0.0,0.0,0.0,0.0,0.0,0.0,0.0,0.0,0.0,0.0,0.0,0.0,0.0,0.0,0.0,4.2624,4.3739,0.0,0.0,0.0,0.0,0.0,0.0,4.3047,0.0,4.1316,0.0,0.0,0.0,0.0,0.0,0.0,0.0,0.0,0.0,0.0,0.0,0.0,0.0,0.0,0.0,0.0,3.793,3.8724,3.9776,4.2731,4.3632,4.4599,4.879,5.4904,6.0599,6.2685,6.8582,7.4819,7.8441,7.9678,8.1067,8.4544,8.5936,8.5578,8.2519,8.501,8.6693,8.4122,8.6069,8.7979,8.8171,8.7286,8.7017,8.8055,8.8017,8.844,8.9787,9.021,9.0633,9.1171,9.121,9.121,9.121,9.0914,9.0762,9.0762,9.0526,9.0155,8.9716,8.9451,8.9122,8.8691,8.8417,8.8018,8.7632,8.8371,8.8496,8.812,8.7556,8.7228,8.7027,8.5671,8.3818,8.1805,8.1227,7.8972,7.6181,7.5901,7.3537,7.0489,0.0,0.0,0.0,0.0,0.0,0.0,0.0,0.0,0.0,0.0,0.0,0.0,0.0,0.0,0.0,0.0,0.0,0.0,0.0,0.0,0.0,0.0,0.0,0.0,0.0,0.0,0.0,0.0,0.0,0.0,0.0,0.0,4.3662,4.2931,0.0,4.1239,0.0,0.0,0.0,0.0,0.0,0.0,0.0,0.0,0.0,0.0,0.0,0.0,0.0,0.0,0.0,0.0,3.7732,3.8331,3.9088,4.2484,4.3862,4.5669,5.194,5.55,5.9505,6.7916,7.2345,7.6222,8.2443,8.4445,8.5016,8.5027,8.5878,8.6299,8.5312,8.6636,8.7831,8.766,8.8286,8.8556,8.7863,8.7671,8.7671,8.7748,8.844,8.921,8.994,9.0675,9.11,9.11,9.1026,9.1008,9.1008,9.0346,8.999,8.999,8.9426,8.9095,8.9016,8.8388,8.8076,8.7985,8.7228,8.632,8.5463,8.7151,8.7321,8.632,8.662,8.6464,8.5884,8.431,8.2744,8.1323,7.9861,7.7073,7.3724,7.3168,7.0704,6.7577,0.0,0.0,0.0,0.0,0.0,0.0,0.0,0.0,0.0,0.0,0.0,0.0,0.0,0.0,0.0,0.0,0.0,0.0,0.0,0.0,0.0,0.0,0.0,0.0,0.0,0.0,0.0,0.0,0.0,0.0,0.0,0.0,0.0,4.2047,0.0,4.0669,0.0,0.0,0.0,0.0,0.0,0.0,0.0,0.0,0.0,0.0,0.0,0.0,0.0,0.0,0.0,0.0,3.7181,3.8006,3.9101,4.1835,4.5947,5.0293,5.3744,6.1133,6.8506,7.117,7.67,8.1839,8.3348,8.4773,8.5921,8.6117,8.6737,8.7131,8.6918,8.8276,8.9426,8.9381,8.9517,8.9825,9.0325,8.9787,8.9633,9.0287,9.0556,9.0748,9.0902,9.0589,9.0326,9.0326,8.9832,8.9549,8.9549,8.9402,8.9327,8.9327,8.9199,8.8856,8.8338,8.8197,8.7804,8.7231,8.6138,8.5831,8.6178,8.6565,8.6307,8.5403,8.4889,8.4069,8.2977,8.1374,7.8841,7.5973,7.5607,7.326,7.0041,6.99,6.8311,6.5916,0.0,0.0,0.0,0.0,0.0,0.0,0.0,0.0,0.0,0.0,0.0,0.0,0.0,0.0,0.0,0.0,0.0,0.0,0.0,0.0,0.0,0.0,0.0,0.0,0.0,0.0,0.0,0.0,0.0,0.0,0.0,0.0,0.0,4.1769,0.0,4.0516,0.0,0.0,0.0,0.0,0.0,0.0,0.0,0.0,0.0,0.0,0.0,0.0,0.0,0.0,0.0,0.0,0.0,0.0,3.9101,4.1594,4.4848,4.9078,5.5997,6.256,6.8922,7.5041,8.0121,8.3593,8.3593,8.4901,8.6159,8.6298,8.6909,8.7401,8.7401,8.8786,9.0056,9.0441,9.0517,9.0429,9.0148,8.9688,8.9589,9.0084,8.9795,8.9871,9.071,9.006,8.9645,8.9645,8.9327,8.9122,8.9122,8.8801,8.8645,8.8645,8.8271,8.7954,8.7586,8.701,8.6564,8.6174,8.5366,8.4904,8.4712,8.5472,8.517,8.3993,8.3436,8.2317,8.0885,7.8251,7.6034,7.4126,7.2349,6.9911,6.7238,6.5911,6.4168,6.2013,0.0,0.0,0.0,0.0,0.0,0.0,0.0,0.0,0.0,0.0,0.0,0.0,0.0,0.0,0.0,0.0,0.0,0.0,0.0,0.0,0.0,0.0,0.0,0.0,0.0,0.0,0.0,0.0,0.0,0.0,0.0,0.0,0.0,4.1546,0.0,0.0,0.0,0.0,0.0,0.0,0.0,0.0,0.0,0.0,0.0,0.0,0.0,0.0,0.0,0.0,0.0,0.0,0.0,0.0,3.9023,4.1228,4.3316,4.7051,5.6869,6.2104,6.747,7.8536,8.2362,8.3439,8.3747,8.4901,8.594,8.6055,8.6901,8.7632,8.7632,8.8979,9.0364,9.1095,9.11,9.0551,8.9282,8.9244,8.9336,8.9261,8.8881,8.9095,9.0189,8.9593,8.9087,8.8937,8.8829,8.8746,8.8746,8.822,8.7929,8.7929,8.7295,8.6925,8.6714,8.5768,8.5201,8.5006,8.4435,8.3595,8.2561,8.3721,8.3548,8.2227,8.1246,8.0099,7.8564,7.4872,7.3161,7.2502,6.9523,6.6826,6.4321,6.2033,5.9886,5.77,0.0,0.0,0.0,0.0,0.0,0.0,0.0,0.0,0.0,0.0,0.0,0.0,0.0,0.0,0.0,0.0,0.0,0.0,0.0,0.0,0.0,0.0,0.0,0.0,0.0,0.0,0.0,0.0,0.0,0.0,0.0,0.0,0.0,4.0669,0.0,0.0,0.0,0.0,0.0,0.0,0.0,0.0,0.0,0.0,0.0,0.0,0.0,0.0,3.7109,3.7109,3.6601,0.0,0.0,0.0,3.8828,3.9882,4.4932,5.0676,5.2944,6.1625,7.2016,8.0115,8.2324,8.2862,8.4401,8.4901,8.5247,8.5978,8.7401,8.8517,8.8517,8.9902,9.1056,9.1171,9.0646,9.0165,8.9964,9.0684,9.0963,9.0227,9.1321,9.166,9.0416,8.9685,8.8966,8.8294,8.7614,8.7261,8.7261,8.7197,8.7166,8.7166,8.7064,8.6536,8.5544,8.5391,8.4773,8.3832,8.2652,8.184,8.1302,8.075,8.0361,8.0002,7.6755,7.5244,7.4737,7.1151,6.8579,6.6903,6.6441,6.3501,5.9612,5.9209,5.764,5.5284,0.0,0.0,0.0,0.0,0.0,0.0,0.0,0.0,0.0,0.0,0.0,0.0,0.0,0.0,0.0,0.0,0.0,0.0,0.0,0.0,0.0,0.0,0.0,0.0,0.0,0.0,0.0,0.0,0.0,0.0,0.0,3.8738,3.9361,0.0,0.0,0.0,0.0,0.0,0.0,0.0,0.0,0.0,0.0,0.0,0.0,0.0,0.0,3.8231,3.8047,3.8047,3.7773,3.7461,3.7461,0.0,0.0,0.0,4.3667,4.8591,5.5984,6.4408,7.2788,7.9845,8.1977,8.2747,8.4516,8.4901,8.501,8.5435,8.6547,8.7543,8.7983,8.8794,8.9495,8.993,8.974,8.9426,8.9043,8.9357,8.9697,8.9771,9.0074,9.0297,9.0451,8.9794,8.9008,8.8195,8.786,8.7472,8.7031,8.6392,8.6064,8.6064,8.5429,8.4848,8.437,8.4096,8.3379,8.2189,8.159,7.9945,7.7308,7.6887,7.6718,7.6653,7.5006,7.319,7.0977,6.6895,6.4689,6.3655,6.09,5.8534,5.6521,5.4974,5.2909,5.0363,0.0,0.0,0.0,0.0,0.0,0.0,0.0,0.0,0.0,0.0,0.0,0.0,0.0,0.0,0.0,0.0,0.0,0.0,0.0,0.0,0.0,0.0,0.0,0.0,0.0,0.0,0.0,0.0,0.0,0.0,3.7353,3.7353,3.7815,0.0,3.9092,3.9631,0.0,0.0,0.0,0.0,0.0,0.0,0.0,0.0,0.0,0.0,0.0,3.9681,3.9531,3.9336,3.9101,3.8906,3.8672,3.9219,0.0,0.0,0.0,4.6124,5.7209,6.3485,6.8938,7.7158,7.9638,8.0862,8.3862,8.4626,8.4665,8.4782,8.5192,8.5827,8.6639,8.7385,8.8091,8.8706,8.8813,8.8663,8.8197,8.8109,8.8359,8.9011,8.8757,8.887,8.9752,8.9568,8.891,8.7667,8.7851,8.7633,8.6756,8.5892,8.5423,8.5423,8.4611,8.4015,8.371,8.2712,8.1831,8.1054,7.9743,7.7402,7.4262,7.3369,7.2332,7.1266,7.1266,6.9787,6.6926,6.2532,6.0661,6.016,5.6613,5.4381,5.2888,5.0848,4.8107,4.5178,0.0,0.0,0.0,0.0,0.0,0.0,0.0,0.0,0.0,0.0,0.0,0.0,0.0,0.0,0.0,0.0,0.0,0.0,0.0,0.0,0.0,0.0,0.0,0.0,0.0,0.0,0.0,0.0,0.0,0.0,3.5615,3.5615,3.6077,3.6923,3.8546,3.9323,3.94,0.0,0.0,0.0,0.0,0.0,0.0,0.0,5.0847,5.0469,4.5273,4.2891,4.2109,4.1328,4.0508,3.9687,3.8867,3.9219,3.9922,0.0,0.0,0.0,5.2253,5.4868,5.8605,7.091,7.3973,7.5668,8.217,8.3826,8.3941,8.3938,8.365,8.3601,8.4422,8.639,8.7902,8.794,8.8064,8.8137,8.8107,8.8154,8.8239,8.8243,8.8904,8.8911,8.789,8.8726,8.8429,8.6111,8.6988,8.7115,8.5911,8.578,8.578,8.578,8.5693,8.5195,8.4071,8.1461,8.0464,8.1054,7.599,7.3874,7.4194,7.0744,6.6949,6.3046,6.3046,6.2911,6.237,5.8088,5.5997,5.5545,5.5266,5.2085,4.7603,4.7424,4.4452,4.0424,0.0,0.0,0.0,0.0,0.0,0.0,0.0,0.0,0.0,0.0,0.0,0.0,0.0,3.55,3.55,3.55,0.0,0.0,0.0,0.0,0.0,0.0,0.0,0.0,0.0,0.0,0.0,0.0,0.0,3.4968,3.55,3.55,3.5654,3.6,3.77,3.881,3.9425,4.0269,0.0,4.2096,4.7653,5.2242,0.0,5.2492,5.5506,6.0234,5.1719,4.8437,4.8125,4.7851,4.4961,4.1445,4.1133,4.0898,4.0859,4.1367,4.2148,4.4331,5.0984,5.338,5.6185,6.5484,7.0272,7.375,7.7934,8.0659,8.2513,8.3288,8.2906,8.2524,8.2912,8.4096,8.5355,8.6357,8.6587,8.6804,8.7321,8.7421,8.7336,8.7117,8.7333,8.7275,8.6656,8.6977,8.6638,8.5257,8.6027,8.6062,8.5135,8.4838,8.4705,8.4705,8.2999,8.1576,8.0596,7.956,7.8314,7.6674,7.4783,7.2099,6.8741,6.5969,6.3148,6.0192,5.7274,5.6845,5.7956,5.4608,5.2238,5.0661,4.8633,4.5769,4.29,4.2764,4.0467,3.7598,0.0,0.0,0.0,0.0,0.0,0.0,0.0,0.0,0.0,0.0,0.0,0.0,0.0,0.0,3.5808,3.5538,3.55,0.0,0.0,0.0,0.0,0.0,0.0,0.0,0.0,0.0,0.0,0.0,0.0,0.0,0.0,3.5346,3.5495,3.5631,3.7295,3.8408,0.0,4.0571,4.1557,4.2828,5.0423,5.5876,5.913,5.6015,5.9336,6.4414,5.5384,5.237,5.2797,5.3869,5.1786,4.8272,4.6072,4.3628,4.164,4.1872,4.2144,4.3381,4.8068,4.9881,5.2225,5.9426,6.4188,6.843,7.3486,7.7073,7.9848,8.1612,8.202,8.1999,8.1806,8.2443,8.3434,8.4792,8.5233,8.5461,8.5623,8.588,8.5809,8.5251,8.5379,8.5359,8.5022,8.5358,8.5164,8.4064,8.4838,8.4761,8.356,8.3251,8.2956,8.2694,8.0873,7.9327,7.8023,7.7465,7.5839,7.3251,7.2021,6.9078,6.4555,6.239,5.9751,5.6787,5.3771,5.2771,5.3177,5.0515,4.7988,4.5575,4.3488,4.1161,3.9069,3.8829,3.6571,3.3505,0.0,0.0,0.0,0.0,0.0,0.0,0.0,0.0,0.0,3.6731,0.0,0.0,0.0,0.0,0.0,3.5615,3.5538,3.55,3.5462,0.0,0.0,0.0,0.0,0.0,0.0,0.0,0.0,0.0,0.0,0.0,0.0,0.0,3.5521,3.5669,3.7427,3.8213,3.8378,4.0987,4.2208,4.3402,5.5441,6.0343,6.0547,6.1523,6.2539,6.2576,5.638,5.4691,5.5883,5.9076,6.0483,5.9696,5.3048,4.7034,4.2226,4.1301,4.1599,4.2407,0.0,0.0,0.0,5.2701,5.5663,5.9355,6.876,7.2975,7.5774,7.8725,8.0725,8.1746,8.1122,8.1603,8.241,8.3181,8.3988,8.4158,8.3119,8.3582,8.3627,8.2542,8.3048,8.335,8.2927,8.3971,8.397,8.2393,8.3384,8.3141,8.1068,8.1021,8.0605,7.9649,7.9649,7.8657,7.6601,7.4952,7.3112,7.0951,6.7409,6.445,6.2127,6.005,5.6614,5.2255,5.2186,5.064,4.8018,4.5832,4.3208,4.0421,4.0404,3.8576,3.6023,3.6008,3.2624,2.8058,0.0,0.0,0.0,0.0,0.0,0.0,0.0,0.0,3.6923,0.0,0.0,0.0,3.7661,3.7623,3.7315,3.6423,3.6385,3.5846,3.4622,3.4122,3.3314,3.2083,3.1583,3.1038,0.0,0.0,0.0,0.0,0.0,0.0,0.0,0.0,0.0,0.0,3.745,3.8305,3.8511,4.1142,4.2666,4.4333,5.5818,6.0738,6.1554,6.5582,6.9486,7.2134,6.6645,6.4857,6.5207,6.6086,6.122,5.3749,4.7612,4.414,4.2275,4.1893,4.1519,4.1501,4.2892,0.0,0.0,0.0,0.0,0.0,5.9874,6.371,6.8147,7.409,7.5213,7.6387,8.0277,8.1032,8.0909,8.0546,8.167,8.265,8.2972,8.2503,8.1762,8.0605,8.1135,8.1228,8.0292,8.0966,8.0814,7.9262,7.9961,7.967,7.8028,7.8881,7.83,7.5871,7.5805,7.43,7.1165,7.0643,6.8509,6.4822,6.3792,6.1359,5.76,5.5398,5.2428,4.9212,4.7688,4.4356,4.028,4.3298,4.208,3.8159,3.7571,3.4753,3.1034,3.0531,2.8277,2.5363,0.0,0.0,0.0,0.0,0.0,0.0,0.0,0.0,0.0,0.0,0.0,0.0,3.8584,3.8238,3.7815,3.7276,3.7238,3.6661,3.5315,3.493,3.4122,3.2814,3.2083,3.1468,3.0962,0.0,0.0,0.0,0.0,0.0,0.0,0.0,0.0,0.0,0.0,0.0,0.0,4.1785,4.3198,4.4726,5.624,6.1288,6.2516,6.7628,7.1809,7.4514,7.1042,7.029,7.1096,7.2442,6.558,5.5889,5.2441,4.7648,4.314,4.2291,4.1714,4.1489,4.2376,4.2869,4.3573,4.5381,0.0,0.0,5.7948,6.1278,6.5605,7.402,7.5909,7.6974,7.9947,8.0572,8.0442,7.9973,8.02,8.047,8.0617,8.0364,7.9801,7.8649,7.9196,7.9118,7.7866,7.8384,7.8126,7.6626,7.7167,7.6714,7.459,7.5148,7.4318,7.1731,7.195,7.0615,6.7598,6.6645,6.4426,6.1055,6.012,5.7786,5.4389,5.1825,4.921,4.6665,4.4267,4.0875,3.7275,4.0089,3.9004,3.5308,3.3837,3.1398,2.8567,2.7075,2.483,2.2482,0.0,0.0,0.0,0.0,0.0,0.0,0.0,0.0,0.0,0.0,4.0285,4.0516,3.9785,3.9046,3.8546,3.843,3.8315,3.7892,3.7046,3.6154,3.5231,3.4398,3.2814,3.1891,3.1698,3.1717,0.0,0.0,0.0,0.0,0.0,0.0,3.4608,3.5661,0.0,0.0,0.0,4.2617,4.4062,4.5661,5.6971,6.2002,6.3297,6.8914,7.2064,7.338,7.2413,7.3097,7.4745,7.6885,7.1093,6.2794,6.1618,5.4365,4.5786,4.306,4.2537,4.2753,4.2233,4.2624,4.3423,4.4205,4.5303,0.0,5.8521,6.1085,6.4123,7.3897,7.7121,7.8081,7.7866,7.8252,7.8603,7.8531,7.7831,7.7377,7.7431,7.8034,7.7972,7.6811,7.7374,7.7279,7.5707,7.6252,7.6027,7.4537,7.468,7.3723,7.1182,7.0715,6.9717,6.7918,6.814,6.7269,6.5213,6.2871,6.0691,5.8521,5.6396,5.4016,5.1453,4.885,4.6387,4.388,4.1426,3.8971,3.677,3.6212,3.4675,3.2366,2.9969,2.8358,2.7071,2.4665,2.198,1.9593,0.0,0.0,0.0,0.0,0.0,0.0,0.0,0.0,0.0,4.1123,4.2047,4.2547,4.2393,4.22,4.1816,4.1123,4.0431,3.9669,3.8854,3.7315,3.6115,3.5269,3.4276,3.3083,3.1737,3.1741,3.1333,3.0482,3.0843,3.1421,3.2116,3.2979,3.3897,3.4909,0.0,0.0,0.0,4.2617,4.6395,5.1375,5.9283,6.2445,6.3532,7.3365,7.7662,7.8381,7.818,7.842,7.8175,7.361,7.019,6.6374,5.7992,5.5823,5.471,4.6291,4.5956,4.7617,4.4621,4.3932,4.4196,4.4794,4.5159,0.0,4.8097,4.8692,5.0731,5.7684,5.9869,6.1544,6.4776,6.5843,6.6018,6.5477,6.798,7.1883,7.7481,7.8164,7.7337,7.5402,7.6258,7.6207,7.4144,7.5073,7.5214,7.3651,7.1492,6.9757,6.8618,6.8518,6.8044,6.6974,6.5154,6.3262,6.1279,5.8827,5.6367,5.3771,5.2942,5.0242,4.6075,4.5427,4.2533,3.8021,3.8036,3.6256,3.3391,3.1445,3.0317,2.9794,2.8768,2.5775,2.1831,2.1067,1.9133,1.6885,0.0,0.0,0.0,0.0,0.0,0.0,0.0,0.0,0.0,4.1692,4.2547,4.3085,4.3085,4.3085,4.2931,4.2508,4.2047,4.1431,4.0585,3.9315,3.8243,3.7494,3.5791,3.4518,3.3751,3.2463,3.1594,3.1188,3.0801,3.1284,3.2568,3.2999,3.4114,3.5852,3.7633,3.9408,4.1202,4.2968,4.7886,5.4968,6.0395,6.4231,6.7726,7.6571,8.02,8.0629,8.105,8.106,8.0428,7.7641,7.2654,6.7063,6.3655,6.0302,5.636,4.9885,4.9297,4.9627,4.4558,4.3465,4.3852,4.4125,4.4386,0.0,0.0,4.8988,5.0377,5.6683,5.8103,5.8846,6.0953,6.1527,6.1516,6.1219,6.4387,6.7456,6.9076,7.3292,7.5836,7.4738,7.4853,7.4356,7.2564,7.3273,7.2979,7.0843,6.8738,6.6907,6.5633,6.4957,6.409,6.2973,6.0905,5.935,5.8369,5.5977,5.3268,5.0204,4.885,4.618,4.2411,4.1083,3.9005,3.6468,3.4074,3.2222,3.0639,2.7886,2.5943,2.4727,2.4404,2.2665,2.0023,1.865,1.7377,1.6218,0.0,0.0,0.0,0.0,0.0,0.0,0.0,0.0,0.0,4.2239,4.3049,4.3612,4.3612,4.4361,4.4931,4.5072,4.5711,4.5402,4.3879,4.2802,4.1478,3.9751,3.751,3.6128,3.5817,3.3693,3.2453,3.2174,3.1481,3.1875,3.3239,3.3395,3.4697,3.6914,3.9452,4.125,4.2476,4.4873,5.0376,5.7843,6.1291,6.6593,7.306,7.9276,8.1913,8.2353,8.2792,8.2505,8.1896,8.1783,7.5365,6.7638,6.8775,6.4445,5.7872,5.2591,5.2069,5.1699,4.463,4.3127,4.3541,4.3439,4.3732,4.5366,0.0,0.0,0.0,5.6868,5.7655,5.7351,5.7247,5.7246,5.7251,5.7123,6.0184,6.1593,5.8475,6.5443,7.0903,7.1197,7.2334,7.2081,6.933,6.9519,6.9023,6.7118,6.5214,6.354,6.2353,6.1026,5.9888,5.8912,5.6878,5.5844,5.5932,5.2953,5.0145,4.7366,4.4819,4.2156,3.9487,3.7267,3.5905,3.5021,3.0587,2.8538,2.7935,2.4851,2.2308,2.0315,2.0315,1.9941,1.9075,1.7056,1.6327,1.6374,3.55,3.55,0.0,0.0,0.0,0.0,0.0,0.0,0.0,4.3816,4.487,4.5479,4.5479,4.8993,5.1593,5.2161,5.4984,5.5104,5.1197,4.9443,4.622,4.0945,3.9688,3.81,3.5859,3.5554,3.4683,3.3132,3.3118,3.3162,3.3397,3.4178,3.5117,3.6484,4.4787,4.6243,4.2889,5.0486,5.6517,6.1098,6.3048,6.9146,7.7506,8.1896,8.4533,8.5681,8.4587,8.3695,8.2445,7.8739,7.5213,7.1031,6.3081,6.447,6.6373,5.2627,5.3434,5.6848,4.7807,4.4925,4.4382,4.3997,4.3953,4.4113,4.4552,0.0,4.3946,4.469,0.0,4.4865,4.4316,0.0,0.0,4.4477,4.805,5.098,5.1045,5.4796,5.8026,5.9255,6.7089,6.9517,6.2188,6.1554,6.2053,6.3005,5.917,5.7424,5.8964,5.7422,5.6804,5.7489,5.4835,5.359,5.4104,4.8769,4.5683,4.4928,4.1717,3.9039,3.6853,3.6201,3.3559,2.9566,2.895,2.7232,2.4669,2.1967,2.0561,2.0012,2.0012,1.8634,1.6682,1.6401,1.6388,1.6517,3.5577,3.55,0.0,0.0,0.0,0.0,0.0,0.0,0.0,4.5586,4.6172,4.6606,4.7069,4.8802,5.1008,5.3782,5.5359,5.5214,5.3004,5.1718,4.8701,4.3404,4.1374,3.9914,3.8965,3.6925,3.5564,3.4879,3.3867,3.3672,3.4141,3.4531,3.5662,3.7715,4.5186,4.8365,4.8405,5.2602,5.849,6.5079,6.5793,7.1402,7.9661,8.281,8.4816,8.5756,8.4346,8.3878,8.373,8.1938,7.7057,7.1732,7.1654,6.8657,6.3956,5.8166,5.6867,5.575,4.8506,4.761,4.8028,4.5139,4.5823,4.6519,4.3685,4.258,4.22,4.22,0.0,0.0,0.0,0.0,0.0,0.0,4.4074,4.5748,4.3677,4.8122,5.2868,5.6419,5.9853,6.12,5.948,5.8888,5.9024,5.991,5.5756,5.3875,5.5652,5.3786,5.2471,5.1965,4.9584,4.7795,4.6631,4.418,4.1924,3.9809,3.8387,3.6345,3.3622,3.2268,3.0493,2.8222,2.5246,2.3215,2.184,1.9072,1.7861,1.7884,1.7884,1.7242,1.6334,1.6503,1.6605,1.6673,3.6231,0.0,0.0,0.0,0.0,0.0,0.0,4.3324,4.5227,4.6758,4.697,4.7411,4.8515,5.0481,5.3178,5.6716,5.8905,5.8819,5.5673,5.4896,5.2371,4.7383,4.3878,4.2516,4.3544,3.949,3.7023,3.6367,3.5078,3.4687,3.5078,3.5312,3.6481,3.8761,4.5737,5.0151,5.2525,5.5413,6.1312,6.8728,6.8794,7.3134,7.9929,8.3249,8.4882,8.5189,8.4105,8.378,8.3756,8.3231,7.7861,7.2144,7.607,7.1246,6.3998,6.3167,6.1099,5.7529,5.0569,5.0209,5.0579,4.5723,4.6145,4.6883,4.3519,4.2121,4.1538,4.1538,4.1105,0.0,0.0,0.0,3.9638,3.9247,0.0,4.1014,3.8102,4.1706,4.6256,5.0559,5.1053,5.2263,5.516,5.4039,5.37,5.5163,5.1066,4.9745,5.2557,5.0053,4.8016,4.7184,4.4979,4.3011,4.1311,4.0445,3.875,3.6256,3.5515,3.3583,3.0721,2.9189,2.7576,2.5885,2.1983,1.99,1.9104,1.6956,1.6212,1.632,1.6402,1.6429,1.6456,1.6673,1.6775,1.6829,3.7777,3.7238,0.0,0.0,3.9315,0.0,4.3778,4.4979,4.5949,4.6971,4.7162,4.7907,4.975,5.6556,6.1638,6.3255,7.0126,7.0475,6.133,6.0787,5.8545,5.3441,4.7856,4.6356,4.957,4.3969,3.9805,3.7266,3.7187,3.6758,3.5976,3.6836,3.7695,3.8984,4.8029,5.218,5.2892,6.0333,6.6618,7.1578,7.1772,7.4089,7.8025,8.3566,8.5226,8.4642,8.4572,8.3402,8.1563,7.9621,7.6495,7.2866,6.9941,7.0368,7.0942,6.5827,6.5935,6.5545,5.5513,5.2325,5.0567,4.5305,4.3571,4.3076,4.2921,4.1866,4.0909,4.0909,4.048,3.9901,3.9096,3.8968,3.8466,3.7038,3.6045,0.0,0.0,3.4558,3.4983,3.7321,4.0613,4.394,4.7186,4.42,4.3726,4.7676,4.3731,4.3849,4.9973,4.596,4.3851,4.465,4.2219,4.0896,4.0896,3.8006,3.6351,3.602,3.3222,3.0651,2.8339,2.8006,2.5193,2.0656,2.017,1.8623,1.6196,1.6246,1.6307,1.6341,1.6625,1.6734,1.6734,1.6748,1.6842,1.6971,0.0,0.0,0.0,3.8815,3.9785,4.1362,4.3893,4.5611,4.7902,5.1511,5.2545,5.4674,5.9174,6.1959,6.5104,6.8971,7.1153,6.9566,6.3071,6.2236,5.9703,5.4594,4.8903,4.7644,5.1487,4.475,4.0781,3.9883,3.8711,3.8008,3.7734,3.8008,3.8633,3.9804,4.7371,5.3267,5.7805,6.1484,6.7032,7.3134,7.1125,7.3155,7.7518,7.9406,7.9883,7.9854,8.2576,8.2964,8.2143,8.1448,7.8642,7.5581,7.6421,7.3308,6.9419,6.9598,6.7061,6.3459,6.0011,5.9265,5.7868,5.1008,5.0331,5.0048,4.4992,4.233,4.0843,4.0426,3.977,3.9028,3.8315,3.7225,3.6291,3.5799,3.4456,3.3482,0.0,3.1965,3.1047,3.1575,3.6478,4.0106,4.0794,4.1801,4.3083,4.4836,4.197,4.1483,4.4367,4.1335,3.8943,3.7885,3.735,3.6382,3.4806,3.377,3.2422,3.0831,2.9629,2.7815,2.5259,2.368,2.1909,2.0071,1.8251,1.6921,1.6239,1.6286,1.6422,1.6612,1.6714,1.6809,1.6904,1.6904,1.6937,1.6978,3.8931,3.9381,3.9784,3.9784,4.1035,4.2737,4.4981,4.6335,4.9114,5.4783,5.6015,5.8728,6.4961,6.6657,6.8812,7.2425,7.3274,7.1004,6.4831,6.5121,6.3641,5.9444,5.4615,5.4219,5.896,4.9928,4.4842,4.4216,4.0987,3.9079,3.8495,3.8807,3.9393,4.0439,4.5396,5.2597,6.1058,6.1913,6.7932,7.643,7.1331,7.1419,7.4551,7.4583,7.552,7.7378,8.1365,8.2221,8.1539,8.211,8.0106,7.771,7.9889,7.621,7.1422,7.3334,7.0241,6.5747,6.3876,6.378,6.2464,5.5495,5.4861,5.4244,4.7432,4.4576,4.2716,4.0528,3.9272,3.8309,3.7434,3.6014,3.4898,3.4622,3.3171,3.1838,0.0,2.9515,2.8331,2.8087,3.2067,3.5083,3.565,3.667,3.8209,4.0335,3.8121,3.7559,3.948,3.7384,3.5598,3.4427,3.4163,3.3211,3.1356,3.0691,2.9567,2.7886,2.6845,2.497,2.2419,2.0995,1.9709,1.8525,1.6921,1.6218,1.632,1.6422,1.6578,1.6754,1.6809,1.6897,1.6978,1.6978,1.6978,1.6978,4.0492,4.0784,4.0915,4.0915,4.3029,4.5265,4.6939,4.715,4.968,5.6777,5.7691,6.0344,6.7386,7.094,7.3207,7.4108,7.6927,7.519,6.7026,6.9435,7.012,6.7761,6.4334,6.5198,7.0973,5.8753,5.1495,4.9846,4.3807,4.0061,3.8502,3.9326,4.0143,4.0913,4.2532,5.0259,6.1984,6.1428,6.8921,8.0402,7.22,6.9156,6.9558,6.9813,7.2727,7.7164,8.0957,8.1139,7.9798,8.1263,8.0549,7.9161,7.9871,7.8578,7.67,7.67,7.508,7.2198,6.7198,6.569,6.4157,5.8468,5.6824,5.5263,5.0053,4.8294,4.6365,4.1469,3.9524,3.8284,3.6819,3.5581,3.4476,3.3422,3.2011,3.0329,2.8307,2.7058,2.6337,2.6337,2.7164,2.8762,3.1483,2.9126,2.9411,3.4314,3.2371,3.2342,3.5589,3.4368,3.3635,3.4006,3.2305,3.1155,3.0399,2.8637,2.752,2.6907,2.4589,2.22,1.9782,1.9782,1.8426,1.6103,1.6246,1.632,1.6354,1.6632,1.6754,1.6775,1.6924,1.6978,1.6978,1.6978,1.6978,1.6978,4.2473,4.3237,4.3827,4.3827,4.4292,4.5265,4.6939,4.8287,5.218,6.0828,6.304,6.7358,7.6584,7.8353,7.9466,8.093,8.0792,7.8114,7.2231,7.2261,7.213,7.122,6.6457,6.6159,7.1195,5.8984,5.2314,5.1871,4.5093,4.1548,4.112,0.0,4.1587,4.1855,4.3468,4.8404,5.5578,5.6572,6.2175,7.0281,6.8482,6.8172,6.9139,7.2171,7.408,7.5687,7.9766,8.0374,7.9313,7.9688,7.9095,7.8219,7.8418,7.7315,7.5894,7.5894,7.4294,7.2276,7.0941,6.8303,6.5042,6.1294,5.8852,5.6324,5.2285,5.0647,4.9352,4.7068,4.6217,4.4581,4.0491,3.8915,3.6804,3.2323,2.9691,2.7975,2.7417,2.5359,2.3894,2.3894,2.3009,2.351,2.631,2.7251,2.8616,3.0975,3.0446,3.1121,3.3862,3.0994,2.8958,2.837,2.8223,2.7122,2.5032,2.4659,2.3531,2.173,2.0813,1.9287,1.7055,1.7055,1.6828,1.6252,1.6293,1.6435,1.6639,1.672,1.6815,1.6924,1.6965,1.6978,1.6978,1.6978,1.6978,1.6663,4.3296,4.4458,4.5556,4.6002,4.8432,5.0622,5.1559,5.0975,5.4245,6.4998,6.6859,7.0335,7.8615,8.0844,8.2138,8.3058,8.2124,7.963,7.5399,7.5804,7.5687,7.4448,7.2054,7.2206,7.5266,6.5482,5.9026,5.6332,4.975,4.5171,4.2542,0.0,0.0,4.3072,4.3852,4.7865,5.4495,6.0589,6.4556,6.7009,6.9318,7.0217,0.0,7.2371,7.4071,7.5756,7.81,7.8919,7.9083,7.9418,7.8527,7.7283,7.7315,7.6034,7.4585,7.4585,7.2583,7.0461,7.0461,6.8122,6.5188,6.3243,6.1824,5.9762,5.5463,5.4076,5.2537,4.8599,4.7294,4.5502,4.128,3.8725,3.5646,3.0648,2.8223,2.6647,2.5929,2.4024,2.2497,2.1935,2.0629,2.0491,2.2235,2.3733,2.5622,2.7987,2.7221,2.7044,2.7803,2.6731,2.5483,2.4118,2.462,2.4232,2.284,2.184,2.0736,1.9589,1.8423,1.7201,1.6083,1.6151,1.6232,1.632,1.6442,1.6598,1.6754,1.6822,1.6904,1.6873,1.5592,1.5165,1.4955,1.3785,1.4101,1.4739,4.3948,4.5294,4.6781,4.7773,5.3357,5.7983,5.8875,5.5762,5.7532,6.9359,7.0108,7.1827,7.7807,8.104,8.2812,8.2927,8.2248,8.0608,7.7673,7.9468,7.9722,7.7733,7.8751,7.9803,8.0766,7.3943,6.7437,6.1484,5.5321,4.9248,4.3431,4.3282,0.0,4.4217,4.41,4.8304,5.6126,6.6685,6.9463,6.7107,7.1653,7.2835,7.1878,7.1917,7.3793,7.6545,7.6705,7.764,7.8779,7.9435,7.8208,7.6378,7.641,7.4709,7.2765,7.2673,7.0379,6.7856,6.777,6.63,6.472,6.4127,6.4017,6.2828,5.8134,5.689,5.4865,4.8486,4.64,4.463,4.1353,3.7054,3.2857,2.9141,2.7384,2.5963,2.46,2.3135,2.1778,2.0702,1.9301,0.0,1.8907,1.9849,2.1759,2.4805,2.3317,2.181,2.0838,2.2406,2.2653,2.1049,2.1628,2.174,2.1457,1.9499,1.8582,1.8702,1.6821,1.5934,1.609,1.6239,1.632,1.6354,1.6632,1.6761,1.6788,1.6924,1.6768,1.6229,1.3675,1.2505,1.1763,0.9016,0.9436,1.1235,4.6828,4.7693,4.8671,4.9609,5.4648,6.0472,6.6134,6.5556,6.7058,7.4204,7.4887,7.6972,8.2941,8.3637,8.3938,8.4625,8.3602,8.2406,8.118,8.1585,8.1941,8.206,8.1148,8.1311,8.2687,7.4729,6.8185,6.3423,5.5955,4.987,4.5124,4.4145,4.3757,4.3937,4.499,4.9264,5.5869,5.903,6.1779,6.4383,6.8948,7.0238,6.9925,7.4004,7.6009,7.6705,7.7856,7.8007,7.7794,7.7923,7.6817,7.5465,7.5465,7.3144,7.039,6.9933,6.825,6.6307,6.5849,6.431,6.2878,6.2771,6.0201,5.7409,5.6082,5.4693,5.3227,5.1444,5.1288,5.0139,4.5947,3.8005,3.1486,2.9618,2.7035,2.5466,2.5863,2.3107,2.1169,2.1375,1.7899,1.5774,1.6296,1.8072,1.9582,2.0451,1.9573,1.9599,2.1028,2.0436,1.9785,1.9077,1.959,1.8607,1.6081,1.6342,1.6213,1.5915,1.5953,1.5934,1.609,1.6239,1.6374,1.6497,1.6673,1.6822,1.6944,1.6971,1.5592,1.3353,1.2932,1.1235,0.8911,0.6054,0.5313,0.5629,4.8867,4.9565,5.119,5.4732,6.0527,6.6648,7.2597,7.5277,7.6896,7.7696,7.7275,7.8064,8.1057,8.2974,8.4059,8.4103,8.3246,8.2523,8.2123,8.175,8.2086,8.3238,8.2228,8.1939,8.2678,7.8148,7.1801,6.3637,5.9334,5.3487,4.6329,4.5746,4.5483,4.5597,4.8861,5.1988,5.5221,6.0979,6.4487,6.656,7.1135,7.2252,7.1441,7.4256,7.4408,7.3286,7.4258,7.3901,7.3335,7.5215,7.4541,7.2797,7.1757,7.0029,6.8368,6.8396,6.7019,6.5409,6.5113,6.2712,6.0355,6.0054,5.7381,5.474,5.451,5.3683,5.2524,5.1061,5.0017,4.7443,4.1283,3.5356,3.0891,2.9399,2.7192,2.5324,2.4249,2.2608,2.0803,1.9115,1.6661,1.5209,1.5628,1.6264,1.6797,1.6995,1.6956,1.7188,1.7662,1.7437,1.707,1.6354,1.6621,1.6253,1.5086,1.5296,1.5404,1.5425,1.5791,1.6049,1.6205,1.6354,1.6503,1.6646,1.6802,1.691,1.6873,1.5376,1.399,1.24,0.9439,0.7429,0.5947,0.3084,0.2022,0.2022,5.1947,5.2057,5.4031,6.1061,6.6657,7.1969,7.7245,8.2225,8.4205,8.099,7.976,7.919,7.9377,8.2151,8.3772,8.3246,8.2585,8.226,8.2443,8.1856,8.2125,8.3498,8.2766,8.2333,8.2237,8.0948,7.5303,6.5271,6.3106,5.7313,4.819,4.7477,4.7557,4.8416,5.2542,5.5238,5.7187,6.5487,6.919,6.9787,7.3162,7.3626,7.2326,7.2584,7.131,6.9536,7.0235,6.9833,6.9309,7.171,7.1593,7.0176,6.8586,6.7439,6.6766,6.7046,6.5459,6.3516,6.3387,6.052,5.7489,5.7089,5.5009,5.306,5.306,5.1971,5.0485,4.8753,4.6239,4.2357,3.5692,3.2676,3.0665,2.8894,2.6961,2.4908,2.2589,2.1731,2.023,1.7319,1.5595,1.4862,1.5408,1.4419,1.3846,1.4075,1.4928,1.501,1.409,1.4687,1.4586,1.364,1.4167,1.4537,1.4503,1.4973,1.5303,1.5594,1.5961,1.6191,1.6313,1.649,1.6632,1.6761,1.691,1.6656,1.5914,1.3037,1.1446,1.0496,0.5947,0.3828,0.3085,0.0852,0.0,0.0,5.8265,5.6335,5.7172,6.7541,7.0026,7.2525,7.8352,8.2835,8.5396,8.4896,8.4039,8.3535,8.3648,8.3415,8.3275,8.3218,8.2585,8.2517,8.3251,8.3251,8.3431,8.4022,8.3261,8.2701,8.2388,8.0207,7.6529,7.1396,6.5692,5.9188,5.2092,4.9076,4.9284,5.2317,5.3513,5.8222,6.5493,6.8484,7.0489,7.1741,7.1129,7.0236,6.9182,6.8117,6.787,6.817,6.8882,6.901,6.8662,6.7084,6.7697,6.9029,6.888,6.7463,6.5813,6.5337,6.2303,5.8982,5.8502,5.6545,5.4614,5.4569,5.2821,5.1179,5.1179,4.7731,4.4489,4.4325,4.1804,3.853,3.4899,3.2629,3.0551,2.8015,2.5383,2.3456,2.2917,2.0482,1.8759,1.8785,1.5184,1.3227,1.4408,1.2331,1.1132,1.1705,1.3159,1.3642,1.2908,1.3079,1.2694,1.1494,1.3439,1.3566,1.1598,1.4444,1.5655,1.5438,1.6015,1.6293,1.632,1.6598,1.6734,1.6761,1.691,1.5487,1.2932,1.0074,0.7323,0.4995,0.4357,0.266,0.032,0.0107,0.0,0.0,6.7015,6.5915,6.6934,7.4873,7.5997,7.7578,8.2995,8.5294,8.6264,8.572,8.5243,8.4834,8.4473,8.4562,8.4188,8.3124,8.2785,8.2468,8.2088,8.2086,8.2398,8.3075,8.275,8.2547,8.2375,8.0813,7.7543,7.2503,6.6247,6.0361,5.4926,5.3025,5.4278,5.8207,6.1339,6.3629,6.5318,6.8691,6.9506,6.8451,6.7999,6.7749,6.7701,6.7561,6.7128,6.6661,6.6903,6.6234,6.4923,6.2678,6.3305,6.4742,6.352,6.1598,5.9883,5.9979,5.8762,5.7332,5.7125,5.5352,5.318,5.1251,4.8882,4.6595,4.4985,4.298,4.1398,4.1176,3.877,3.5425,3.1193,2.8903,2.7012,2.5196,2.3032,2.1283,2.0443,1.9248,1.7781,1.6081,1.3975,1.2823,1.3308,1.1699,1.0435,0.9934,1.1157,1.2078,1.236,1.2813,1.2452,1.0933,1.3588,1.3906,1.156,1.4317,1.571,1.5683,1.611,1.6354,1.6442,1.6653,1.5846,1.4342,1.4394,1.2827,0.9968,0.7111,0.5205,0.404,0.2341,0.0958,0.0,0.0,0.0,0.0,7.4048,7.2869,7.3726,8.0895,8.0629,8.1074,8.6078,8.6926,8.6671,8.5768,8.5551,8.5132,8.4195,8.4522,8.4251,8.2843,8.2545,8.2267,8.188,8.1661,8.1747,8.2224,8.2259,8.212,8.1767,8.0337,7.7765,7.3929,6.7645,6.2678,5.897,5.6969,5.8618,6.3402,6.6078,6.677,6.6017,6.8562,6.8307,6.6284,6.5892,6.608,6.6556,6.6622,6.5607,6.4064,6.4145,6.269,6.0553,5.8884,5.8851,5.932,5.8559,5.7177,5.5946,5.637,5.6021,5.54,5.4621,5.2764,5.0417,4.727,4.5046,4.3096,4.1157,3.9896,3.8798,3.7508,3.5064,3.1975,2.8235,2.5777,2.3914,2.2658,2.0928,1.9319,1.8144,1.7599,1.6518,1.4084,1.3261,1.2589,1.1981,1.1436,1.0256,0.8261,1.0187,1.1517,1.1638,1.2141,1.1981,1.1002,1.3713,1.4083,1.1867,1.3615,1.4605,1.4781,1.4208,1.3973,1.4094,1.4227,1.3278,1.1446,1.0602,0.9122,0.7005,0.4145,0.2979,0.2766,0.0746,0.0,0.0,0.0,0.0,0.0,7.8245,7.5225,7.5034,8.4985,8.2899,8.1448,8.6261,8.6995,8.6571,8.5432,8.5281,8.4703,8.3077,8.2932,8.2766,8.2346,8.1626,8.1873,8.3394,8.28,8.2259,8.1933,8.1922,8.1379,8.0276,7.7998,7.6795,7.6782,7.0623,6.6759,6.4915,6.0288,6.1403,6.7173,6.5203,6.6416,6.9786,6.8451,6.7488,6.6799,6.5475,6.5238,6.5582,6.422,6.2327,6.0286,6.0286,5.839,5.5966,5.5966,5.4389,5.2902,5.518,5.5879,5.5879,5.5901,5.4561,5.245,4.9716,4.7667,4.5504,4.2483,4.17,4.1601,4.1222,3.9205,3.6329,3.2941,2.9909,2.7711,2.6993,2.4415,2.198,2.0783,1.9319,1.7792,1.6564,1.5645,1.4685,1.3933,1.3444,1.2421,1.034,1.1312,1.0497,0.661,1.0549,1.2383,1.0605,1.0533,1.0865,1.1576,1.3632,1.3793,1.1862,1.1854,1.1997,1.211,0.9554,0.84,0.8375,0.8555,0.859,0.8382,0.5523,0.4253,0.404,0.1171,0.0,0.0,0.0,0.0,0.0,0.0,0.0,0.0,8.5572,8.4315,8.3922,8.7108,8.5407,8.4064,8.5625,8.5162,8.4711,8.4842,8.4872,8.4613,8.3824,8.3939,8.3939,8.3553,8.3322,8.3055,8.2747,8.2094,8.113,7.9947,7.9459,7.8511,7.7082,7.6353,7.5999,7.5999,7.045,6.7377,6.661,6.4254,6.5742,7.0341,6.8295,6.7346,6.7078,6.6254,6.5259,6.3955,6.1864,6.1555,6.2139,6.0025,5.8997,5.8585,5.79,5.7121,5.602,5.4424,5.3459,5.2416,4.9993,5.0305,5.1199,4.964,4.8783,4.7703,4.4682,4.35,4.2385,3.9374,3.8709,3.8188,3.6341,3.3656,3.1237,3.012,2.7437,2.4649,2.274,2.1426,1.9984,1.775,1.6852,1.6234,1.5624,1.4882,1.3633,1.157,1.0826,0.9651,0.7742,0.7524,0.6705,0.4602,0.544,0.714,0.9588,1.1921,1.2553,1.1034,1.2026,1.1541,0.9257,0.9164,0.9201,0.9271,0.8635,0.8327,0.845,0.8474,0.7429,0.5523,0.457,0.3085,0.1278,0.032,0.0,0.0,0.0,0.0,0.0,0.0,0.0,0.0,8.8696,8.8329,8.7817,8.7522,8.6388,8.5508,8.5508,8.5144,8.4749,8.4517,8.4753,8.4379,8.3108,8.3213,8.3486,8.3846,8.3625,8.304,8.1973,8.1249,8.0106,7.8518,7.7777,7.6937,7.5963,7.5125,7.4375,7.3651,6.9303,6.721,6.7211,6.6628,6.7976,7.0667,6.8662,6.7118,6.6003,6.3998,6.2665,6.188,5.9601,5.918,5.9585,5.8255,5.7329,5.6644,5.5941,5.5073,5.3766,5.1246,5.0411,4.9723,4.5956,4.5752,4.6462,4.4939,4.462,4.3964,4.1095,4.034,3.9668,3.6787,3.6019,3.5294,3.2498,2.951,2.737,2.7281,2.4755,2.211,2.0462,1.9224,1.7901,1.616,1.5683,1.5425,1.5065,1.3926,1.2316,1.021,0.9007,0.7412,0.5248,0.5554,0.4848,0.2394,0.3747,0.5359,0.7181,0.933,1.0252,0.9608,1.0067,0.9505,0.7914,0.6925,0.6461,0.6459,0.5607,0.5253,0.5311,0.5311,0.4357,0.266,0.266,0.1597,0.0,0.0,0.0,0.0,0.0,0.0,0.0,0.0,0.0,0.0,8.8098,8.766,8.7141,8.642,8.5947,8.5702,8.5702,8.6124,8.5868,8.4177,8.4521,8.3926,8.1421,8.1171,8.1734,8.3235,8.2667,8.1846,8.1087,8.0326,7.9252,7.7549,7.6728,7.6196,7.6077,7.3971,7.1924,7.0081,6.7563,6.6484,6.7009,6.7571,6.8131,6.8586,6.6364,6.566,6.5864,6.1544,5.9985,6.0332,5.8412,5.7645,5.7757,5.8088,5.6435,5.3997,5.3935,5.2115,4.932,4.6749,4.5841,4.5408,4.319,4.226,4.1981,4.1783,4.1866,4.1354,3.8656,3.7966,3.7387,3.4314,3.3435,3.2531,2.9682,2.6659,2.4497,2.4307,2.1995,1.9908,1.9733,1.7614,1.5852,1.5852,1.5484,1.4945,1.4519,1.2481,1.0687,0.9493,0.7658,0.5437,0.2951,0.4838,0.4464,0.0285,0.4506,0.6161,0.366,0.3657,0.4937,0.7709,0.7761,0.7701,0.7537,0.4954,0.3693,0.373,0.1162,0.0,0.0,0.0,0.0,0.0,0.0,0.0,0.0,0.0,0.0,0.0,0.0,0.0,0.0,0.0,0.0,0.0,8.5596,8.5448,8.5351,8.5131,8.4773,8.4506,8.4506,8.3262,8.2469,8.2576,8.205,8.1653,8.1572,8.1546,8.1698,8.2094,8.1079,8.0313,8.0118,7.9837,7.8984,7.7432,7.5157,7.3389,7.2264,6.9696,6.8004,6.7101,6.6918,6.6871,6.7009,6.6104,6.5959,6.6364,6.2571,6.0944,6.09,5.8026,5.7201,5.7458,5.5101,5.4619,5.5145,5.3,5.0875,4.8997,4.8359,4.6525,4.4364,4.3753,4.3455,4.3073,4.056,3.9617,3.9556,3.9556,3.9489,3.8641,3.5728,3.4977,3.4186,3.1123,2.879,2.7031,2.6352,2.3919,2.1821,2.1776,1.9298,1.7192,1.7149,1.6524,1.5852,1.5852,1.4056,1.2545,1.2369,0.9833,0.7299,0.5463,0.44,0.3007,0.0904,0.1188,0.111,0.0094,0.1142,0.1525,0.0946,0.094,0.3047,0.7692,0.5859,0.479,0.4913,0.2236,0.0928,0.0944,0.0318,0.0,0.0,0.0,0.0,0.0,0.0,0.0,0.0,0.0,0.0,0.0,0.0,0.0,0.0,0.0,0.0,0.0,8.5737,8.5251,8.4626,8.3932,8.3143,8.2448,8.2201,8.1449,8.0997,8.103,8.0867,8.0582,8.0205,8.014,7.9944,7.9503,8.0207,8.0359,7.9606,7.9479,7.8353,7.5773,7.3922,7.2095,7.0261,6.854,6.7059,6.591,6.5323,6.5098,6.5048,6.3274,6.2538,6.2653,5.9259,5.7893,5.793,5.5578,5.4889,5.5033,5.1359,5.0303,5.0681,4.7895,4.6351,4.55,4.4985,4.4072,4.2836,4.1522,4.1021,4.049,3.7782,3.5925,3.4741,3.4741,3.4619,3.4077,3.2443,3.0978,2.9495,2.7816,2.5338,2.3222,2.3222,2.1029,1.8829,1.8776,1.7473,1.5857,1.4513,1.4211,1.3755,1.2457,1.1003,0.9862,0.9622,0.7214,0.5027,0.365,0.2308,0.1171,0.0094,0.0,0.0,0.0,0.0,0.0,0.0,0.0,0.1273,0.4167,0.2794,0.2111,0.213,0.0721,0.0,0.0,0.0,0.0,0.0,0.0,0.0,0.0,0.0,0.0,0.0,0.0,0.0,0.0,0.0,0.0,0.0,0.0,0.0,0.0,8.6043,8.5053,8.3784,8.2577,8.1342,8.032,7.9436,7.9759,7.97,7.8785,7.9069,7.8834,7.7344,7.7142,7.6864,7.6106,7.8562,7.967,7.8532,7.8254,7.6694,7.353,7.2541,7.1184,6.9406,6.8371,6.7043,6.5371,6.3362,6.2348,6.2323,5.9883,5.8847,5.8724,5.6422,5.5665,5.5844,5.2981,5.2087,5.2127,4.7508,4.5789,4.5868,4.3621,4.2754,4.2709,4.2644,4.2323,4.1627,3.9401,3.8148,3.7051,3.481,3.1743,2.9181,2.9146,2.8815,2.8609,2.9032,2.6901,2.4588,2.4559,2.2364,2.02,1.9758,1.769,1.5697,1.505,1.4982,1.4267,1.1748,1.1371,1.0708,0.8375,0.7529,0.7058,0.6679,0.4663,0.3081,0.2709,0.1037,0.0,0.0,0.0,0.0,0.0,0.0,0.0,0.0,0.0,0.0,0.0,0.0,0.0,0.0,0.0,0.0,0.0,0.0,0.0,0.0,0.0,0.0,0.0,0.0,0.0,0.0,0.0,0.0,0.0,0.0,0.0,0.0,0.0,0.0,0.0,8.1582,8.0966,8.0343,8.0118,7.9982,7.9344,7.7557,7.6625,7.5472,7.3709,7.2835,7.2272,7.1954,7.1954,7.2085,7.2378,7.2857,7.3564,7.4489,7.3414,7.2406,7.1845,7.0117,6.8973,6.8651,6.6365,6.478,6.4019,6.1652,6.0422,6.0422,5.7533,5.6516,5.6813,5.4121,5.3034,5.2719,4.8216,4.6426,4.6547,4.3534,4.2689,4.3256,4.2443,4.1235,3.9844,3.9453,3.7958,3.6038,3.5636,3.3733,3.1457,3.0836,2.8619,2.6234,2.5933,2.4235,2.3004,2.5265,2.3906,2.1682,2.1619,1.9418,1.67,1.4391,1.3344,1.2338,0.997,0.9407,0.9155,0.8628,0.8478,0.8373,0.7886,0.5935,0.4426,0.4336,0.216,0.0545,0.0468,0.0192,0.0,0.0,0.0,0.0,0.0,0.0,0.0,0.0,0.0,0.0,0.0,0.0,0.0,0.0,0.0,0.0,0.0,0.0,0.0,0.0,0.0,0.0,0.0,0.0,0.0,0.0,0.0,0.0,0.0,0.0,0.0,0.0,0.0,0.0,0.0,7.9729,7.8608,7.735,7.5832,7.4886,7.3961,7.2742,7.2156,7.1551,7.0571,7.0043,6.9903,7.0207,7.0235,7.0483,7.1092,7.016,6.9737,7.0401,7.1489,7.1512,7.0421,6.9477,6.7806,6.5364,6.4075,6.262,6.1049,5.9947,5.9166,5.889,5.5997,5.3899,5.2395,4.9822,4.7889,4.6465,4.4342,4.3489,4.3368,4.0815,4.0037,4.0373,3.8714,3.7636,3.6654,3.4904,3.3408,3.207,3.0584,2.904,2.766,2.7551,2.5561,2.3173,2.2977,2.2131,2.0999,2.08,1.9799,1.8366,1.681,1.5449,1.3598,1.0879,1.0075,0.9593,0.8339,0.8035,0.7527,0.5996,0.5792,0.5248,0.3852,0.255,0.1775,0.1775,0.0748,0.0,0.0,0.0,0.0,0.0,0.0,0.0,0.0,0.0,0.0,0.0,0.0,0.0,0.0,0.0,0.0,0.0,0.0,0.0,0.0,0.0,0.0,0.0,0.0,0.0,0.0,0.0,0.0,0.0,0.0,0.0,0.0,0.0,0.0,0.0,0.0,0.0,0.0,7.7478,7.5974,7.4326,7.2151,7.053,6.9261,6.8366,6.8208,6.78,6.6826,6.6671,6.665,6.6554,6.6581,6.6819,6.7456,6.6088,6.5236,6.5364,6.7648,6.8556,6.7447,6.6938,6.5085,6.1733,6.1644,6.0745,5.8814,5.7661,5.6887,5.6316,5.2898,5.0016,4.7554,4.5514,4.3603,4.1653,4.1241,4.1104,4.0969,3.8328,3.7069,3.6491,3.4526,3.3368,3.2521,3.0376,2.9374,2.8845,2.6745,2.5336,2.4533,2.4533,2.2558,2.0175,2.0127,2.0087,1.956,1.758,1.6445,1.527,1.3145,1.2057,1.0688,0.7927,0.7175,0.6823,0.6177,0.6104,0.552,0.3294,0.3007,0.2396,0.0292,0.0,0.0,0.0,0.0,0.0,0.0,0.0,0.0,0.0,0.0,0.0,0.0,0.0,0.0,0.0,0.0,0.0,0.0,0.0,0.0,0.0,0.0,0.0,0.0,0.0,0.0,0.0,0.0,0.0,0.0,0.0,0.0,0.0,0.0,0.0,0.0,0.0,0.0,0.0,0.0,0.0,0.0,7.2991,7.1944,7.104,7.0831,6.9765,6.8338,6.6312,6.6,6.4607,6.0515,6.0038,5.9198,5.7177,5.6919,5.7101,5.7668,5.7626,5.7767,5.8222,5.849,5.9505,6.1514,5.9882,5.9,5.9066,5.9088,5.8997,5.8814,5.4258,5.1911,5.1497,4.6357,4.3624,4.3173,4.2542,4.2097,4.1817,3.9474,3.8665,3.8615,3.5725,3.3201,3.1171,3.0734,2.8958,2.6745,2.6534,2.6169,2.5881,2.5673,2.3767,2.1431,2.1431,1.9574,1.7266,1.7114,1.6968,1.6817,1.7008,1.5068,1.2942,1.2631,1.0568,0.7832,0.4944,0.4328,0.3624,0.1109,0.0605,0.0505,0.0303,0.0303,0.02,0.0,0.0,0.0,0.0,0.0,0.0,0.0,0.0,0.0,0.0,0.0,0.0,0.0,0.0,0.0,0.0,0.0,0.0,0.0,0.0,0.0,0.0,0.0,0.0,0.0,0.0,0.0,0.0,0.0,0.0,0.0,0.0,0.0,0.0,0.0,0.0,0.0,0.0,0.0,0.0,0.0,0.0,0.0,7.0826,6.8462,6.6299,6.4901,6.2514,6.0535,5.9775,5.9631,5.9043,5.7412,5.7177,5.6832,5.5966,5.6148,5.6306,5.6573,5.5286,5.4539,5.4732,5.181,5.2077,5.6481,5.6256,5.4611,5.1514,5.1514,5.0687,4.923,4.7347,4.637,4.6229,4.3958,4.1915,4.0272,4.0047,3.8015,3.4711,3.3822,3.2524,3.0889,2.9747,2.8666,2.7787,2.7701,2.6839,2.5565,2.3889,2.3034,2.2549,2.0795,1.9508,1.8514,1.841,1.7654,1.649,1.4674,1.4134,1.3738,1.2196,1.2121,1.1613,0.8201,0.6512,0.4952,0.2119,0.1513,0.1211,0.0202,0.0,0.0,0.0,0.0,0.0,0.0,0.0,0.0,0.0,0.0,0.0,0.0,0.0,0.0,0.0,0.0,0.0,0.0,0.0,0.0,0.0,0.0,0.0,0.0,0.0,0.0,0.0,0.0,0.0,0.0,0.0,0.0,0.0,0.0,0.0,0.0,0.0,0.0,0.0,0.0,0.0,0.0,0.0,0.0,0.0,0.0,0.0,0.0,6.6128,6.3776,6.1582,5.9923,5.7553,5.5879,5.5879,5.6013,5.5555,5.3878,5.383,5.3268,5.1693,5.1746,5.1849,5.1849,5.033,4.9351,4.9351,4.6206,4.6211,5.0349,5.0757,4.9354,4.5906,4.5807,4.4979,4.3318,4.2517,4.2109,4.1997,3.9984,3.8075,3.6182,3.5211,3.2666,2.9067,2.9173,2.8001,2.617,2.6062,2.5456,2.4605,2.4538,2.3804,2.2639,2.0773,1.9966,1.9558,1.7601,1.6951,1.6688,1.578,1.4861,1.3629,1.1788,1.1152,1.0625,0.7796,0.8357,0.8828,0.5096,0.3447,0.2217,0.0404,0.0,0.0,0.0,0.0,0.0,0.0,0.0,0.0,0.0,0.0,0.0,0.0,0.0,0.0,0.0,0.0,0.0,0.0,0.0,0.0,0.0,0.0,0.0,0.0,0.0,0.0,0.0,0.0,0.0,0.0,0.0,0.0,0.0,0.0,0.0,0.0,0.0,0.0,0.0,0.0,0.0,0.0,0.0,0.0,0.0,0.0,0.0,0.0,0.0,0.0,0.0,5.821,5.7649,5.7156,5.6751,5.617,5.5769,5.5792,5.6107,5.4553,4.9492,4.9211,4.7606,4.2508,4.1719,4.1619,4.1619,4.137,4.1156,4.1156,4.1502,4.1932,4.254,4.2573,4.2838,4.32,4.32,4.32,4.32,4.08,3.9479,3.9063,3.377,3.0963,3.047,2.7568,2.617,2.6082,2.6082,2.6082,2.5957,2.5629,2.3871,2.1462,2.117,1.9357,1.6978,1.6978,1.6978,1.6978,1.6978,1.6772,1.6145,1.3526,1.0678,0.8259,0.8259,0.8154,0.7339,0.4728,0.3926,0.4035,0.4174,0.203,0.0,0.0,0.0,0.0,0.0,0.0,0.0,0.0,0.0,0.0,0.0,0.0,0.0,0.0,0.0,0.0,0.0,0.0,0.0,0.0,0.0,0.0,0.0,0.0,0.0,0.0,0.0,0.0,0.0,0.0,0.0,0.0,0.0,0.0,0.0,0.0,0.0,0.0,0.0,0.0,0.0,0.0,0.0,0.0,0.0,0.0,0.0,0.0,0.0,0.0,0.0,0.0,0.0,5.7738,5.5881,5.447,5.4663,5.1321,4.864,4.8949,4.7514,4.5736,4.4226,4.4008,4.3454,4.1866,4.1766,4.17,4.17,4.0178,3.7639,3.3678,3.1778,3.0848,3.1005,3.4714,3.6009,3.4093,3.2191,3.1231,3.1231,3.0515,3.0107,3.0037,2.8351,2.7589,2.745,2.6501,2.4981,2.3114,2.2979,2.1669,1.9871,1.9602,1.912,1.8288,1.8237,1.7706,1.6978,1.6978,1.5739,1.3983,1.3962,1.2645,1.077,0.9896,0.9021,0.7931,0.5903,0.5277,0.4768,0.1919,0.1211,0.1211,0.1215,0.0607,0.0,0.0,0.0,0.0,0.0,0.0,0.0,0.0,0.0,0.0,0.0,0.0,0.0,0.0,0.0,0.0,0.0,0.0,0.0,0.0,0.0,0.0,0.0,0.0,0.0,0.0,0.0,0.0,0.0,0.0,0.0,0.0,0.0,0.0,0.0,0.0,0.0,0.0,0.0,0.0,0.0,0.0,0.0,0.0,0.0,0.0,0.0,0.0,0.0,0.0,0.0,0.0,0.0,5.1617,5.0259,4.9031,4.9108,4.6403,4.4209,4.4279,4.3031,4.1702,4.0467,4.0304,3.996,3.8783,3.772,3.7004,3.7004,3.4656,3.1767,2.8423,2.665,2.5713,2.5713,2.7932,2.8952,2.8611,2.6923,2.6082,2.6082,2.6082,2.6082,2.6082,2.4923,2.4356,2.427,2.312,2.1606,1.9856,1.9754,1.8023,1.5387,1.5362,1.4604,1.3651,1.3593,1.3689,1.3645,1.3645,1.2505,1.1049,1.1006,0.9172,0.6797,0.6632,0.5876,0.4722,0.2947,0.2436,0.2132,0.0506,0.0,0.0,0.0,0.0,0.0,0.0,0.0,0.0,0.0,0.0,0.0,0.0,0.0,0.0,0.0,0.0,0.0,0.0,0.0,0.0,0.0,0.0,0.0,0.0,0.0,0.0,0.0,0.0,0.0,0.0,0.0,0.0,0.0,0.0,0.0,0.0,0.0,0.0,0.0,0.0,0.0,0.0,0.0,0.0,0.0,0.0,0.0,0.0,0.0,0.0,0.0,0.0,0.0,0.0,0.0,0.0,0.0,4.2542,4.2542,4.2443,4.2047,4.18,4.1505,4.0999,4.1013,4.0018,3.7051,3.7054,3.6317,3.3844,3.1084,2.9363,2.9363,2.655,2.4774,2.4774,2.4549,2.4436,2.4436,2.1777,2.1743,2.4815,2.517,2.5285,2.5285,2.5285,2.5295,2.521,2.2575,2.133,2.0986,1.8152,1.671,1.6591,1.6367,1.4756,1.2314,1.2301,1.0836,0.8489,0.8452,0.854,0.8482,0.8482,0.8329,0.8051,0.7837,0.601,0.3771,0.3629,0.1956,0.0,0.0,0.0,0.0,0.0,0.0,0.0,0.0,0.0,0.0,0.0,0.0,0.0,0.0,0.0,0.0,0.0,0.0,0.0,0.0,0.0,0.0,0.0,0.0,0.0,0.0,0.0,0.0,0.0,0.0,0.0,0.0,0.0,0.0,0.0,0.0,0.0,0.0,0.0,0.0,0.0,0.0,0.0,0.0,0.0,0.0,0.0,0.0,0.0,0.0,0.0,0.0,0.0,0.0,0.0,0.0,0.0,0.0,0.0,0.0,0.0,0.0,4.1502,4.1502,4.1568,4.1783,4.0063,3.8009,3.6191,3.4082,3.1772,2.9008,2.8468,2.8183,2.7584,2.6656,2.6211,2.6211,2.3548,2.1798,2.1798,1.9631,1.8341,1.8341,1.5757,1.4689,1.5468,1.7811,1.8948,1.8948,1.8948,1.9009,1.9129,1.8499,1.8238,1.8109,1.5189,1.3874,1.3739,1.1388,0.9965,0.9427,0.9379,0.9042,0.8511,0.8528,0.8525,0.8511,0.8511,0.7091,0.4832,0.2612,0.1466,0.0944,0.0826,0.0513,0.0,0.0,0.0,0.0,0.0,0.0,0.0,0.0,0.0,0.0,0.0,0.0,0.0,0.0,0.0,0.0,0.0,0.0,0.0,0.0,0.0,0.0,0.0,0.0,0.0,0.0,0.0,0.0,0.0,0.0,0.0,0.0,0.0,0.0,0.0,0.0,0.0,0.0,0.0,0.0,0.0,0.0,0.0,0.0,0.0,0.0,0.0,0.0,0.0,0.0,0.0,0.0,0.0,0.0,0.0,0.0,0.0,0.0,0.0,0.0,0.0,0.0,3.6163,3.5977,3.562,3.4523,3.3156,3.1753,3.0406,2.8905,2.7452,2.5881,2.5561,2.5346,2.5338,2.3997,2.2074,1.937,1.7761,1.6397,1.51,1.3499,1.2647,1.2647,1.1345,1.0639,1.0639,1.2165,1.2937,1.2937,1.2937,1.2968,1.302,1.302,1.3051,1.3113,1.15,1.0858,1.0746,0.9203,0.7693,0.6415,0.6413,0.5665,0.4492,0.4405,0.4401,0.449,0.449,0.3502,0.1994,0.0521,0.0,0.0,0.0,0.0,0.0,0.0,0.0,0.0,0.0,0.0,0.0,0.0,0.0,0.0,0.0,0.0,0.0,0.0,0.0,0.0,0.0,0.0,0.0,0.0,0.0,0.0,0.0,0.0,0.0,0.0,0.0,0.0,0.0,0.0,0.0,0.0,0.0,0.0,0.0,0.0,0.0,0.0,0.0,0.0,0.0,0.0,0.0,0.0,0.0,0.0,0.0,0.0,0.0,0.0,0.0,0.0,0.0,0.0,0.0,0.0,0.0,0.0,0.0,0.0,0.0,0.0,2.9711,2.9331,2.8592,2.6389,2.597,2.57,2.4998,2.4864,2.4578,2.3849,2.3717,2.3651,2.3571,2.114,1.7444,1.2266,1.1834,1.0813,0.8569,0.8457,0.845,0.845,0.7933,0.7728,0.7728,0.7317,0.7535,0.8487,0.8487,0.8494,0.8504,0.8504,0.8511,0.8525,0.7993,0.7781,0.7781,0.7237,0.564,0.3519,0.3433,0.2044,0.0,0.0,0.0,0.0,0.0,0.0,0.0,0.0,0.0,0.0,0.0,0.0,0.0,0.0,0.0,0.0,0.0,0.0,0.0,0.0,0.0,0.0,0.0,0.0,0.0,0.0,0.0,0.0,0.0,0.0,0.0,0.0,0.0,0.0,0.0,0.0,0.0,0.0,0.0,0.0,0.0,0.0,0.0,0.0,0.0,0.0,0.0,0.0,0.0,0.0,0.0,0.0,0.0,0.0,0.0,0.0,0.0,0.0,0.0,0.0,0.0,0.0,0.0,0.0,0.0,0.0,0.0,0.0,0.0,0.0,0.0,0.0,0.0,0.0,2.5913,2.5923,2.5717,2.5409,2.5306,2.4471,2.2072,2.176,2.0766,1.8233,1.7804,1.779,1.7768,1.5461,1.2475,0.9315,0.8937,0.8692,0.8389,0.8123,0.809,0.809,0.5854,0.4622,0.4622,0.2331,0.3614,0.8487,0.8487,0.8521,0.8693,0.8693,0.8724,0.8786,0.6189,0.4998,0.4886,0.2267,0.0969,0.0539,0.0535,0.032,0.0,0.0,0.0,0.0,0.0,0.0,0.0,0.0,0.0,0.0,0.0,0.0,0.0,0.0,0.0,0.0,0.0,0.0,0.0,0.0,0.0,0.0,0.0,0.0,0.0,0.0,0.0,0.0,0.0,0.0,0.0,0.0,0.0,0.0,0.0,0.0,0.0,0.0,0.0,0.0,0.0,0.0,0.0,0.0,0.0,0.0,0.0,0.0,0.0,0.0,0.0,0.0,0.0,0.0,0.0,0.0,0.0,0.0,0.0,0.0,0.0,0.0,0.0,0.0,0.0,0.0,0.0,0.0,0.0,0.0,0.0,0.0,0.0,0.0,2.3156,2.2857,2.2271,2.0736,2.0344,1.9979,1.8755,1.8639,1.7626,1.4758,1.4394,1.3884,1.2142,1.0869,0.9005,0.6215,0.5881,0.5251,0.3802,0.3581,0.3573,0.3573,0.2427,0.1799,0.1799,0.0638,0.1278,0.372,0.372,0.3834,0.3849,0.3849,0.3857,0.3871,0.2583,0.1937,0.1937,0.0537,0.0,0.0,0.0,0.0,0.0,0.0,0.0,0.0,0.0,0.0,0.0,0.0,0.0,0.0,0.0,0.0,0.0,0.0,0.0,0.0,0.0,0.0,0.0,0.0,0.0,0.0,0.0,0.0,0.0,0.0,0.0,0.0,0.0,0.0,0.0,0.0,0.0,0.0,0.0,0.0,0.0,0.0,0.0,0.0,0.0,0.0,0.0,0.0,0.0,0.0,0.0,0.0,0.0,0.0,0.0,0.0,0.0,0.0,0.0,0.0,0.0,0.0,0.0,0.0,0.0,0.0,0.0,0.0,0.0,0.0,0.0,0.0,0.0,0.0,0.0,0.0,0.0,0.0]}]]